<?xml version="1.0" encoding="UTF-8"?>
<gpx version="1.1" creator="Garmin Connect"
  xsi:schemaLocation="http://www.topografix.com/GPX/1/1 http://www.topografix.com/GPX/1/1/gpx.xsd http://www.garmin.com/xmlschemas/GpxExtensions/v3 http://www.garmin.com/xmlschemas/GpxExtensionsv3.xsd http://www.garmin.com/xmlschemas/TrackPointExtension/v1 http://www.garmin.com/xmlschemas/TrackPointExtensionv1.xsd"
  xmlns="http://www.topografix.com/GPX/1/1"
  xmlns:gpxtpx="http://www.garmin.com/xmlschemas/TrackPointExtension/v1"
  xmlns:gpxx="http://www.garmin.com/xmlschemas/GpxExtensions/v3" xmlns:xsi="http://www.w3.org/2001/XMLSchema-instance">
  <metadata>
    <link href="connect.garmin.com">
      <text>Garmin Connect</text>
    </link>
    <time>2013-07-30T14:15:11.000Z</time>
  </metadata>
  <trk>
    <name>BEX-MEX-BEX</name>
    <desc>Parcour en forêt exigeant
</desc>
    <trkseg>
      <trkpt lon="7.011365946382284" lat="46.24030298553407">
        <ele>440.6000061035156</ele>
        <time>2013-07-30T14:15:13.000Z</time>
      </trkpt>
      <trkpt lon="7.011253964155912" lat="46.24011196196079">
        <ele>443.0</ele>
        <time>2013-07-30T14:15:19.000Z</time>
      </trkpt>
      <trkpt lon="7.011046931147575" lat="46.24004297889769">
        <ele>442.20001220703125</ele>
        <time>2013-07-30T14:15:25.000Z</time>
      </trkpt>
      <trkpt lon="7.0108189433813095" lat="46.23997198417783">
        <ele>441.79998779296875</ele>
        <time>2013-07-30T14:15:31.000Z</time>
      </trkpt>
      <trkpt lon="7.010675948113203" lat="46.239880956709385">
        <ele>444.0</ele>
        <time>2013-07-30T14:15:37.000Z</time>
      </trkpt>
      <trkpt lon="7.010596990585327" lat="46.2397179286927">
        <ele>448.79998779296875</ele>
        <time>2013-07-30T14:15:43.000Z</time>
      </trkpt>
      <trkpt lon="7.010505963116884" lat="46.23957292176783">
        <ele>452.79998779296875</ele>
        <time>2013-07-30T14:15:48.000Z</time>
      </trkpt>
      <trkpt lon="7.010341929271817" lat="46.23948792926967">
        <ele>454.3999938964844</ele>
        <time>2013-07-30T14:15:53.000Z</time>
      </trkpt>
      <trkpt lon="7.010081922635436" lat="46.23939396813512">
        <ele>455.3999938964844</ele>
        <time>2013-07-30T14:15:59.000Z</time>
      </trkpt>
      <trkpt lon="7.009868938475847" lat="46.2393259909004">
        <ele>456.6000061035156</ele>
        <time>2013-07-30T14:16:05.000Z</time>
      </trkpt>
      <trkpt lon="7.009694930166006" lat="46.23926798813045">
        <ele>458.0</ele>
        <time>2013-07-30T14:16:11.000Z</time>
      </trkpt>
      <trkpt lon="7.009512959048152" lat="46.2391999270767">
        <ele>459.6000061035156</ele>
        <time>2013-07-30T14:16:17.000Z</time>
      </trkpt>
      <trkpt lon="7.009364934638143" lat="46.23914393596351">
        <ele>460.79998779296875</ele>
        <time>2013-07-30T14:16:22.000Z</time>
      </trkpt>
      <trkpt lon="7.009200984612107" lat="46.239082999527454">
        <ele>461.79998779296875</ele>
        <time>2013-07-30T14:16:28.000Z</time>
      </trkpt>
      <trkpt lon="7.009051954373717" lat="46.23902692459524">
        <ele>462.20001220703125</ele>
        <time>2013-07-30T14:16:33.000Z</time>
      </trkpt>
      <trkpt lon="7.008814997971058" lat="46.23893799260259">
        <ele>463.20001220703125</ele>
        <time>2013-07-30T14:16:40.000Z</time>
      </trkpt>
      <trkpt lon="7.008561948314309" lat="46.23888493515551">
        <ele>463.3999938964844</ele>
        <time>2013-07-30T14:16:47.000Z</time>
      </trkpt>
      <trkpt lon="7.0082879438996315" lat="46.23888895846903">
        <ele>462.6000061035156</ele>
        <time>2013-07-30T14:16:53.000Z</time>
      </trkpt>
      <trkpt lon="7.008065991103649" lat="46.23890496790409">
        <ele>462.20001220703125</ele>
        <time>2013-07-30T14:16:59.000Z</time>
      </trkpt>
      <trkpt lon="7.007989967241883" lat="46.23885895125568">
        <ele>463.3999938964844</ele>
        <time>2013-07-30T14:17:04.000Z</time>
      </trkpt>
      <trkpt lon="7.007919978350401" lat="46.23875392600894">
        <ele>466.0</ele>
        <time>2013-07-30T14:17:08.000Z</time>
      </trkpt>
      <trkpt lon="7.0078129414469" lat="46.238569943234324">
        <ele>470.6000061035156</ele>
        <time>2013-07-30T14:17:15.000Z</time>
      </trkpt>
      <trkpt lon="7.007752927020192" lat="46.23844899237156">
        <ele>473.6000061035156</ele>
        <time>2013-07-30T14:17:20.000Z</time>
      </trkpt>
      <trkpt lon="7.0076609775424" lat="46.238287976011634">
        <ele>477.0</ele>
        <time>2013-07-30T14:17:26.000Z</time>
      </trkpt>
      <trkpt lon="7.007545977830887" lat="46.23817699961364">
        <ele>478.20001220703125</ele>
        <time>2013-07-30T14:17:31.000Z</time>
      </trkpt>
      <trkpt lon="7.007380938157439" lat="46.23810198158026">
        <ele>479.0</ele>
        <time>2013-07-30T14:17:36.000Z</time>
      </trkpt>
      <trkpt lon="7.007066952064633" lat="46.23804397881031">
        <ele>479.20001220703125</ele>
        <time>2013-07-30T14:17:43.000Z</time>
      </trkpt>
      <trkpt lon="7.006981959566474" lat="46.238009948283434">
        <ele>479.6000061035156</ele>
        <time>2013-07-30T14:17:47.000Z</time>
      </trkpt>
      <trkpt lon="7.0069599989801645" lat="46.23797298409045">
        <ele>480.0</ele>
        <time>2013-07-30T14:17:52.000Z</time>
      </trkpt>
      <trkpt lon="7.006980953738093" lat="46.23789394274354">
        <ele>481.3999938964844</ele>
        <time>2013-07-30T14:17:56.000Z</time>
      </trkpt>
      <trkpt lon="7.00705898925662" lat="46.23789394274354">
        <ele>481.3999938964844</ele>
        <time>2013-07-30T14:18:00.000Z</time>
      </trkpt>
      <trkpt lon="7.0072029903531075" lat="46.23789394274354">
        <ele>481.79998779296875</ele>
        <time>2013-07-30T14:18:06.000Z</time>
      </trkpt>
      <trkpt lon="7.007502978667617" lat="46.237903917208314">
        <ele>482.0</ele>
        <time>2013-07-30T14:18:15.000Z</time>
      </trkpt>
      <trkpt lon="7.007722919806838" lat="46.237950939685106">
        <ele>481.6000061035156</ele>
        <time>2013-07-30T14:18:21.000Z</time>
      </trkpt>
      <trkpt lon="7.007894916459918" lat="46.23798497021198">
        <ele>481.20001220703125</ele>
        <time>2013-07-30T14:18:26.000Z</time>
      </trkpt>
      <trkpt lon="7.008165987208486" lat="46.23797792941332">
        <ele>481.6000061035156</ele>
        <time>2013-07-30T14:18:33.000Z</time>
      </trkpt>
      <trkpt lon="7.00836799107492" lat="46.237904923036695">
        <ele>482.6000061035156</ele>
        <time>2013-07-30T14:18:39.000Z</time>
      </trkpt>
      <trkpt lon="7.008614921942353" lat="46.237794952467084">
        <ele>483.6000061035156</ele>
        <time>2013-07-30T14:18:47.000Z</time>
      </trkpt>
      <trkpt lon="7.008827989920974" lat="46.237685987725854">
        <ele>484.79998779296875</ele>
        <time>2013-07-30T14:18:55.000Z</time>
      </trkpt>
      <trkpt lon="7.0090489368885756" lat="46.23746797442436">
        <ele>487.20001220703125</ele>
        <time>2013-07-30T14:19:06.000Z</time>
      </trkpt>
      <trkpt lon="7.009216994047165" lat="46.23724895529449">
        <ele>489.79998779296875</ele>
        <time>2013-07-30T14:19:16.000Z</time>
      </trkpt>
      <trkpt lon="7.009368957951665" lat="46.23703697696328">
        <ele>493.0</ele>
        <time>2013-07-30T14:19:25.000Z</time>
      </trkpt>
      <trkpt lon="7.009484963491559" lat="46.23689699918032">
        <ele>495.0</ele>
        <time>2013-07-30T14:19:32.000Z</time>
      </trkpt>
      <trkpt lon="7.0096629951149225" lat="46.23677495867014">
        <ele>497.20001220703125</ele>
        <time>2013-07-30T14:19:39.000Z</time>
      </trkpt>
      <trkpt lon="7.009816970676184" lat="46.23667093925178">
        <ele>499.0</ele>
        <time>2013-07-30T14:19:46.000Z</time>
      </trkpt>
      <trkpt lon="7.010050993412733" lat="46.23650095425546">
        <ele>500.79998779296875</ele>
        <time>2013-07-30T14:19:56.000Z</time>
      </trkpt>
      <trkpt lon="7.0102449506521225" lat="46.23632191680372">
        <ele>502.79998779296875</ele>
        <time>2013-07-30T14:20:06.000Z</time>
      </trkpt>
      <trkpt lon="7.010381994768977" lat="46.23619493097067">
        <ele>504.0</ele>
        <time>2013-07-30T14:20:13.000Z</time>
      </trkpt>
      <trkpt lon="7.0105179492384195" lat="46.23606794513762">
        <ele>505.3999938964844</ele>
        <time>2013-07-30T14:20:20.000Z</time>
      </trkpt>
      <trkpt lon="7.010668991133571" lat="46.23590097762644">
        <ele>506.79998779296875</ele>
        <time>2013-07-30T14:20:29.000Z</time>
      </trkpt>
      <trkpt lon="7.010807963088155" lat="46.23572294600308">
        <ele>508.6000061035156</ele>
        <time>2013-07-30T14:20:38.000Z</time>
      </trkpt>
      <trkpt lon="7.010895973071456" lat="46.23550199903548">
        <ele>510.79998779296875</ele>
        <time>2013-07-30T14:20:48.000Z</time>
      </trkpt>
      <trkpt lon="7.0108469389379025" lat="46.23531893827021">
        <ele>511.79998779296875</ele>
        <time>2013-07-30T14:20:56.000Z</time>
      </trkpt>
      <trkpt lon="7.010671924799681" lat="46.23504996299744">
        <ele>512.2000122070312</ele>
        <time>2013-07-30T14:21:08.000Z</time>
      </trkpt>
      <trkpt lon="7.010707966983318" lat="46.234982991591096">
        <ele>512.7999877929688</ele>
        <time>2013-07-30T14:21:11.000Z</time>
      </trkpt>
      <trkpt lon="7.010936960577965" lat="46.2349499668926">
        <ele>514.7999877929688</ele>
        <time>2013-07-30T14:21:18.000Z</time>
      </trkpt>
      <trkpt lon="7.011221945285797" lat="46.23491199687123">
        <ele>517.0</ele>
        <time>2013-07-30T14:21:26.000Z</time>
      </trkpt>
      <trkpt lon="7.011357983574271" lat="46.23487897217274">
        <ele>518.2000122070312</ele>
        <time>2013-07-30T14:21:30.000Z</time>
      </trkpt>
      <trkpt lon="7.0114129688590765" lat="46.2347929738462">
        <ele>519.0</ele>
        <time>2013-07-30T14:21:35.000Z</time>
      </trkpt>
      <trkpt lon="7.01144197024405" lat="46.23460396192968">
        <ele>520.0</ele>
        <time>2013-07-30T14:21:42.000Z</time>
      </trkpt>
      <trkpt lon="7.011502990499139" lat="46.23439491726458">
        <ele>521.4000244140625</ele>
        <time>2013-07-30T14:21:50.000Z</time>
      </trkpt>
      <trkpt lon="7.011566944420338" lat="46.23418092727661">
        <ele>522.7999877929688</ele>
        <time>2013-07-30T14:21:58.000Z</time>
      </trkpt>
      <trkpt lon="7.011608937755227" lat="46.23399996198714">
        <ele>524.5999755859375</ele>
        <time>2013-07-30T14:22:05.000Z</time>
      </trkpt>
      <trkpt lon="7.011483963578939" lat="46.23379091732204">
        <ele>525.2000122070312</ele>
        <time>2013-07-30T14:22:14.000Z</time>
      </trkpt>
      <trkpt lon="7.011383967474103" lat="46.23365697450936">
        <ele>525.4000244140625</ele>
        <time>2013-07-30T14:22:20.000Z</time>
      </trkpt>
      <trkpt lon="7.011338956654072" lat="46.233522947877645">
        <ele>526.4000244140625</ele>
        <time>2013-07-30T14:22:26.000Z</time>
      </trkpt>
      <trkpt lon="7.01118397526443" lat="46.233351957052946">
        <ele>526.7999877929688</ele>
        <time>2013-07-30T14:22:34.000Z</time>
      </trkpt>
      <trkpt lon="7.010971996933222" lat="46.233156993985176">
        <ele>527.4000244140625</ele>
        <time>2013-07-30T14:22:41.000Z</time>
      </trkpt>
      <trkpt lon="7.010669996961951" lat="46.2330159265548">
        <ele>527.4000244140625</ele>
        <time>2013-07-30T14:22:48.000Z</time>
      </trkpt>
      <trkpt lon="7.010190971195698" lat="46.23288097791374">
        <ele>528.5999755859375</ele>
        <time>2013-07-30T14:22:57.000Z</time>
      </trkpt>
      <trkpt lon="7.00978696346283" lat="46.23278399929404">
        <ele>529.2000122070312</ele>
        <time>2013-07-30T14:23:06.000Z</time>
      </trkpt>
      <trkpt lon="7.009350936859846" lat="46.232679979875684">
        <ele>529.4000244140625</ele>
        <time>2013-07-30T14:23:16.000Z</time>
      </trkpt>
      <trkpt lon="7.009234931319952" lat="46.23257897794247">
        <ele>530.7999877929688</ele>
        <time>2013-07-30T14:23:21.000Z</time>
      </trkpt>
      <trkpt lon="7.009149938821793" lat="46.23236892744899">
        <ele>533.5999755859375</ele>
        <time>2013-07-30T14:23:27.000Z</time>
      </trkpt>
      <trkpt lon="7.008984982967377" lat="46.23232894577086">
        <ele>532.7999877929688</ele>
        <time>2013-07-30T14:23:30.000Z</time>
      </trkpt>
      <trkpt lon="7.0086089707911015" lat="46.232249988242984">
        <ele>530.2000122070312</ele>
        <time>2013-07-30T14:23:35.000Z</time>
      </trkpt>
      <trkpt lon="7.008379977196455" lat="46.23220095410943">
        <ele>528.4000244140625</ele>
        <time>2013-07-30T14:23:39.000Z</time>
      </trkpt>
      <trkpt lon="7.008386934176087" lat="46.23212995938957">
        <ele>528.7999877929688</ele>
        <time>2013-07-30T14:23:42.000Z</time>
      </trkpt>
      <trkpt lon="7.008514925837517" lat="46.23193792998791">
        <ele>531.2000122070312</ele>
        <time>2013-07-30T14:23:49.000Z</time>
      </trkpt>
      <trkpt lon="7.008610982447863" lat="46.231759982183576">
        <ele>533.5999755859375</ele>
        <time>2013-07-30T14:23:55.000Z</time>
      </trkpt>
      <trkpt lon="7.008697986602783" lat="46.231627967208624">
        <ele>535.2000122070312</ele>
        <time>2013-07-30T14:24:00.000Z</time>
      </trkpt>
      <trkpt lon="7.00871198438108" lat="46.23161598108709">
        <ele>535.2000122070312</ele>
        <time>2013-07-30T14:24:01.000Z</time>
      </trkpt>
      <trkpt lon="7.008878951892257" lat="46.231478936970234">
        <ele>536.2000122070312</ele>
        <time>2013-07-30T14:24:07.000Z</time>
      </trkpt>
      <trkpt lon="7.009129989892244" lat="46.23131792061031">
        <ele>537.7999877929688</ele>
        <time>2013-07-30T14:24:14.000Z</time>
      </trkpt>
      <trkpt lon="7.009315984323621" lat="46.231154976412654">
        <ele>537.2000122070312</ele>
        <time>2013-07-30T14:24:20.000Z</time>
      </trkpt>
      <trkpt lon="7.00946694239974" lat="46.2309679761529">
        <ele>536.4000244140625</ele>
        <time>2013-07-30T14:24:26.000Z</time>
      </trkpt>
      <trkpt lon="7.009633993729949" lat="46.230664970353246">
        <ele>532.7999877929688</ele>
        <time>2013-07-30T14:24:34.000Z</time>
      </trkpt>
      <trkpt lon="7.0097949262708426" lat="46.23047495260835">
        <ele>530.0</ele>
        <time>2013-07-30T14:24:39.000Z</time>
      </trkpt>
      <trkpt lon="7.010137997567654" lat="46.23024696484208">
        <ele>527.5999755859375</ele>
        <time>2013-07-30T14:24:44.000Z</time>
      </trkpt>
      <trkpt lon="7.0102219842374325" lat="46.23019399121404">
        <ele>526.7999877929688</ele>
        <time>2013-07-30T14:24:45.000Z</time>
      </trkpt>
      <trkpt lon="7.010559942573309" lat="46.22991898097098">
        <ele>524.4000244140625</ele>
        <time>2013-07-30T14:24:49.000Z</time>
      </trkpt>
      <trkpt lon="7.010619957000017" lat="46.22981999069452">
        <ele>524.2000122070312</ele>
        <time>2013-07-30T14:24:50.000Z</time>
      </trkpt>
      <trkpt lon="7.010784996673465" lat="46.229199981316924">
        <ele>521.5999755859375</ele>
        <time>2013-07-30T14:24:56.000Z</time>
      </trkpt>
      <trkpt lon="7.010993957519531" lat="46.22886395081878">
        <ele>521.4000244140625</ele>
        <time>2013-07-30T14:25:00.000Z</time>
      </trkpt>
      <trkpt lon="7.011180957779288" lat="46.228535966947675">
        <ele>520.5999755859375</ele>
        <time>2013-07-30T14:25:04.000Z</time>
      </trkpt>
      <trkpt lon="7.0111979730427265" lat="46.228408981114626">
        <ele>520.0</ele>
        <time>2013-07-30T14:25:06.000Z</time>
      </trkpt>
      <trkpt lon="7.0113069377839565" lat="46.22838995419443">
        <ele>520.2000122070312</ele>
        <time>2013-07-30T14:25:08.000Z</time>
      </trkpt>
      <trkpt lon="7.011415986344218" lat="46.22841292060912">
        <ele>520.5999755859375</ele>
        <time>2013-07-30T14:25:11.000Z</time>
      </trkpt>
      <trkpt lon="7.011764924973249" lat="46.22849699109793">
        <ele>522.5999755859375</ele>
        <time>2013-07-30T14:25:22.000Z</time>
      </trkpt>
      <trkpt lon="7.012087963521481" lat="46.22856999747455">
        <ele>525.7999877929688</ele>
        <time>2013-07-30T14:25:32.000Z</time>
      </trkpt>
      <trkpt lon="7.012261971831322" lat="46.228726990520954">
        <ele>527.7999877929688</ele>
        <time>2013-07-30T14:25:39.000Z</time>
      </trkpt>
      <trkpt lon="7.012395998463035" lat="46.228941986337304">
        <ele>529.5999755859375</ele>
        <time>2013-07-30T14:25:48.000Z</time>
      </trkpt>
      <trkpt lon="7.012582998722792" lat="46.22913099825382">
        <ele>532.5999755859375</ele>
        <time>2013-07-30T14:25:57.000Z</time>
      </trkpt>
      <trkpt lon="7.012788942083716" lat="46.2292929366231">
        <ele>536.4000244140625</ele>
        <time>2013-07-30T14:26:06.000Z</time>
      </trkpt>
      <trkpt lon="7.013050960376859" lat="46.229441966861486">
        <ele>541.0</ele>
        <time>2013-07-30T14:26:15.000Z</time>
      </trkpt>
      <trkpt lon="7.013229997828603" lat="46.229546992108226">
        <ele>543.5999755859375</ele>
        <time>2013-07-30T14:26:22.000Z</time>
      </trkpt>
      <trkpt lon="7.0134639367461205" lat="46.2296949326992">
        <ele>546.0</ele>
        <time>2013-07-30T14:26:32.000Z</time>
      </trkpt>
      <trkpt lon="7.0136229414492846" lat="46.22979492880404">
        <ele>546.7999877929688</ele>
        <time>2013-07-30T14:26:38.000Z</time>
      </trkpt>
      <trkpt lon="7.013802984729409" lat="46.22990892268717">
        <ele>547.4000244140625</ele>
        <time>2013-07-30T14:26:45.000Z</time>
      </trkpt>
      <trkpt lon="7.01399895362556" lat="46.23002593405545">
        <ele>548.4000244140625</ele>
        <time>2013-07-30T14:26:52.000Z</time>
      </trkpt>
      <trkpt lon="7.0142019633203745" lat="46.230146968737245">
        <ele>549.7999877929688</ele>
        <time>2013-07-30T14:27:00.000Z</time>
      </trkpt>
      <trkpt lon="7.014401955530047" lat="46.23028099536896">
        <ele>549.7999877929688</ele>
        <time>2013-07-30T14:27:09.000Z</time>
      </trkpt>
      <trkpt lon="7.014509998261929" lat="46.2303529959172">
        <ele>549.5999755859375</ele>
        <time>2013-07-30T14:27:16.000Z</time>
      </trkpt>
      <trkpt lon="7.0146239921450615" lat="46.230428935959935">
        <ele>549.4000244140625</ele>
        <time>2013-07-30T14:27:21.000Z</time>
      </trkpt>
      <trkpt lon="7.014855919405818" lat="46.23058299534023">
        <ele>548.7999877929688</ele>
        <time>2013-07-30T14:27:26.000Z</time>
      </trkpt>
      <trkpt lon="7.015049960464239" lat="46.2306809797883">
        <ele>548.4000244140625</ele>
        <time>2013-07-30T14:27:29.000Z</time>
      </trkpt>
      <trkpt lon="7.01528892852366" lat="46.23080494813621">
        <ele>549.0</ele>
        <time>2013-07-30T14:27:33.000Z</time>
      </trkpt>
      <trkpt lon="7.015525968745351" lat="46.23096093535423">
        <ele>550.5999755859375</ele>
        <time>2013-07-30T14:27:40.000Z</time>
      </trkpt>
      <trkpt lon="7.015540972352028" lat="46.23097292147577">
        <ele>550.7999877929688</ele>
        <time>2013-07-30T14:27:41.000Z</time>
      </trkpt>
      <trkpt lon="7.015634933486581" lat="46.23078692704439">
        <ele>550.4000244140625</ele>
        <time>2013-07-30T14:27:50.000Z</time>
      </trkpt>
      <trkpt lon="7.015733923763037" lat="46.23070394620299">
        <ele>551.0</ele>
        <time>2013-07-30T14:27:56.000Z</time>
      </trkpt>
      <trkpt lon="7.015892928466201" lat="46.23059095814824">
        <ele>552.4000244140625</ele>
        <time>2013-07-30T14:28:03.000Z</time>
      </trkpt>
      <trkpt lon="7.016015974804759" lat="46.23050596565008">
        <ele>554.0</ele>
        <time>2013-07-30T14:28:08.000Z</time>
      </trkpt>
      <trkpt lon="7.016127957031131" lat="46.230406975373626">
        <ele>555.7999877929688</ele>
        <time>2013-07-30T14:28:14.000Z</time>
      </trkpt>
      <trkpt lon="7.016177996993065" lat="46.23028795234859">
        <ele>557.0</ele>
        <time>2013-07-30T14:28:20.000Z</time>
      </trkpt>
      <trkpt lon="7.016172967851162" lat="46.23012391850352">
        <ele>557.7999877929688</ele>
        <time>2013-07-30T14:28:27.000Z</time>
      </trkpt>
      <trkpt lon="7.016135919839144" lat="46.22998494654894">
        <ele>558.0</ele>
        <time>2013-07-30T14:28:33.000Z</time>
      </trkpt>
      <trkpt lon="7.016094932332635" lat="46.22987799346447">
        <ele>557.7999877929688</ele>
        <time>2013-07-30T14:28:38.000Z</time>
      </trkpt>
      <trkpt lon="7.016038941219449" lat="46.22970691882074">
        <ele>557.7999877929688</ele>
        <time>2013-07-30T14:28:45.000Z</time>
      </trkpt>
      <trkpt lon="7.0161389373242855" lat="46.229543974623084">
        <ele>559.2000122070312</ele>
        <time>2013-07-30T14:28:51.000Z</time>
      </trkpt>
      <trkpt lon="7.016432974487543" lat="46.229355968534946">
        <ele>560.7999877929688</ele>
        <time>2013-07-30T14:28:59.000Z</time>
      </trkpt>
      <trkpt lon="7.016714941710234" lat="46.22924197465181">
        <ele>561.7999877929688</ele>
        <time>2013-07-30T14:29:06.000Z</time>
      </trkpt>
      <trkpt lon="7.0170339569449425" lat="46.22913594357669">
        <ele>563.4000244140625</ele>
        <time>2013-07-30T14:29:14.000Z</time>
      </trkpt>
      <trkpt lon="7.017277954146266" lat="46.22905899770558">
        <ele>563.7999877929688</ele>
        <time>2013-07-30T14:29:21.000Z</time>
      </trkpt>
      <trkpt lon="7.017515916377306" lat="46.22899395413697">
        <ele>564.2000122070312</ele>
        <time>2013-07-30T14:29:29.000Z</time>
      </trkpt>
      <trkpt lon="7.0176659524440765" lat="46.22895698994398">
        <ele>564.5999755859375</ele>
        <time>2013-07-30T14:29:36.000Z</time>
      </trkpt>
      <trkpt lon="7.0177799463272095" lat="46.22891298495233">
        <ele>564.4000244140625</ele>
        <time>2013-07-30T14:29:42.000Z</time>
      </trkpt>
      <trkpt lon="7.018000977113843" lat="46.22880896553397">
        <ele>564.0</ele>
        <time>2013-07-30T14:29:49.000Z</time>
      </trkpt>
      <trkpt lon="7.018315969035029" lat="46.228665970265865">
        <ele>563.7999877929688</ele>
        <time>2013-07-30T14:29:56.000Z</time>
      </trkpt>
      <trkpt lon="7.018781919032335" lat="46.228449968621135">
        <ele>560.0</ele>
        <time>2013-07-30T14:30:03.000Z</time>
      </trkpt>
      <trkpt lon="7.019075956195593" lat="46.22843697667122">
        <ele>559.5999755859375</ele>
        <time>2013-07-30T14:30:07.000Z</time>
      </trkpt>
      <trkpt lon="7.019748939201236" lat="46.228600926697254">
        <ele>561.4000244140625</ele>
        <time>2013-07-30T14:30:16.000Z</time>
      </trkpt>
      <trkpt lon="7.02010097913444" lat="46.22872397303581">
        <ele>563.2000122070312</ele>
        <time>2013-07-30T14:30:22.000Z</time>
      </trkpt>
      <trkpt lon="7.020489983260632" lat="46.22879697941244">
        <ele>564.0</ele>
        <time>2013-07-30T14:30:29.000Z</time>
      </trkpt>
      <trkpt lon="7.020839927718043" lat="46.228855988010764">
        <ele>564.7999877929688</ele>
        <time>2013-07-30T14:30:35.000Z</time>
      </trkpt>
      <trkpt lon="7.020890973508358" lat="46.22886897996068">
        <ele>564.5999755859375</ele>
        <time>2013-07-30T14:30:36.000Z</time>
      </trkpt>
      <trkpt lon="7.0213299337774515" lat="46.22905698604882">
        <ele>565.7999877929688</ele>
        <time>2013-07-30T14:30:44.000Z</time>
      </trkpt>
      <trkpt lon="7.021704940125346" lat="46.22922998853028">
        <ele>566.4000244140625</ele>
        <time>2013-07-30T14:30:49.000Z</time>
      </trkpt>
      <trkpt lon="7.022349927574396" lat="46.22953098267317">
        <ele>566.0</ele>
        <time>2013-07-30T14:30:56.000Z</time>
      </trkpt>
      <trkpt lon="7.022553943097591" lat="46.22960499487817">
        <ele>566.0</ele>
        <time>2013-07-30T14:30:58.000Z</time>
      </trkpt>
      <trkpt lon="7.0230249222368" lat="46.229698956012726">
        <ele>564.7999877929688</ele>
        <time>2013-07-30T14:31:03.000Z</time>
      </trkpt>
      <trkpt lon="7.023505959659815" lat="46.22983993962407">
        <ele>564.0</ele>
        <time>2013-07-30T14:31:09.000Z</time>
      </trkpt>
      <trkpt lon="7.023747945204377" lat="46.22990791685879">
        <ele>562.7999877929688</ele>
        <time>2013-07-30T14:31:12.000Z</time>
      </trkpt>
      <trkpt lon="7.024217918515205" lat="46.23004697263241">
        <ele>560.5999755859375</ele>
        <time>2013-07-30T14:31:17.000Z</time>
      </trkpt>
      <trkpt lon="7.024705996736884" lat="46.230232967063785">
        <ele>561.2000122070312</ele>
        <time>2013-07-30T14:31:21.000Z</time>
      </trkpt>
      <trkpt lon="7.025248976424336" lat="46.230318965390325">
        <ele>561.0</ele>
        <time>2013-07-30T14:31:25.000Z</time>
      </trkpt>
      <trkpt lon="7.025735964998603" lat="46.23028895817697">
        <ele>560.5999755859375</ele>
        <time>2013-07-30T14:31:29.000Z</time>
      </trkpt>
      <trkpt lon="7.026126980781555" lat="46.23018493875861">
        <ele>559.5999755859375</ele>
        <time>2013-07-30T14:31:33.000Z</time>
      </trkpt>
      <trkpt lon="7.026183977723122" lat="46.230127941817045">
        <ele>559.0</ele>
        <time>2013-07-30T14:31:34.000Z</time>
      </trkpt>
      <trkpt lon="7.026276933029294" lat="46.23000799678266">
        <ele>558.0</ele>
        <time>2013-07-30T14:31:36.000Z</time>
      </trkpt>
      <trkpt lon="7.026400985196233" lat="46.229846980422735">
        <ele>558.0</ele>
        <time>2013-07-30T14:31:40.000Z</time>
      </trkpt>
      <trkpt lon="7.026671972125769" lat="46.229979917407036">
        <ele>559.0</ele>
        <time>2013-07-30T14:31:44.000Z</time>
      </trkpt>
      <trkpt lon="7.02680398710072" lat="46.229936918243766">
        <ele>560.4000244140625</ele>
        <time>2013-07-30T14:31:47.000Z</time>
      </trkpt>
      <trkpt lon="7.0270489901304245" lat="46.22979593463242">
        <ele>563.2000122070312</ele>
        <time>2013-07-30T14:31:55.000Z</time>
      </trkpt>
      <trkpt lon="7.027174970135093" lat="46.22969292104244">
        <ele>564.7999877929688</ele>
        <time>2013-07-30T14:32:00.000Z</time>
      </trkpt>
      <trkpt lon="7.027215957641602" lat="46.22951698489487">
        <ele>565.5999755859375</ele>
        <time>2013-07-30T14:32:06.000Z</time>
      </trkpt>
      <trkpt lon="7.027204977348447" lat="46.229204926639795">
        <ele>566.0</ele>
        <time>2013-07-30T14:32:15.000Z</time>
      </trkpt>
      <trkpt lon="7.027182932943106" lat="46.22883997857571">
        <ele>566.5999755859375</ele>
        <time>2013-07-30T14:32:25.000Z</time>
      </trkpt>
      <trkpt lon="7.027186956256628" lat="46.2285849172622">
        <ele>567.4000244140625</ele>
        <time>2013-07-30T14:32:33.000Z</time>
      </trkpt>
      <trkpt lon="7.027260968461633" lat="46.22822298668325">
        <ele>569.0</ele>
        <time>2013-07-30T14:32:44.000Z</time>
      </trkpt>
      <trkpt lon="7.027363982051611" lat="46.22797194868326">
        <ele>570.2000122070312</ele>
        <time>2013-07-30T14:32:52.000Z</time>
      </trkpt>
      <trkpt lon="7.0276029501110315" lat="46.22773599810898">
        <ele>573.0</ele>
        <time>2013-07-30T14:33:01.000Z</time>
      </trkpt>
      <trkpt lon="7.027832949534059" lat="46.22755595482886">
        <ele>575.4000244140625</ele>
        <time>2013-07-30T14:33:09.000Z</time>
      </trkpt>
      <trkpt lon="7.027959935367107" lat="46.22730793431401">
        <ele>576.2000122070312</ele>
        <time>2013-07-30T14:33:19.000Z</time>
      </trkpt>
      <trkpt lon="7.028059931471944" lat="46.227118922397494">
        <ele>576.5999755859375</ele>
        <time>2013-07-30T14:33:27.000Z</time>
      </trkpt>
      <trkpt lon="7.028151964768767" lat="46.22699696570635">
        <ele>577.2000122070312</ele>
        <time>2013-07-30T14:33:31.000Z</time>
      </trkpt>
      <trkpt lon="7.0283919386565685" lat="46.2269199360162">
        <ele>579.4000244140625</ele>
        <time>2013-07-30T14:33:37.000Z</time>
      </trkpt>
      <trkpt lon="7.028625961393118" lat="46.22678599320352">
        <ele>581.4000244140625</ele>
        <time>2013-07-30T14:33:43.000Z</time>
      </trkpt>
      <trkpt lon="7.0288189966231585" lat="46.22661299072206">
        <ele>582.4000244140625</ele>
        <time>2013-07-30T14:33:48.000Z</time>
      </trkpt>
      <trkpt lon="7.029035920277238" lat="46.22641492635012">
        <ele>582.4000244140625</ele>
        <time>2013-07-30T14:33:55.000Z</time>
      </trkpt>
      <trkpt lon="7.0292949210852385" lat="46.22616992332041">
        <ele>581.7999877929688</ele>
        <time>2013-07-30T14:34:03.000Z</time>
      </trkpt>
      <trkpt lon="7.029525926336646" lat="46.225976971909404">
        <ele>580.7999877929688</ele>
        <time>2013-07-30T14:34:10.000Z</time>
      </trkpt>
      <trkpt lon="7.029566997662187" lat="46.22595392167568">
        <ele>580.7999877929688</ele>
        <time>2013-07-30T14:34:11.000Z</time>
      </trkpt>
      <trkpt lon="7.029576972126961" lat="46.22577597387135">
        <ele>579.0</ele>
        <time>2013-07-30T14:34:15.000Z</time>
      </trkpt>
      <trkpt lon="7.029474964365363" lat="46.22568494640291">
        <ele>577.5999755859375</ele>
        <time>2013-07-30T14:34:17.000Z</time>
      </trkpt>
      <trkpt lon="7.029044972732663" lat="46.22530591674149">
        <ele>571.0</ele>
        <time>2013-07-30T14:34:22.000Z</time>
      </trkpt>
      <trkpt lon="7.028842968866229" lat="46.22512696310878">
        <ele>567.4000244140625</ele>
        <time>2013-07-30T14:34:24.000Z</time>
      </trkpt>
      <trkpt lon="7.028388921171427" lat="46.22482999227941">
        <ele>563.7999877929688</ele>
        <time>2013-07-30T14:34:28.000Z</time>
      </trkpt>
      <trkpt lon="7.028126986697316" lat="46.22472094371915">
        <ele>562.4000244140625</ele>
        <time>2013-07-30T14:34:30.000Z</time>
      </trkpt>
      <trkpt lon="7.027554921805859" lat="46.224587922915816">
        <ele>558.0</ele>
        <time>2013-07-30T14:34:34.000Z</time>
      </trkpt>
      <trkpt lon="7.0271659176796675" lat="46.22446294873953">
        <ele>554.5999755859375</ele>
        <time>2013-07-30T14:34:37.000Z</time>
      </trkpt>
      <trkpt lon="7.026615981012583" lat="46.22426899150014">
        <ele>548.2000122070312</ele>
        <time>2013-07-30T14:34:41.000Z</time>
      </trkpt>
      <trkpt lon="7.02646192163229" lat="46.224112920463085">
        <ele>546.4000244140625</ele>
        <time>2013-07-30T14:34:43.000Z</time>
      </trkpt>
      <trkpt lon="7.026387993246317" lat="46.223982917144895">
        <ele>546.7999877929688</ele>
        <time>2013-07-30T14:34:46.000Z</time>
      </trkpt>
      <trkpt lon="7.0263539627194405" lat="46.22392994351685">
        <ele>546.7999877929688</ele>
        <time>2013-07-30T14:34:50.000Z</time>
      </trkpt>
      <trkpt lon="7.026335941627622" lat="46.22390295378864">
        <ele>546.7999877929688</ele>
        <time>2013-07-30T14:34:53.000Z</time>
      </trkpt>
      <trkpt lon="7.026121951639652" lat="46.22373196296394">
        <ele>544.4000244140625</ele>
        <time>2013-07-30T14:34:58.000Z</time>
      </trkpt>
      <trkpt lon="7.025638986378908" lat="46.223442954942584">
        <ele>536.5999755859375</ele>
        <time>2013-07-30T14:35:03.000Z</time>
      </trkpt>
      <trkpt lon="7.025229949504137" lat="46.22322393581271">
        <ele>527.5999755859375</ele>
        <time>2013-07-30T14:35:07.000Z</time>
      </trkpt>
      <trkpt lon="7.025154931470752" lat="46.22313399799168">
        <ele>526.5999755859375</ele>
        <time>2013-07-30T14:35:08.000Z</time>
      </trkpt>
      <trkpt lon="7.02472192235291" lat="46.222631921991706">
        <ele>521.5999755859375</ele>
        <time>2013-07-30T14:35:13.000Z</time>
      </trkpt>
      <trkpt lon="7.024242980405688" lat="46.22223797254264">
        <ele>514.5999755859375</ele>
        <time>2013-07-30T14:35:17.000Z</time>
      </trkpt>
      <trkpt lon="7.023727996274829" lat="46.22204393148422">
        <ele>506.79998779296875</ele>
        <time>2013-07-30T14:35:21.000Z</time>
      </trkpt>
      <trkpt lon="7.023368999361992" lat="46.22194997034967">
        <ele>499.6000061035156</ele>
        <time>2013-07-30T14:35:23.000Z</time>
      </trkpt>
      <trkpt lon="7.022834988310933" lat="46.22175492346287">
        <ele>491.79998779296875</ele>
        <time>2013-07-30T14:35:27.000Z</time>
      </trkpt>
      <trkpt lon="7.021856987848878" lat="46.22118093073368">
        <ele>484.20001220703125</ele>
        <time>2013-07-30T14:35:34.000Z</time>
      </trkpt>
      <trkpt lon="7.021396989002824" lat="46.22107297182083">
        <ele>478.0</ele>
        <time>2013-07-30T14:35:37.000Z</time>
      </trkpt>
      <trkpt lon="7.021257933229208" lat="46.22100499458611">
        <ele>476.20001220703125</ele>
        <time>2013-07-30T14:35:39.000Z</time>
      </trkpt>
      <trkpt lon="7.021084930747747" lat="46.22081497684121">
        <ele>474.20001220703125</ele>
        <time>2013-07-30T14:35:43.000Z</time>
      </trkpt>
      <trkpt lon="7.020690981298685" lat="46.220520939677954">
        <ele>474.79998779296875</ele>
        <time>2013-07-30T14:35:48.000Z</time>
      </trkpt>
      <trkpt lon="7.020476991310716" lat="46.22040493413806">
        <ele>473.3999938964844</ele>
        <time>2013-07-30T14:35:50.000Z</time>
      </trkpt>
      <trkpt lon="7.0199469197541475" lat="46.22019194997847">
        <ele>465.3999938964844</ele>
        <time>2013-07-30T14:35:55.000Z</time>
      </trkpt>
      <trkpt lon="7.019511982798576" lat="46.219878969714046">
        <ele>463.6000061035156</ele>
        <time>2013-07-30T14:35:59.000Z</time>
      </trkpt>
      <trkpt lon="7.019080985337496" lat="46.21974293142557">
        <ele>459.3999938964844</ele>
        <time>2013-07-30T14:36:03.000Z</time>
      </trkpt>
      <trkpt lon="7.018831958994269" lat="46.2196169514209">
        <ele>457.6000061035156</ele>
        <time>2013-07-30T14:36:06.000Z</time>
      </trkpt>
      <trkpt lon="7.018753923475742" lat="46.21954696252942">
        <ele>457.20001220703125</ele>
        <time>2013-07-30T14:36:07.000Z</time>
      </trkpt>
      <trkpt lon="7.018406996503472" lat="46.219273963943124">
        <ele>453.79998779296875</ele>
        <time>2013-07-30T14:36:12.000Z</time>
      </trkpt>
      <trkpt lon="7.018336923792958" lat="46.21906693093479">
        <ele>455.6000061035156</ele>
        <time>2013-07-30T14:36:16.000Z</time>
      </trkpt>
      <trkpt lon="7.0183539390563965" lat="46.2187659367919">
        <ele>464.0</ele>
        <time>2013-07-30T14:36:23.000Z</time>
      </trkpt>
      <trkpt lon="7.0183539390563965" lat="46.21866795234382">
        <ele>466.6000061035156</ele>
        <time>2013-07-30T14:36:26.000Z</time>
      </trkpt>
      <trkpt lon="7.018311945721507" lat="46.21841096319258">
        <ele>472.3999938964844</ele>
        <time>2013-07-30T14:36:34.000Z</time>
      </trkpt>
      <trkpt lon="7.0182019751518965" lat="46.21823594905436">
        <ele>477.20001220703125</ele>
        <time>2013-07-30T14:36:40.000Z</time>
      </trkpt>
      <trkpt lon="7.018041964620352" lat="46.21812799014151">
        <ele>479.3999938964844</ele>
        <time>2013-07-30T14:36:45.000Z</time>
      </trkpt>
      <trkpt lon="7.017776928842068" lat="46.217964962124825">
        <ele>482.0</ele>
        <time>2013-07-30T14:36:52.000Z</time>
      </trkpt>
      <trkpt lon="7.017613984644413" lat="46.21786999516189">
        <ele>483.20001220703125</ele>
        <time>2013-07-30T14:36:57.000Z</time>
      </trkpt>
      <trkpt lon="7.017512982711196" lat="46.21783194132149">
        <ele>483.0</ele>
        <time>2013-07-30T14:37:00.000Z</time>
      </trkpt>
      <trkpt lon="7.017353978008032" lat="46.21775499545038">
        <ele>483.3999938964844</ele>
        <time>2013-07-30T14:37:06.000Z</time>
      </trkpt>
      <trkpt lon="7.01724492944777" lat="46.21769498102367">
        <ele>484.0</ele>
        <time>2013-07-30T14:37:10.000Z</time>
      </trkpt>
      <trkpt lon="7.0170969888567924" lat="46.21761392802">
        <ele>484.79998779296875</ele>
        <time>2013-07-30T14:37:16.000Z</time>
      </trkpt>
      <trkpt lon="7.016897918656468" lat="46.21750194579363">
        <ele>486.20001220703125</ele>
        <time>2013-07-30T14:37:21.000Z</time>
      </trkpt>
      <trkpt lon="7.016784930601716" lat="46.21743799187243">
        <ele>485.3999938964844</ele>
        <time>2013-07-30T14:37:26.000Z</time>
      </trkpt>
      <trkpt lon="7.0166549272835255" lat="46.217364985495806">
        <ele>484.20001220703125</ele>
        <time>2013-07-30T14:37:32.000Z</time>
      </trkpt>
      <trkpt lon="7.0164549350738525" lat="46.217235988005996">
        <ele>481.20001220703125</ele>
        <time>2013-07-30T14:37:38.000Z</time>
      </trkpt>
      <trkpt lon="7.016280926764011" lat="46.21711897663772">
        <ele>479.20001220703125</ele>
        <time>2013-07-30T14:37:45.000Z</time>
      </trkpt>
      <trkpt lon="7.016127957031131" lat="46.217050999403">
        <ele>477.20001220703125</ele>
        <time>2013-07-30T14:37:52.000Z</time>
      </trkpt>
      <trkpt lon="7.01597398146987" lat="46.21698293834925">
        <ele>475.3999938964844</ele>
        <time>2013-07-30T14:37:58.000Z</time>
      </trkpt>
      <trkpt lon="7.015858981758356" lat="46.21690196916461">
        <ele>475.20001220703125</ele>
        <time>2013-07-30T14:38:03.000Z</time>
      </trkpt>
      <trkpt lon="7.015800978988409" lat="46.216786969453096">
        <ele>477.20001220703125</ele>
        <time>2013-07-30T14:38:08.000Z</time>
      </trkpt>
      <trkpt lon="7.01584598980844" lat="46.216677920892835">
        <ele>481.79998779296875</ele>
        <time>2013-07-30T14:38:14.000Z</time>
      </trkpt>
      <trkpt lon="7.015921929851174" lat="46.21658697724342">
        <ele>484.0</ele>
        <time>2013-07-30T14:38:19.000Z</time>
      </trkpt>
      <trkpt lon="7.016094932332635" lat="46.216485975310206">
        <ele>488.0</ele>
        <time>2013-07-30T14:38:25.000Z</time>
      </trkpt>
      <trkpt lon="7.016215967014432" lat="46.2164309900254">
        <ele>490.6000061035156</ele>
        <time>2013-07-30T14:38:30.000Z</time>
      </trkpt>
      <trkpt lon="7.016371954232454" lat="46.21636494062841">
        <ele>494.0</ele>
        <time>2013-07-30T14:38:36.000Z</time>
      </trkpt>
      <trkpt lon="7.016541939228773" lat="46.21623493731022">
        <ele>498.0</ele>
        <time>2013-07-30T14:38:42.000Z</time>
      </trkpt>
      <trkpt lon="7.016538921743631" lat="46.2160459253937">
        <ele>499.20001220703125</ele>
        <time>2013-07-30T14:38:49.000Z</time>
      </trkpt>
      <trkpt lon="7.016376983374357" lat="46.21585397981107">
        <ele>497.20001220703125</ele>
        <time>2013-07-30T14:38:58.000Z</time>
      </trkpt>
      <trkpt lon="7.016286961734295" lat="46.21576496399939">
        <ele>497.3999938964844</ele>
        <time>2013-07-30T14:39:03.000Z</time>
      </trkpt>
      <trkpt lon="7.016113959252834" lat="46.215600930154324">
        <ele>498.0</ele>
        <time>2013-07-30T14:39:11.000Z</time>
      </trkpt>
      <trkpt lon="7.015992924571037" lat="46.21548593044281">
        <ele>497.79998779296875</ele>
        <time>2013-07-30T14:39:17.000Z</time>
      </trkpt>
      <trkpt lon="7.015785975381732" lat="46.21526598930359">
        <ele>498.0</ele>
        <time>2013-07-30T14:39:28.000Z</time>
      </trkpt>
      <trkpt lon="7.015634933486581" lat="46.21509399265051">
        <ele>500.20001220703125</ele>
        <time>2013-07-30T14:39:37.000Z</time>
      </trkpt>
      <trkpt lon="7.0155419781804085" lat="46.21494295075536">
        <ele>502.79998779296875</ele>
        <time>2013-07-30T14:39:45.000Z</time>
      </trkpt>
      <trkpt lon="7.0154789462685585" lat="46.21478998102248">
        <ele>505.6000061035156</ele>
        <time>2013-07-30T14:39:52.000Z</time>
      </trkpt>
      <trkpt lon="7.0154789462685585" lat="46.21467397548258">
        <ele>508.3999938964844</ele>
        <time>2013-07-30T14:39:57.000Z</time>
      </trkpt>
      <trkpt lon="7.015468971803784" lat="46.21452192775905">
        <ele>511.6000061035156</ele>
        <time>2013-07-30T14:40:02.000Z</time>
      </trkpt>
      <trkpt lon="7.015425972640514" lat="46.21431598439813">
        <ele>515.4000244140625</ele>
        <time>2013-07-30T14:40:08.000Z</time>
      </trkpt>
      <trkpt lon="7.015364952385426" lat="46.21415396220982">
        <ele>517.2000122070312</ele>
        <time>2013-07-30T14:40:14.000Z</time>
      </trkpt>
      <trkpt lon="7.015255987644196" lat="46.21400895528495">
        <ele>515.4000244140625</ele>
        <time>2013-07-30T14:40:20.000Z</time>
      </trkpt>
      <trkpt lon="7.015019953250885" lat="46.21384793892503">
        <ele>511.6000061035156</ele>
        <time>2013-07-30T14:40:26.000Z</time>
      </trkpt>
      <trkpt lon="7.014929931610823" lat="46.2138079572469">
        <ele>510.20001220703125</ele>
        <time>2013-07-30T14:40:29.000Z</time>
      </trkpt>
      <trkpt lon="7.01483597047627" lat="46.213821955025196">
        <ele>508.6000061035156</ele>
        <time>2013-07-30T14:40:34.000Z</time>
      </trkpt>
      <trkpt lon="7.014822978526354" lat="46.21385296806693">
        <ele>508.20001220703125</ele>
        <time>2013-07-30T14:40:35.000Z</time>
      </trkpt>
      <trkpt lon="7.01468794606626" lat="46.21417592279613">
        <ele>505.79998779296875</ele>
        <time>2013-07-30T14:40:42.000Z</time>
      </trkpt>
      <trkpt lon="7.0145609602332115" lat="46.21447599492967">
        <ele>500.6000061035156</ele>
        <time>2013-07-30T14:40:47.000Z</time>
      </trkpt>
      <trkpt lon="7.014355938881636" lat="46.214717980474234">
        <ele>495.79998779296875</ele>
        <time>2013-07-30T14:40:51.000Z</time>
      </trkpt>
      <trkpt lon="7.013992918655276" lat="46.21477397158742">
        <ele>487.20001220703125</ele>
        <time>2013-07-30T14:40:54.000Z</time>
      </trkpt>
      <trkpt lon="7.013770965859294" lat="46.21464698575437">
        <ele>481.6000061035156</ele>
        <time>2013-07-30T14:40:56.000Z</time>
      </trkpt>
      <trkpt lon="7.013590922579169" lat="46.21444892138243">
        <ele>480.0</ele>
        <time>2013-07-30T14:40:58.000Z</time>
      </trkpt>
      <trkpt lon="7.013446921482682" lat="46.21382497251034">
        <ele>476.79998779296875</ele>
        <time>2013-07-30T14:41:03.000Z</time>
      </trkpt>
      <trkpt lon="7.013464942574501" lat="46.21338693425059">
        <ele>470.0</ele>
        <time>2013-07-30T14:41:06.000Z</time>
      </trkpt>
      <trkpt lon="7.013570973649621" lat="46.2128649931401">
        <ele>461.0</ele>
        <time>2013-07-30T14:41:10.000Z</time>
      </trkpt>
      <trkpt lon="7.013961989432573" lat="46.21256198734045">
        <ele>469.0</ele>
        <time>2013-07-30T14:41:13.000Z</time>
      </trkpt>
      <trkpt lon="7.01410498470068" lat="46.21231094934046">
        <ele>470.3999938964844</ele>
        <time>2013-07-30T14:41:15.000Z</time>
      </trkpt>
      <trkpt lon="7.01406299136579" lat="46.2118739169091">
        <ele>461.20001220703125</ele>
        <time>2013-07-30T14:41:18.000Z</time>
      </trkpt>
      <trkpt lon="7.014038935303688" lat="46.211716923862696">
        <ele>457.3999938964844</ele>
        <time>2013-07-30T14:41:19.000Z</time>
      </trkpt>
      <trkpt lon="7.0140659250319" lat="46.211112923920155">
        <ele>443.79998779296875</ele>
        <time>2013-07-30T14:41:23.000Z</time>
      </trkpt>
      <trkpt lon="7.0143939927220345" lat="46.21056399308145">
        <ele>449.6000061035156</ele>
        <time>2013-07-30T14:41:27.000Z</time>
      </trkpt>
      <trkpt lon="7.014469932764769" lat="46.21021798811853">
        <ele>450.6000061035156</ele>
        <time>2013-07-30T14:41:29.000Z</time>
      </trkpt>
      <trkpt lon="7.01415192335844" lat="46.20961599983275">
        <ele>423.3999938964844</ele>
        <time>2013-07-30T14:41:33.000Z</time>
      </trkpt>
      <trkpt lon="7.014126945286989" lat="46.209547938779">
        <ele>422.6000061035156</ele>
        <time>2013-07-30T14:41:35.000Z</time>
      </trkpt>
      <trkpt lon="7.013997947797179" lat="46.20952698402107">
        <ele>420.79998779296875</ele>
        <time>2013-07-30T14:41:37.000Z</time>
      </trkpt>
      <trkpt lon="7.013997947797179" lat="46.20952698402107">
        <ele>420.79998779296875</ele>
        <time>2013-07-30T14:41:40.000Z</time>
      </trkpt>
      <trkpt lon="7.01404295861721" lat="46.20944794267416">
        <ele>421.0</ele>
        <time>2013-07-30T14:41:41.000Z</time>
      </trkpt>
      <trkpt lon="7.014177991077304" lat="46.20921593159437">
        <ele>421.79998779296875</ele>
        <time>2013-07-30T14:41:47.000Z</time>
      </trkpt>
      <trkpt lon="7.014352921396494" lat="46.20891292579472">
        <ele>427.6000061035156</ele>
        <time>2013-07-30T14:41:52.000Z</time>
      </trkpt>
      <trkpt lon="7.014680989086628" lat="46.208382938057184">
        <ele>424.79998779296875</ele>
        <time>2013-07-30T14:42:00.000Z</time>
      </trkpt>
      <trkpt lon="7.015079967677593" lat="46.20781296864152">
        <ele>423.3999938964844</ele>
        <time>2013-07-30T14:42:09.000Z</time>
      </trkpt>
      <trkpt lon="7.01541792601347" lat="46.207328997552395">
        <ele>419.0</ele>
        <time>2013-07-30T14:42:17.000Z</time>
      </trkpt>
      <trkpt lon="7.01571598649025" lat="46.206833962351084">
        <ele>418.6000061035156</ele>
        <time>2013-07-30T14:42:25.000Z</time>
      </trkpt>
      <trkpt lon="7.016032990068197" lat="46.206320989876986">
        <ele>421.20001220703125</ele>
        <time>2013-07-30T14:42:34.000Z</time>
      </trkpt>
      <trkpt lon="7.016249997541308" lat="46.20598998852074">
        <ele>421.20001220703125</ele>
        <time>2013-07-30T14:42:40.000Z</time>
      </trkpt>
      <trkpt lon="7.016500951722264" lat="46.2056399602443">
        <ele>419.79998779296875</ele>
        <time>2013-07-30T14:42:47.000Z</time>
      </trkpt>
      <trkpt lon="7.016708990558982" lat="46.20535899884999">
        <ele>420.20001220703125</ele>
        <time>2013-07-30T14:42:51.000Z</time>
      </trkpt>
      <trkpt lon="7.0169709250330925" lat="46.20524198748171">
        <ele>421.3999938964844</ele>
        <time>2013-07-30T14:42:55.000Z</time>
      </trkpt>
      <trkpt lon="7.017146944999695" lat="46.20518499054015">
        <ele>421.79998779296875</ele>
        <time>2013-07-30T14:42:58.000Z</time>
      </trkpt>
      <trkpt lon="7.017233949154615" lat="46.20493294671178">
        <ele>419.79998779296875</ele>
        <time>2013-07-30T14:43:00.000Z</time>
      </trkpt>
      <trkpt lon="7.0168389938771725" lat="46.20437898673117">
        <ele>419.20001220703125</ele>
        <time>2013-07-30T14:43:09.000Z</time>
      </trkpt>
      <trkpt lon="7.016505980864167" lat="46.203976990655065">
        <ele>418.20001220703125</ele>
        <time>2013-07-30T14:43:17.000Z</time>
      </trkpt>
      <trkpt lon="7.016288973391056" lat="46.20372796431184">
        <ele>417.79998779296875</ele>
        <time>2013-07-30T14:43:22.000Z</time>
      </trkpt>
      <trkpt lon="7.015990996733308" lat="46.20342998765409">
        <ele>418.3999938964844</ele>
        <time>2013-07-30T14:43:32.000Z</time>
      </trkpt>
      <trkpt lon="7.0158429723232985" lat="46.20328196324408">
        <ele>419.20001220703125</ele>
        <time>2013-07-30T14:43:36.000Z</time>
      </trkpt>
      <trkpt lon="7.0155999809503555" lat="46.203164951875806">
        <ele>420.0</ele>
        <time>2013-07-30T14:43:40.000Z</time>
      </trkpt>
      <trkpt lon="7.014870923012495" lat="46.20298398658633">
        <ele>420.3999938964844</ele>
        <time>2013-07-30T14:43:47.000Z</time>
      </trkpt>
      <trkpt lon="7.014145972207189" lat="46.20283596217632">
        <ele>419.6000061035156</ele>
        <time>2013-07-30T14:43:52.000Z</time>
      </trkpt>
      <trkpt lon="7.013663928955793" lat="46.2027439288795">
        <ele>419.20001220703125</ele>
        <time>2013-07-30T14:43:57.000Z</time>
      </trkpt>
      <trkpt lon="7.01359192840755" lat="46.202731942757964">
        <ele>419.20001220703125</ele>
        <time>2013-07-30T14:43:58.000Z</time>
      </trkpt>
      <trkpt lon="7.0134639367461205" lat="46.20270394720137">
        <ele>419.20001220703125</ele>
        <time>2013-07-30T14:44:00.000Z</time>
      </trkpt>
      <trkpt lon="7.012977954000235" lat="46.20255793444812">
        <ele>419.3999938964844</ele>
        <time>2013-07-30T14:44:05.000Z</time>
      </trkpt>
      <trkpt lon="7.012943923473358" lat="46.20254695415497">
        <ele>419.3999938964844</ele>
        <time>2013-07-30T14:44:06.000Z</time>
      </trkpt>
      <trkpt lon="7.012448972091079" lat="46.20238493196666">
        <ele>420.20001220703125</ele>
        <time>2013-07-30T14:44:14.000Z</time>
      </trkpt>
      <trkpt lon="7.011882942169905" lat="46.202197931706905">
        <ele>421.0</ele>
        <time>2013-07-30T14:44:22.000Z</time>
      </trkpt>
      <trkpt lon="7.011466948315501" lat="46.20206197723746">
        <ele>422.0</ele>
        <time>2013-07-30T14:44:28.000Z</time>
      </trkpt>
      <trkpt lon="7.011327976360917" lat="46.20201696641743">
        <ele>422.0</ele>
        <time>2013-07-30T14:44:32.000Z</time>
      </trkpt>
      <trkpt lon="7.011295957490802" lat="46.20200699195266">
        <ele>422.20001220703125</ele>
        <time>2013-07-30T14:44:33.000Z</time>
      </trkpt>
      <trkpt lon="7.0111549738794565" lat="46.20196198113263">
        <ele>422.20001220703125</ele>
        <time>2013-07-30T14:44:37.000Z</time>
      </trkpt>
      <trkpt lon="7.011195961385965" lat="46.20184698142111">
        <ele>422.79998779296875</ele>
        <time>2013-07-30T14:44:41.000Z</time>
      </trkpt>
      <trkpt lon="7.011534925550222" lat="46.201639948412776">
        <ele>424.6000061035156</ele>
        <time>2013-07-30T14:44:49.000Z</time>
      </trkpt>
      <trkpt lon="7.0120529271662235" lat="46.2013329192996">
        <ele>424.79998779296875</ele>
        <time>2013-07-30T14:45:00.000Z</time>
      </trkpt>
      <trkpt lon="7.0123939868062735" lat="46.20113594457507">
        <ele>425.6000061035156</ele>
        <time>2013-07-30T14:45:07.000Z</time>
      </trkpt>
      <trkpt lon="7.012629937380552" lat="46.20102697983384">
        <ele>426.3999938964844</ele>
        <time>2013-07-30T14:45:12.000Z</time>
      </trkpt>
      <trkpt lon="7.012687940150499" lat="46.20073897764087">
        <ele>428.3999938964844</ele>
        <time>2013-07-30T14:45:18.000Z</time>
      </trkpt>
      <trkpt lon="7.012895978987217" lat="46.200497997924685">
        <ele>430.20001220703125</ele>
        <time>2013-07-30T14:45:25.000Z</time>
      </trkpt>
      <trkpt lon="7.013126984238625" lat="46.20022994466126">
        <ele>432.0</ele>
        <time>2013-07-30T14:45:33.000Z</time>
      </trkpt>
      <trkpt lon="7.013280959799886" lat="46.20005199685693">
        <ele>433.3999938964844</ele>
        <time>2013-07-30T14:45:39.000Z</time>
      </trkpt>
      <trkpt lon="7.013457985594869" lat="46.19982291944325">
        <ele>435.6000061035156</ele>
        <time>2013-07-30T14:45:46.000Z</time>
      </trkpt>
      <trkpt lon="7.013651942834258" lat="46.199557967484">
        <ele>437.79998779296875</ele>
        <time>2013-07-30T14:45:54.000Z</time>
      </trkpt>
      <trkpt lon="7.013780940324068" lat="46.19923995807767">
        <ele>440.0</ele>
        <time>2013-07-30T14:46:03.000Z</time>
      </trkpt>
      <trkpt lon="7.013921923935413" lat="46.19893695227802">
        <ele>442.20001220703125</ele>
        <time>2013-07-30T14:46:12.000Z</time>
      </trkpt>
      <trkpt lon="7.014106996357441" lat="46.198691949248314">
        <ele>444.20001220703125</ele>
        <time>2013-07-30T14:46:20.000Z</time>
      </trkpt>
      <trkpt lon="7.014245968312025" lat="46.19853395037353">
        <ele>445.3999938964844</ele>
        <time>2013-07-30T14:46:27.000Z</time>
      </trkpt>
      <trkpt lon="7.01436398550868" lat="46.19839992374182">
        <ele>446.20001220703125</ele>
        <time>2013-07-30T14:46:33.000Z</time>
      </trkpt>
      <trkpt lon="7.014544950798154" lat="46.19819398038089">
        <ele>447.6000061035156</ele>
        <time>2013-07-30T14:46:42.000Z</time>
      </trkpt>
      <trkpt lon="7.014742931351066" lat="46.19796892628074">
        <ele>449.20001220703125</ele>
        <time>2013-07-30T14:46:52.000Z</time>
      </trkpt>
      <trkpt lon="7.0148849207907915" lat="46.19780799373984">
        <ele>450.3999938964844</ele>
        <time>2013-07-30T14:46:59.000Z</time>
      </trkpt>
      <trkpt lon="7.01500897295773" lat="46.197666926309466">
        <ele>451.3999938964844</ele>
        <time>2013-07-30T14:47:05.000Z</time>
      </trkpt>
      <trkpt lon="7.0152439177036285" lat="46.19739996269345">
        <ele>453.3999938964844</ele>
        <time>2013-07-30T14:47:16.000Z</time>
      </trkpt>
      <trkpt lon="7.0153929479420185" lat="46.197231989353895">
        <ele>454.6000061035156</ele>
        <time>2013-07-30T14:47:23.000Z</time>
      </trkpt>
      <trkpt lon="7.015499984845519" lat="46.197106931358576">
        <ele>455.3999938964844</ele>
        <time>2013-07-30T14:47:28.000Z</time>
      </trkpt>
      <trkpt lon="7.0155219454318285" lat="46.197080947458744">
        <ele>455.3999938964844</ele>
        <time>2013-07-30T14:47:34.000Z</time>
      </trkpt>
      <trkpt lon="7.015811959281564" lat="46.19676494970918">
        <ele>457.20001220703125</ele>
        <time>2013-07-30T14:47:42.000Z</time>
      </trkpt>
      <trkpt lon="7.016045982018113" lat="46.19651097804308">
        <ele>459.0</ele>
        <time>2013-07-30T14:47:52.000Z</time>
      </trkpt>
      <trkpt lon="7.016269946470857" lat="46.19626899249852">
        <ele>460.6000061035156</ele>
        <time>2013-07-30T14:48:01.000Z</time>
      </trkpt>
      <trkpt lon="7.01651394367218" lat="46.19600295089185">
        <ele>462.0</ele>
        <time>2013-07-30T14:48:11.000Z</time>
      </trkpt>
      <trkpt lon="7.0166469644755125" lat="46.19586993008852">
        <ele>462.79998779296875</ele>
        <time>2013-07-30T14:48:17.000Z</time>
      </trkpt>
      <trkpt lon="7.01672793366015" lat="46.19578896090388">
        <ele>463.6000061035156</ele>
        <time>2013-07-30T14:48:21.000Z</time>
      </trkpt>
      <trkpt lon="7.016823990270495" lat="46.19566993787885">
        <ele>465.0</ele>
        <time>2013-07-30T14:48:26.000Z</time>
      </trkpt>
      <trkpt lon="7.016946952790022" lat="46.195511939004064">
        <ele>467.0</ele>
        <time>2013-07-30T14:48:33.000Z</time>
      </trkpt>
      <trkpt lon="7.017052983865142" lat="46.19537598453462">
        <ele>468.6000061035156</ele>
        <time>2013-07-30T14:48:38.000Z</time>
      </trkpt>
      <trkpt lon="7.0171779580414295" lat="46.19520792737603">
        <ele>470.6000061035156</ele>
        <time>2013-07-30T14:48:44.000Z</time>
      </trkpt>
      <trkpt lon="7.017344925552607" lat="46.19498698040843">
        <ele>473.0</ele>
        <time>2013-07-30T14:48:52.000Z</time>
      </trkpt>
      <trkpt lon="7.017482975497842" lat="46.194801991805434">
        <ele>475.0</ele>
        <time>2013-07-30T14:48:59.000Z</time>
      </trkpt>
      <trkpt lon="7.01758892275393" lat="46.19464198127389">
        <ele>476.79998779296875</ele>
        <time>2013-07-30T14:49:06.000Z</time>
      </trkpt>
      <trkpt lon="7.017649943009019" lat="46.19451994076371">
        <ele>478.0</ele>
        <time>2013-07-30T14:49:12.000Z</time>
      </trkpt>
      <trkpt lon="7.017701994627714" lat="46.194420950487256">
        <ele>479.0</ele>
        <time>2013-07-30T14:49:19.000Z</time>
      </trkpt>
      <trkpt lon="7.01776091940701" lat="46.1943269893527">
        <ele>480.0</ele>
        <time>2013-07-30T14:49:25.000Z</time>
      </trkpt>
      <trkpt lon="7.01780391857028" lat="46.19425498880446">
        <ele>480.6000061035156</ele>
        <time>2013-07-30T14:49:29.000Z</time>
      </trkpt>
      <trkpt lon="7.017825962975621" lat="46.19420997798443">
        <ele>481.0</ele>
        <time>2013-07-30T14:49:33.000Z</time>
      </trkpt>
      <trkpt lon="7.017879942432046" lat="46.19410193525255">
        <ele>482.0</ele>
        <time>2013-07-30T14:49:40.000Z</time>
      </trkpt>
      <trkpt lon="7.017893940210342" lat="46.193966986611485">
        <ele>483.20001220703125</ele>
        <time>2013-07-30T14:49:46.000Z</time>
      </trkpt>
      <trkpt lon="7.01786695048213" lat="46.19382893666625">
        <ele>484.20001220703125</ele>
        <time>2013-07-30T14:49:53.000Z</time>
      </trkpt>
      <trkpt lon="7.017853958532214" lat="46.19377898052335">
        <ele>484.79998779296875</ele>
        <time>2013-07-30T14:49:56.000Z</time>
      </trkpt>
      <trkpt lon="7.017828980460763" lat="46.19370496831834">
        <ele>485.3999938964844</ele>
        <time>2013-07-30T14:50:00.000Z</time>
      </trkpt>
      <trkpt lon="7.017787992954254" lat="46.193580999970436">
        <ele>486.3999938964844</ele>
        <time>2013-07-30T14:50:07.000Z</time>
      </trkpt>
      <trkpt lon="7.017782963812351" lat="46.19356599636376">
        <ele>486.6000061035156</ele>
        <time>2013-07-30T14:50:08.000Z</time>
      </trkpt>
      <trkpt lon="7.0177369471639395" lat="46.19343892671168">
        <ele>487.79998779296875</ele>
        <time>2013-07-30T14:50:15.000Z</time>
      </trkpt>
      <trkpt lon="7.017690930515528" lat="46.19331797584891">
        <ele>488.79998779296875</ele>
        <time>2013-07-30T14:50:21.000Z</time>
      </trkpt>
      <trkpt lon="7.017770977690816" lat="46.19320699945092">
        <ele>489.79998779296875</ele>
        <time>2013-07-30T14:50:27.000Z</time>
      </trkpt>
      <trkpt lon="7.0178809482604265" lat="46.1931339930743">
        <ele>490.3999938964844</ele>
        <time>2013-07-30T14:50:32.000Z</time>
      </trkpt>
      <trkpt lon="7.017992930486798" lat="46.193042965605855">
        <ele>491.0</ele>
        <time>2013-07-30T14:50:38.000Z</time>
      </trkpt>
      <trkpt lon="7.018053950741887" lat="46.19298295117915">
        <ele>491.3999938964844</ele>
        <time>2013-07-30T14:50:43.000Z</time>
      </trkpt>
      <trkpt lon="7.018053950741887" lat="46.19298295117915">
        <ele>491.3999938964844</ele>
        <time>2013-07-30T14:50:46.000Z</time>
      </trkpt>
      <trkpt lon="7.018053950741887" lat="46.19298295117915">
        <ele>491.3999938964844</ele>
        <time>2013-07-30T14:50:50.000Z</time>
      </trkpt>
      <trkpt lon="7.018332984298468" lat="46.19279595091939">
        <ele>492.3999938964844</ele>
        <time>2013-07-30T14:50:56.000Z</time>
      </trkpt>
      <trkpt lon="7.018379922956228" lat="46.19266293011606">
        <ele>493.6000061035156</ele>
        <time>2013-07-30T14:51:02.000Z</time>
      </trkpt>
      <trkpt lon="7.018440943211317" lat="46.192544996738434">
        <ele>494.6000061035156</ele>
        <time>2013-07-30T14:51:08.000Z</time>
      </trkpt>
      <trkpt lon="7.018473967909813" lat="46.19241398759186">
        <ele>496.0</ele>
        <time>2013-07-30T14:51:14.000Z</time>
      </trkpt>
      <trkpt lon="7.018413953483105" lat="46.19223897345364">
        <ele>497.79998779296875</ele>
        <time>2013-07-30T14:51:22.000Z</time>
      </trkpt>
      <trkpt lon="7.018376989290118" lat="46.19208793155849">
        <ele>499.3999938964844</ele>
        <time>2013-07-30T14:51:30.000Z</time>
      </trkpt>
      <trkpt lon="7.0183259434998035" lat="46.19200796820223">
        <ele>500.20001220703125</ele>
        <time>2013-07-30T14:51:34.000Z</time>
      </trkpt>
      <trkpt lon="7.0182449743151665" lat="46.19189296849072">
        <ele>501.6000061035156</ele>
        <time>2013-07-30T14:51:40.000Z</time>
      </trkpt>
      <trkpt lon="7.018203986808658" lat="46.19182398542762">
        <ele>502.6000061035156</ele>
        <time>2013-07-30T14:51:46.000Z</time>
      </trkpt>
      <trkpt lon="7.018203986808658" lat="46.19182398542762">
        <ele>502.6000061035156</ele>
        <time>2013-07-30T14:51:52.000Z</time>
      </trkpt>
      <trkpt lon="7.018203986808658" lat="46.19182398542762">
        <ele>502.6000061035156</ele>
        <time>2013-07-30T14:51:55.000Z</time>
      </trkpt>
      <trkpt lon="7.018065936863422" lat="46.19158996269107">
        <ele>505.0</ele>
        <time>2013-07-30T14:52:00.000Z</time>
      </trkpt>
      <trkpt lon="7.0180529449135065" lat="46.19152592495084">
        <ele>505.6000061035156</ele>
        <time>2013-07-30T14:52:04.000Z</time>
      </trkpt>
      <trkpt lon="7.018040958791971" lat="46.191472951322794">
        <ele>506.0</ele>
        <time>2013-07-30T14:52:08.000Z</time>
      </trkpt>
      <trkpt lon="7.018023943528533" lat="46.191389970481396">
        <ele>506.6000061035156</ele>
        <time>2013-07-30T14:52:13.000Z</time>
      </trkpt>
      <trkpt lon="7.018003994598985" lat="46.19128896854818">
        <ele>507.20001220703125</ele>
        <time>2013-07-30T14:52:19.000Z</time>
      </trkpt>
      <trkpt lon="7.017993936315179" lat="46.19122895412147">
        <ele>507.6000061035156</ele>
        <time>2013-07-30T14:52:23.000Z</time>
      </trkpt>
      <trkpt lon="7.017981950193644" lat="46.19115896522999">
        <ele>508.20001220703125</ele>
        <time>2013-07-30T14:52:28.000Z</time>
      </trkpt>
      <trkpt lon="7.017970969900489" lat="46.19109492748976">
        <ele>508.6000061035156</ele>
        <time>2013-07-30T14:52:32.000Z</time>
      </trkpt>
      <trkpt lon="7.017938951030374" lat="46.19099199771881">
        <ele>509.3999938964844</ele>
        <time>2013-07-30T14:52:38.000Z</time>
      </trkpt>
      <trkpt lon="7.017902992665768" lat="46.190895941108465">
        <ele>510.0</ele>
        <time>2013-07-30T14:52:46.000Z</time>
      </trkpt>
      <trkpt lon="7.017844989895821" lat="46.190829975530505">
        <ele>510.6000061035156</ele>
        <time>2013-07-30T14:52:49.000Z</time>
      </trkpt>
      <trkpt lon="7.0176659524440765" lat="46.19079795666039">
        <ele>511.0</ele>
        <time>2013-07-30T14:52:55.000Z</time>
      </trkpt>
      <trkpt lon="7.017653966322541" lat="46.1906729824841">
        <ele>512.4000244140625</ele>
        <time>2013-07-30T14:53:01.000Z</time>
      </trkpt>
      <trkpt lon="7.017657989636064" lat="46.19062394835055">
        <ele>513.0</ele>
        <time>2013-07-30T14:53:04.000Z</time>
      </trkpt>
      <trkpt lon="7.0176659524440765" lat="46.19051791727543">
        <ele>514.0</ele>
        <time>2013-07-30T14:53:10.000Z</time>
      </trkpt>
      <trkpt lon="7.017620941624045" lat="46.19042596779764">
        <ele>515.0</ele>
        <time>2013-07-30T14:53:16.000Z</time>
      </trkpt>
      <trkpt lon="7.017569979652762" lat="46.19035195559263">
        <ele>516.0</ele>
        <time>2013-07-30T14:53:21.000Z</time>
      </trkpt>
      <trkpt lon="7.0174799580127" lat="46.19022094644606">
        <ele>517.5999755859375</ele>
        <time>2013-07-30T14:53:28.000Z</time>
      </trkpt>
      <trkpt lon="7.017448944970965" lat="46.19017593562603">
        <ele>518.0</ele>
        <time>2013-07-30T14:53:31.000Z</time>
      </trkpt>
      <trkpt lon="7.017398988828063" lat="46.19008197449148">
        <ele>519.2000122070312</ele>
        <time>2013-07-30T14:53:37.000Z</time>
      </trkpt>
      <trkpt lon="7.017356995493174" lat="46.189992958679795">
        <ele>520.2000122070312</ele>
        <time>2013-07-30T14:53:42.000Z</time>
      </trkpt>
      <trkpt lon="7.0173279941082" lat="46.189929926767945">
        <ele>520.7999877929688</ele>
        <time>2013-07-30T14:53:45.000Z</time>
      </trkpt>
      <trkpt lon="7.017301926389337" lat="46.18987494148314">
        <ele>521.4000244140625</ele>
        <time>2013-07-30T14:53:48.000Z</time>
      </trkpt>
      <trkpt lon="7.017196984961629" lat="46.18976295925677">
        <ele>522.5999755859375</ele>
        <time>2013-07-30T14:53:54.000Z</time>
      </trkpt>
      <trkpt lon="7.0171119924634695" lat="46.18973194621503">
        <ele>523.0</ele>
        <time>2013-07-30T14:53:56.000Z</time>
      </trkpt>
      <trkpt lon="7.0169679913669825" lat="46.18968098424375">
        <ele>523.7999877929688</ele>
        <time>2013-07-30T14:54:02.000Z</time>
      </trkpt>
      <trkpt lon="7.0168109983205795" lat="46.189646953716874">
        <ele>524.4000244140625</ele>
        <time>2013-07-30T14:54:08.000Z</time>
      </trkpt>
      <trkpt lon="7.016758946701884" lat="46.1896369792521">
        <ele>524.5999755859375</ele>
        <time>2013-07-30T14:54:10.000Z</time>
      </trkpt>
      <trkpt lon="7.016651993617415" lat="46.18961392901838">
        <ele>525.0</ele>
        <time>2013-07-30T14:54:14.000Z</time>
      </trkpt>
      <trkpt lon="7.016551997512579" lat="46.18959297426045">
        <ele>525.5999755859375</ele>
        <time>2013-07-30T14:54:17.000Z</time>
      </trkpt>
      <trkpt lon="7.016367930918932" lat="46.189541928470135">
        <ele>526.4000244140625</ele>
        <time>2013-07-30T14:54:24.000Z</time>
      </trkpt>
      <trkpt lon="7.016314957290888" lat="46.18952298536897">
        <ele>526.5999755859375</ele>
        <time>2013-07-30T14:54:26.000Z</time>
      </trkpt>
      <trkpt lon="7.016272963955998" lat="46.18950697593391">
        <ele>526.7999877929688</ele>
        <time>2013-07-30T14:54:29.000Z</time>
      </trkpt>
      <trkpt lon="7.016272963955998" lat="46.18950697593391">
        <ele>526.7999877929688</ele>
        <time>2013-07-30T14:54:33.000Z</time>
      </trkpt>
      <trkpt lon="7.015978926792741" lat="46.189328944310546">
        <ele>529.2000122070312</ele>
        <time>2013-07-30T14:54:40.000Z</time>
      </trkpt>
      <trkpt lon="7.015894940122962" lat="46.18923598900437">
        <ele>530.2000122070312</ele>
        <time>2013-07-30T14:54:47.000Z</time>
      </trkpt>
      <trkpt lon="7.015864932909608" lat="46.18920598179102">
        <ele>530.4000244140625</ele>
        <time>2013-07-30T14:54:49.000Z</time>
      </trkpt>
      <trkpt lon="7.015776922926307" lat="46.1891189776361">
        <ele>531.5999755859375</ele>
        <time>2013-07-30T14:54:56.000Z</time>
      </trkpt>
      <trkpt lon="7.015735935419798" lat="46.18907698430121">
        <ele>532.0</ele>
        <time>2013-07-30T14:54:58.000Z</time>
      </trkpt>
      <trkpt lon="7.01567298732698" lat="46.18901998735964">
        <ele>532.7999877929688</ele>
        <time>2013-07-30T14:55:02.000Z</time>
      </trkpt>
      <trkpt lon="7.015638956800103" lat="46.18898998014629">
        <ele>533.2000122070312</ele>
        <time>2013-07-30T14:55:05.000Z</time>
      </trkpt>
      <trkpt lon="7.015495961531997" lat="46.18885897099972">
        <ele>535.2000122070312</ele>
        <time>2013-07-30T14:55:12.000Z</time>
      </trkpt>
      <trkpt lon="7.01539495959878" lat="46.188769955188036">
        <ele>536.5999755859375</ele>
        <time>2013-07-30T14:55:18.000Z</time>
      </trkpt>
      <trkpt lon="7.0153269823640585" lat="46.18870893493295">
        <ele>537.5999755859375</ele>
        <time>2013-07-30T14:55:23.000Z</time>
      </trkpt>
      <trkpt lon="7.015168983489275" lat="46.18856895714998">
        <ele>540.0</ele>
        <time>2013-07-30T14:55:31.000Z</time>
      </trkpt>
      <trkpt lon="7.015107963234186" lat="46.18850592523813">
        <ele>541.0</ele>
        <time>2013-07-30T14:55:34.000Z</time>
      </trkpt>
      <trkpt lon="7.0150689873844385" lat="46.18841799907386">
        <ele>542.4000244140625</ele>
        <time>2013-07-30T14:55:39.000Z</time>
      </trkpt>
      <trkpt lon="7.015014924108982" lat="46.188312973827124">
        <ele>544.0</ele>
        <time>2013-07-30T14:55:45.000Z</time>
      </trkpt>
      <trkpt lon="7.014968991279602" lat="46.18826494552195">
        <ele>544.4000244140625</ele>
        <time>2013-07-30T14:55:49.000Z</time>
      </trkpt>
      <trkpt lon="7.014909982681274" lat="46.18820291943848">
        <ele>545.2000122070312</ele>
        <time>2013-07-30T14:55:54.000Z</time>
      </trkpt>
      <trkpt lon="7.014909982681274" lat="46.18820291943848">
        <ele>545.2000122070312</ele>
        <time>2013-07-30T14:55:55.000Z</time>
      </trkpt>
      <trkpt lon="7.014801939949393" lat="46.18809093721211">
        <ele>546.5999755859375</ele>
        <time>2013-07-30T14:56:01.000Z</time>
      </trkpt>
      <trkpt lon="7.014745948836207" lat="46.18803293444216">
        <ele>547.4000244140625</ele>
        <time>2013-07-30T14:56:07.000Z</time>
      </trkpt>
      <trkpt lon="7.014745948836207" lat="46.18803293444216">
        <ele>547.4000244140625</ele>
        <time>2013-07-30T14:56:10.000Z</time>
      </trkpt>
      <trkpt lon="7.0146699249744415" lat="46.18795397691429">
        <ele>548.4000244140625</ele>
        <time>2013-07-30T14:56:13.000Z</time>
      </trkpt>
      <trkpt lon="7.014469932764769" lat="46.18744695559144">
        <ele>553.0</ele>
        <time>2013-07-30T14:56:15.000Z</time>
      </trkpt>
      <trkpt lon="7.014469932764769" lat="46.18744695559144">
        <ele>553.0</ele>
        <time>2013-07-30T14:56:17.000Z</time>
      </trkpt>
      <trkpt lon="7.014469932764769" lat="46.18744695559144">
        <ele>553.0</ele>
        <time>2013-07-30T14:56:25.000Z</time>
      </trkpt>
      <trkpt lon="7.014530953019857" lat="46.18780896998942">
        <ele>550.2000122070312</ele>
        <time>2013-07-30T14:56:28.000Z</time>
      </trkpt>
      <trkpt lon="7.0143259316682816" lat="46.187691958621144">
        <ele>552.4000244140625</ele>
        <time>2013-07-30T14:56:35.000Z</time>
      </trkpt>
      <trkpt lon="7.014132980257273" lat="46.187625993043184">
        <ele>554.0</ele>
        <time>2013-07-30T14:56:41.000Z</time>
      </trkpt>
      <trkpt lon="7.014056956395507" lat="46.18761392310262">
        <ele>554.4000244140625</ele>
        <time>2013-07-30T14:56:46.000Z</time>
      </trkpt>
      <trkpt lon="7.013973975554109" lat="46.18759992532432">
        <ele>554.7999877929688</ele>
        <time>2013-07-30T14:56:51.000Z</time>
      </trkpt>
      <trkpt lon="7.013954948633909" lat="46.18759699165821">
        <ele>554.7999877929688</ele>
        <time>2013-07-30T14:56:52.000Z</time>
      </trkpt>
      <trkpt lon="7.013835925608873" lat="46.1875369772315">
        <ele>555.7999877929688</ele>
        <time>2013-07-30T14:56:59.000Z</time>
      </trkpt>
      <trkpt lon="7.013739952817559" lat="46.1874629650265">
        <ele>556.7999877929688</ele>
        <time>2013-07-30T14:57:05.000Z</time>
      </trkpt>
      <trkpt lon="7.013672981411219" lat="46.18741795420647">
        <ele>557.4000244140625</ele>
        <time>2013-07-30T14:57:09.000Z</time>
      </trkpt>
      <trkpt lon="7.013565944507718" lat="46.187350982800126">
        <ele>558.5999755859375</ele>
        <time>2013-07-30T14:57:17.000Z</time>
      </trkpt>
      <trkpt lon="7.0134639367461205" lat="46.187286945059896">
        <ele>559.5999755859375</ele>
        <time>2013-07-30T14:57:23.000Z</time>
      </trkpt>
      <trkpt lon="7.01361196115613" lat="46.18705493398011">
        <ele>561.2000122070312</ele>
        <time>2013-07-30T14:57:31.000Z</time>
      </trkpt>
      <trkpt lon="7.01361196115613" lat="46.18702392093837">
        <ele>561.4000244140625</ele>
        <time>2013-07-30T14:57:33.000Z</time>
      </trkpt>
      <trkpt lon="7.01361196115613" lat="46.1869359947741">
        <ele>562.4000244140625</ele>
        <time>2013-07-30T14:57:39.000Z</time>
      </trkpt>
      <trkpt lon="7.01356896199286" lat="46.18686692789197">
        <ele>563.2000122070312</ele>
        <time>2013-07-30T14:57:45.000Z</time>
      </trkpt>
      <trkpt lon="7.01356896199286" lat="46.18686692789197">
        <ele>563.2000122070312</ele>
        <time>2013-07-30T14:57:50.000Z</time>
      </trkpt>
      <trkpt lon="7.01356896199286" lat="46.18686692789197">
        <ele>563.2000122070312</ele>
        <time>2013-07-30T14:57:57.000Z</time>
      </trkpt>
      <trkpt lon="7.01356896199286" lat="46.18686692789197">
        <ele>563.2000122070312</ele>
        <time>2013-07-30T14:58:00.000Z</time>
      </trkpt>
      <trkpt lon="7.01356896199286" lat="46.18686692789197">
        <ele>563.2000122070312</ele>
        <time>2013-07-30T14:58:05.000Z</time>
      </trkpt>
      <trkpt lon="7.0130539778620005" lat="46.18708192370832">
        <ele>563.5999755859375</ele>
        <time>2013-07-30T14:58:11.000Z</time>
      </trkpt>
      <trkpt lon="7.012648964300752" lat="46.186487982049584">
        <ele>572.5999755859375</ele>
        <time>2013-07-30T14:58:18.000Z</time>
      </trkpt>
      <trkpt lon="7.012633960694075" lat="46.186446994543076">
        <ele>573.0</ele>
        <time>2013-07-30T14:58:21.000Z</time>
      </trkpt>
      <trkpt lon="7.0126039534807205" lat="46.186363929882646">
        <ele>573.7999877929688</ele>
        <time>2013-07-30T14:58:26.000Z</time>
      </trkpt>
      <trkpt lon="7.012566989287734" lat="46.18626594543457">
        <ele>574.7999877929688</ele>
        <time>2013-07-30T14:58:32.000Z</time>
      </trkpt>
      <trkpt lon="7.012530947104096" lat="46.186167960986495">
        <ele>576.0</ele>
        <time>2013-07-30T14:58:38.000Z</time>
      </trkpt>
      <trkpt lon="7.012510998174548" lat="46.18611297570169">
        <ele>576.4000244140625</ele>
        <time>2013-07-30T14:58:42.000Z</time>
      </trkpt>
      <trkpt lon="7.012480990961194" lat="46.18603091686964">
        <ele>577.2000122070312</ele>
        <time>2013-07-30T14:58:49.000Z</time>
      </trkpt>
      <trkpt lon="7.012480990961194" lat="46.18603091686964">
        <ele>577.2000122070312</ele>
        <time>2013-07-30T14:58:50.000Z</time>
      </trkpt>
      <trkpt lon="7.012470932677388" lat="46.18600493296981">
        <ele>577.4000244140625</ele>
        <time>2013-07-30T14:58:53.000Z</time>
      </trkpt>
      <trkpt lon="7.012932943180203" lat="46.185908960178494">
        <ele>575.5999755859375</ele>
        <time>2013-07-30T14:59:01.000Z</time>
      </trkpt>
      <trkpt lon="7.012791959568858" lat="46.18587694130838">
        <ele>576.7999877929688</ele>
        <time>2013-07-30T14:59:08.000Z</time>
      </trkpt>
      <trkpt lon="7.012642929330468" lat="46.185844922438264">
        <ele>578.0</ele>
        <time>2013-07-30T14:59:16.000Z</time>
      </trkpt>
      <trkpt lon="7.012421982362866" lat="46.18587199598551">
        <ele>578.4000244140625</ele>
        <time>2013-07-30T14:59:18.000Z</time>
      </trkpt>
      <trkpt lon="7.012490965425968" lat="46.18581592105329">
        <ele>579.0</ele>
        <time>2013-07-30T14:59:24.000Z</time>
      </trkpt>
      <trkpt lon="7.012489959597588" lat="46.1858119815588">
        <ele>579.0</ele>
        <time>2013-07-30T14:59:25.000Z</time>
      </trkpt>
      <trkpt lon="7.012445954605937" lat="46.18581592105329">
        <ele>579.0</ele>
        <time>2013-07-30T14:59:51.000Z</time>
      </trkpt>
      <trkpt lon="7.012409996241331" lat="46.18590292520821">
        <ele>578.2000122070312</ele>
        <time>2013-07-30T15:00:59.000Z</time>
      </trkpt>
      <trkpt lon="7.012382922694087" lat="46.18576596491039">
        <ele>579.0</ele>
        <time>2013-07-30T15:01:07.000Z</time>
      </trkpt>
      <trkpt lon="7.0123509876430035" lat="46.18567996658385">
        <ele>579.4000244140625</ele>
        <time>2013-07-30T15:01:11.000Z</time>
      </trkpt>
      <trkpt lon="7.012277981266379" lat="46.18552993051708">
        <ele>580.2000122070312</ele>
        <time>2013-07-30T15:01:19.000Z</time>
      </trkpt>
      <trkpt lon="7.012200951576233" lat="46.1853769607842">
        <ele>581.2000122070312</ele>
        <time>2013-07-30T15:01:28.000Z</time>
      </trkpt>
      <trkpt lon="7.012040941044688" lat="46.185220973566175">
        <ele>582.5999755859375</ele>
        <time>2013-07-30T15:01:38.000Z</time>
      </trkpt>
      <trkpt lon="7.0119239296764135" lat="46.18511091917753">
        <ele>583.7999877929688</ele>
        <time>2013-07-30T15:01:46.000Z</time>
      </trkpt>
      <trkpt lon="7.01180599629879" lat="46.18499994277954">
        <ele>585.2000122070312</ele>
        <time>2013-07-30T15:01:54.000Z</time>
      </trkpt>
      <trkpt lon="7.011662917211652" lat="46.18486692197621">
        <ele>587.4000244140625</ele>
        <time>2013-07-30T15:02:04.000Z</time>
      </trkpt>
      <trkpt lon="7.011566944420338" lat="46.18477798998356">
        <ele>589.7999877929688</ele>
        <time>2013-07-30T15:02:11.000Z</time>
      </trkpt>
      <trkpt lon="7.011430989950895" lat="46.184662990272045">
        <ele>592.7999877929688</ele>
        <time>2013-07-30T15:02:20.000Z</time>
      </trkpt>
      <trkpt lon="7.011347925290465" lat="46.18459694087505">
        <ele>594.4000244140625</ele>
        <time>2013-07-30T15:02:25.000Z</time>
      </trkpt>
      <trkpt lon="7.011148938909173" lat="46.18452091701329">
        <ele>597.5999755859375</ele>
        <time>2013-07-30T15:02:33.000Z</time>
      </trkpt>
      <trkpt lon="7.010912988334894" lat="46.184557965025306">
        <ele>600.4000244140625</ele>
        <time>2013-07-30T15:02:40.000Z</time>
      </trkpt>
      <trkpt lon="7.010743925347924" lat="46.18465192615986">
        <ele>606.4000244140625</ele>
        <time>2013-07-30T15:02:47.000Z</time>
      </trkpt>
      <trkpt lon="7.010675948113203" lat="46.18473398499191">
        <ele>610.2000122070312</ele>
        <time>2013-07-30T15:02:53.000Z</time>
      </trkpt>
      <trkpt lon="7.010655999183655" lat="46.18475795723498">
        <ele>611.4000244140625</ele>
        <time>2013-07-30T15:02:55.000Z</time>
      </trkpt>
      <trkpt lon="7.010650970041752" lat="46.18476399220526">
        <ele>611.5999755859375</ele>
        <time>2013-07-30T15:03:01.000Z</time>
      </trkpt>
      <trkpt lon="7.0106469467282295" lat="46.18476097472012">
        <ele>611.7999877929688</ele>
        <time>2013-07-30T15:03:02.000Z</time>
      </trkpt>
      <trkpt lon="7.010542927309871" lat="46.18464597500861">
        <ele>617.7999877929688</ele>
        <time>2013-07-30T15:03:09.000Z</time>
      </trkpt>
      <trkpt lon="7.010527923703194" lat="46.184533992782235">
        <ele>618.5999755859375</ele>
        <time>2013-07-30T15:03:15.000Z</time>
      </trkpt>
      <trkpt lon="7.0105379819869995" lat="46.18439292535186">
        <ele>617.7999877929688</ele>
        <time>2013-07-30T15:03:24.000Z</time>
      </trkpt>
      <trkpt lon="7.010542927309871" lat="46.184192933142185">
        <ele>617.2000122070312</ele>
        <time>2013-07-30T15:03:32.000Z</time>
      </trkpt>
      <trkpt lon="7.010524990037084" lat="46.184064941480756">
        <ele>617.2000122070312</ele>
        <time>2013-07-30T15:03:40.000Z</time>
      </trkpt>
      <trkpt lon="7.010465981438756" lat="46.183956982567906">
        <ele>618.5999755859375</ele>
        <time>2013-07-30T15:03:48.000Z</time>
      </trkpt>
      <trkpt lon="7.010386940091848" lat="46.18387894704938">
        <ele>620.7999877929688</ele>
        <time>2013-07-30T15:03:54.000Z</time>
      </trkpt>
      <trkpt lon="7.0103029534220695" lat="46.18379395455122">
        <ele>622.4000244140625</ele>
        <time>2013-07-30T15:04:00.000Z</time>
      </trkpt>
      <trkpt lon="7.010207986459136" lat="46.18370594456792">
        <ele>624.0</ele>
        <time>2013-07-30T15:04:07.000Z</time>
      </trkpt>
      <trkpt lon="7.010102961212397" lat="46.18362296372652">
        <ele>625.2000122070312</ele>
        <time>2013-07-30T15:04:14.000Z</time>
      </trkpt>
      <trkpt lon="7.010027943179011" lat="46.18356294929981">
        <ele>625.7999877929688</ele>
        <time>2013-07-30T15:04:22.000Z</time>
      </trkpt>
      <trkpt lon="7.009793920442462" lat="46.18347795680165">
        <ele>629.4000244140625</ele>
        <time>2013-07-30T15:04:31.000Z</time>
      </trkpt>
      <trkpt lon="7.009574985131621" lat="46.18340796791017">
        <ele>632.0</ele>
        <time>2013-07-30T15:04:39.000Z</time>
      </trkpt>
      <trkpt lon="7.009350936859846" lat="46.18331593461335">
        <ele>633.5999755859375</ele>
        <time>2013-07-30T15:04:46.000Z</time>
      </trkpt>
      <trkpt lon="7.009281953796744" lat="46.18324996903539">
        <ele>634.2000122070312</ele>
        <time>2013-07-30T15:04:50.000Z</time>
      </trkpt>
      <trkpt lon="7.009115992113948" lat="46.18308995850384">
        <ele>635.5999755859375</ele>
        <time>2013-07-30T15:05:00.000Z</time>
      </trkpt>
      <trkpt lon="7.0090109668672085" lat="46.182988956570625">
        <ele>638.2000122070312</ele>
        <time>2013-07-30T15:05:08.000Z</time>
      </trkpt>
      <trkpt lon="7.0089479349553585" lat="46.18292894214392">
        <ele>639.4000244140625</ele>
        <time>2013-07-30T15:05:14.000Z</time>
      </trkpt>
      <trkpt lon="7.0089329313486814" lat="46.18291494436562">
        <ele>639.7999877929688</ele>
        <time>2013-07-30T15:05:16.000Z</time>
      </trkpt>
      <trkpt lon="7.0088969729840755" lat="46.182880997657776">
        <ele>640.4000244140625</ele>
        <time>2013-07-30T15:05:22.000Z</time>
      </trkpt>
      <trkpt lon="7.008880963549018" lat="46.18286498822272">
        <ele>640.7999877929688</ele>
        <time>2013-07-30T15:05:25.000Z</time>
      </trkpt>
      <trkpt lon="7.00886495411396" lat="46.18284897878766">
        <ele>641.0</ele>
        <time>2013-07-30T15:05:30.000Z</time>
      </trkpt>
      <trkpt lon="7.008793959394097" lat="46.182751916348934">
        <ele>641.5999755859375</ele>
        <time>2013-07-30T15:05:37.000Z</time>
      </trkpt>
      <trkpt lon="7.008793959394097" lat="46.182751916348934">
        <ele>641.5999755859375</ele>
        <time>2013-07-30T15:05:40.000Z</time>
      </trkpt>
      <trkpt lon="7.008722964674234" lat="46.182645969092846">
        <ele>641.7999877929688</ele>
        <time>2013-07-30T15:05:46.000Z</time>
      </trkpt>
      <trkpt lon="7.008705949410796" lat="46.182619985193014">
        <ele>641.7999877929688</ele>
        <time>2013-07-30T15:05:50.000Z</time>
      </trkpt>
      <trkpt lon="7.008663956075907" lat="46.18248696438968">
        <ele>640.5999755859375</ele>
        <time>2013-07-30T15:05:53.000Z</time>
      </trkpt>
      <trkpt lon="7.0086669735610485" lat="46.182342963293195">
        <ele>642.4000244140625</ele>
        <time>2013-07-30T15:05:59.000Z</time>
      </trkpt>
      <trkpt lon="7.0086669735610485" lat="46.182342963293195">
        <ele>642.4000244140625</ele>
        <time>2013-07-30T15:06:08.000Z</time>
      </trkpt>
      <trkpt lon="7.0086669735610485" lat="46.182342963293195">
        <ele>642.4000244140625</ele>
        <time>2013-07-30T15:06:12.000Z</time>
      </trkpt>
      <trkpt lon="7.008849950507283" lat="46.18214196525514">
        <ele>642.4000244140625</ele>
        <time>2013-07-30T15:06:18.000Z</time>
      </trkpt>
      <trkpt lon="7.008859924972057" lat="46.1821339186281">
        <ele>642.4000244140625</ele>
        <time>2013-07-30T15:06:22.000Z</time>
      </trkpt>
      <trkpt lon="7.009641956537962" lat="46.18229694664478">
        <ele>633.4000244140625</ele>
        <time>2013-07-30T15:06:27.000Z</time>
      </trkpt>
      <trkpt lon="7.009641956537962" lat="46.18229694664478">
        <ele>633.4000244140625</ele>
        <time>2013-07-30T15:06:29.000Z</time>
      </trkpt>
      <trkpt lon="7.009538942947984" lat="46.182234920561314">
        <ele>635.7999877929688</ele>
        <time>2013-07-30T15:06:33.000Z</time>
      </trkpt>
      <trkpt lon="7.009609937667847" lat="46.182277919724584">
        <ele>634.2000122070312</ele>
        <time>2013-07-30T15:06:35.000Z</time>
      </trkpt>
      <trkpt lon="7.009753938764334" lat="46.182383950799704">
        <ele>629.7999877929688</ele>
        <time>2013-07-30T15:06:39.000Z</time>
      </trkpt>
      <trkpt lon="7.009864998981357" lat="46.18217892944813">
        <ele>640.0</ele>
        <time>2013-07-30T15:06:43.000Z</time>
      </trkpt>
      <trkpt lon="7.010015957057476" lat="46.18209896609187">
        <ele>644.4000244140625</ele>
        <time>2013-07-30T15:06:49.000Z</time>
      </trkpt>
      <trkpt lon="7.010030960664153" lat="46.18209091946483">
        <ele>644.5999755859375</ele>
        <time>2013-07-30T15:06:50.000Z</time>
      </trkpt>
      <trkpt lon="7.0100959204137325" lat="46.1820559669286">
        <ele>645.5999755859375</ele>
        <time>2013-07-30T15:06:54.000Z</time>
      </trkpt>
      <trkpt lon="7.010208992287517" lat="46.18199595250189">
        <ele>647.4000244140625</ele>
        <time>2013-07-30T15:07:01.000Z</time>
      </trkpt>
      <trkpt lon="7.010295996442437" lat="46.18194993585348">
        <ele>648.5999755859375</ele>
        <time>2013-07-30T15:07:06.000Z</time>
      </trkpt>
      <trkpt lon="7.010439997538924" lat="46.18190199136734">
        <ele>649.4000244140625</ele>
        <time>2013-07-30T15:07:12.000Z</time>
      </trkpt>
      <trkpt lon="7.010439997538924" lat="46.18190199136734">
        <ele>649.4000244140625</ele>
        <time>2013-07-30T15:07:13.000Z</time>
      </trkpt>
      <trkpt lon="7.010587938129902" lat="46.18208195082843">
        <ele>638.7999877929688</ele>
        <time>2013-07-30T15:07:39.000Z</time>
      </trkpt>
      <trkpt lon="7.010587938129902" lat="46.18208195082843">
        <ele>638.7999877929688</ele>
        <time>2013-07-30T15:07:46.000Z</time>
      </trkpt>
      <trkpt lon="7.010587938129902" lat="46.18208195082843">
        <ele>638.7999877929688</ele>
        <time>2013-07-30T15:07:48.000Z</time>
      </trkpt>
      <trkpt lon="7.010587938129902" lat="46.18208195082843">
        <ele>638.7999877929688</ele>
        <time>2013-07-30T15:07:52.000Z</time>
      </trkpt>
      <trkpt lon="7.011658977717161" lat="46.181566966697574">
        <ele>650.2000122070312</ele>
        <time>2013-07-30T15:08:10.000Z</time>
      </trkpt>
      <trkpt lon="7.011658977717161" lat="46.181566966697574">
        <ele>650.2000122070312</ele>
        <time>2013-07-30T15:08:13.000Z</time>
      </trkpt>
      <trkpt lon="7.010840987786651" lat="46.18182395584881">
        <ele>648.7999877929688</ele>
        <time>2013-07-30T15:08:18.000Z</time>
      </trkpt>
      <trkpt lon="7.010856997221708" lat="46.18182194419205">
        <ele>648.7999877929688</ele>
        <time>2013-07-30T15:08:26.000Z</time>
      </trkpt>
      <trkpt lon="7.010856997221708" lat="46.18182194419205">
        <ele>648.7999877929688</ele>
        <time>2013-07-30T15:08:35.000Z</time>
      </trkpt>
      <trkpt lon="7.010856997221708" lat="46.18182194419205">
        <ele>648.7999877929688</ele>
        <time>2013-07-30T15:08:45.000Z</time>
      </trkpt>
      <trkpt lon="7.010856997221708" lat="46.18182194419205">
        <ele>648.7999877929688</ele>
        <time>2013-07-30T15:09:02.000Z</time>
      </trkpt>
      <trkpt lon="7.010856997221708" lat="46.18182194419205">
        <ele>648.7999877929688</ele>
        <time>2013-07-30T15:09:11.000Z</time>
      </trkpt>
      <trkpt lon="7.010856997221708" lat="46.18182194419205">
        <ele>648.7999877929688</ele>
        <time>2013-07-30T15:09:12.000Z</time>
      </trkpt>
      <trkpt lon="7.011658977717161" lat="46.181566966697574">
        <ele>650.2000122070312</ele>
        <time>2013-07-30T15:09:20.000Z</time>
      </trkpt>
      <trkpt lon="7.011658977717161" lat="46.181566966697574">
        <ele>650.2000122070312</ele>
        <time>2013-07-30T15:09:26.000Z</time>
      </trkpt>
      <trkpt lon="7.011651936918497" lat="46.18229392915964">
        <ele>615.7999877929688</ele>
        <time>2013-07-30T15:09:34.000Z</time>
      </trkpt>
      <trkpt lon="7.011651936918497" lat="46.18229392915964">
        <ele>615.7999877929688</ele>
        <time>2013-07-30T15:09:37.000Z</time>
      </trkpt>
      <trkpt lon="7.011651936918497" lat="46.18229392915964">
        <ele>615.7999877929688</ele>
        <time>2013-07-30T15:10:03.000Z</time>
      </trkpt>
      <trkpt lon="7.011651936918497" lat="46.18229392915964">
        <ele>615.7999877929688</ele>
        <time>2013-07-30T15:11:01.000Z</time>
      </trkpt>
      <trkpt lon="7.010618951171637" lat="46.18185899220407">
        <ele>649.5999755859375</ele>
        <time>2013-07-30T15:11:04.000Z</time>
      </trkpt>
      <trkpt lon="7.010715929791331" lat="46.18184398859739">
        <ele>649.2000122070312</ele>
        <time>2013-07-30T15:11:11.000Z</time>
      </trkpt>
      <trkpt lon="7.010812992230058" lat="46.181828984990716">
        <ele>649.0</ele>
        <time>2013-07-30T15:11:17.000Z</time>
      </trkpt>
      <trkpt lon="7.010827995836735" lat="46.181825967505574">
        <ele>649.0</ele>
        <time>2013-07-30T15:11:18.000Z</time>
      </trkpt>
      <trkpt lon="7.010972918942571" lat="46.18180291727185">
        <ele>648.2000122070312</ele>
        <time>2013-07-30T15:11:25.000Z</time>
      </trkpt>
      <trkpt lon="7.010972918942571" lat="46.18180291727185">
        <ele>648.2000122070312</ele>
        <time>2013-07-30T15:11:27.000Z</time>
      </trkpt>
      <trkpt lon="7.011079955846071" lat="46.18175991810858">
        <ele>648.7999877929688</ele>
        <time>2013-07-30T15:11:34.000Z</time>
      </trkpt>
      <trkpt lon="7.011079955846071" lat="46.18175991810858">
        <ele>648.7999877929688</ele>
        <time>2013-07-30T15:11:37.000Z</time>
      </trkpt>
      <trkpt lon="7.011079955846071" lat="46.18175991810858">
        <ele>648.7999877929688</ele>
        <time>2013-07-30T15:11:40.000Z</time>
      </trkpt>
      <trkpt lon="7.011079955846071" lat="46.18175991810858">
        <ele>648.7999877929688</ele>
        <time>2013-07-30T15:11:43.000Z</time>
      </trkpt>
      <trkpt lon="7.011110968887806" lat="46.18172898888588">
        <ele>649.7999877929688</ele>
        <time>2013-07-30T15:11:48.000Z</time>
      </trkpt>
      <trkpt lon="7.011169977486134" lat="46.18166998028755">
        <ele>651.7999877929688</ele>
        <time>2013-07-30T15:11:55.000Z</time>
      </trkpt>
      <trkpt lon="7.011169977486134" lat="46.18166998028755">
        <ele>651.7999877929688</ele>
        <time>2013-07-30T15:11:56.000Z</time>
      </trkpt>
      <trkpt lon="7.011242983862758" lat="46.18159697391093">
        <ele>654.7999877929688</ele>
        <time>2013-07-30T15:12:00.000Z</time>
      </trkpt>
      <trkpt lon="7.011275924742222" lat="46.18156394921243">
        <ele>656.2000122070312</ele>
        <time>2013-07-30T15:12:02.000Z</time>
      </trkpt>
      <trkpt lon="7.01131297275424" lat="46.181526985019445">
        <ele>657.5999755859375</ele>
        <time>2013-07-30T15:12:06.000Z</time>
      </trkpt>
      <trkpt lon="7.011333927512169" lat="46.181505946442485">
        <ele>658.4000244140625</ele>
        <time>2013-07-30T15:12:08.000Z</time>
      </trkpt>
      <trkpt lon="7.011704994365573" lat="46.18136496283114">
        <ele>660.5999755859375</ele>
        <time>2013-07-30T15:12:12.000Z</time>
      </trkpt>
      <trkpt lon="7.011800967156887" lat="46.181355994194746">
        <ele>660.5999755859375</ele>
        <time>2013-07-30T15:12:16.000Z</time>
      </trkpt>
      <trkpt lon="7.011950919404626" lat="46.1813429184258">
        <ele>660.5999755859375</ele>
        <time>2013-07-30T15:12:23.000Z</time>
      </trkpt>
      <trkpt lon="7.012033984065056" lat="46.181335961446166">
        <ele>660.5999755859375</ele>
        <time>2013-07-30T15:12:26.000Z</time>
      </trkpt>
      <trkpt lon="7.012376971542835" lat="46.18141097947955">
        <ele>655.7999877929688</ele>
        <time>2013-07-30T15:12:34.000Z</time>
      </trkpt>
      <trkpt lon="7.012399937957525" lat="46.181418942287564">
        <ele>655.4000244140625</ele>
        <time>2013-07-30T15:12:40.000Z</time>
      </trkpt>
      <trkpt lon="7.012422988191247" lat="46.181421959772706">
        <ele>655.2000122070312</ele>
        <time>2013-07-30T15:12:41.000Z</time>
      </trkpt>
      <trkpt lon="7.01260294765234" lat="46.18145992979407">
        <ele>653.0</ele>
        <time>2013-07-30T15:12:49.000Z</time>
      </trkpt>
      <trkpt lon="7.012726999819279" lat="46.18147795088589">
        <ele>651.5999755859375</ele>
        <time>2013-07-30T15:12:56.000Z</time>
      </trkpt>
      <trkpt lon="7.012793971225619" lat="46.18146998807788">
        <ele>651.4000244140625</ele>
        <time>2013-07-30T15:13:02.000Z</time>
      </trkpt>
      <trkpt lon="7.012901930138469" lat="46.181438975036144">
        <ele>652.0</ele>
        <time>2013-07-30T15:13:08.000Z</time>
      </trkpt>
      <trkpt lon="7.013017935678363" lat="46.181375943124294">
        <ele>653.4000244140625</ele>
        <time>2013-07-30T15:13:15.000Z</time>
      </trkpt>
      <trkpt lon="7.0131119806319475" lat="46.18132498115301">
        <ele>654.4000244140625</ele>
        <time>2013-07-30T15:13:20.000Z</time>
      </trkpt>
      <trkpt lon="7.013195967301726" lat="46.18127997033298">
        <ele>655.4000244140625</ele>
        <time>2013-07-30T15:13:25.000Z</time>
      </trkpt>
      <trkpt lon="7.013287916779518" lat="46.181229930371046">
        <ele>656.4000244140625</ele>
        <time>2013-07-30T15:13:31.000Z</time>
      </trkpt>
      <trkpt lon="7.013329993933439" lat="46.181206963956356">
        <ele>656.7999877929688</ele>
        <time>2013-07-30T15:13:34.000Z</time>
      </trkpt>
      <trkpt lon="7.013484975323081" lat="46.18112297728658">
        <ele>655.4000244140625</ele>
        <time>2013-07-30T15:13:41.000Z</time>
      </trkpt>
      <trkpt lon="7.013646997511387" lat="46.181034967303276">
        <ele>654.4000244140625</ele>
        <time>2013-07-30T15:13:49.000Z</time>
      </trkpt>
      <trkpt lon="7.01376099139452" lat="46.18093991652131">
        <ele>655.0</ele>
        <time>2013-07-30T15:13:57.000Z</time>
      </trkpt>
      <trkpt lon="7.013832991942763" lat="46.18086498230696">
        <ele>656.2000122070312</ele>
        <time>2013-07-30T15:14:04.000Z</time>
      </trkpt>
      <trkpt lon="7.01386995613575" lat="46.18080094456673">
        <ele>657.5999755859375</ele>
        <time>2013-07-30T15:14:09.000Z</time>
      </trkpt>
      <trkpt lon="7.013877918943763" lat="46.180664990097284">
        <ele>661.2000122070312</ele>
        <time>2013-07-30T15:14:16.000Z</time>
      </trkpt>
      <trkpt lon="7.0138859655708075" lat="46.18053196929395">
        <ele>664.7999877929688</ele>
        <time>2013-07-30T15:14:23.000Z</time>
      </trkpt>
      <trkpt lon="7.013899963349104" lat="46.180405989289284">
        <ele>668.0</ele>
        <time>2013-07-30T15:14:31.000Z</time>
      </trkpt>
      <trkpt lon="7.013940950855613" lat="46.18029895238578">
        <ele>669.7999877929688</ele>
        <time>2013-07-30T15:14:38.000Z</time>
      </trkpt>
      <trkpt lon="7.014023931697011" lat="46.18016794323921">
        <ele>671.2000122070312</ele>
        <time>2013-07-30T15:14:47.000Z</time>
      </trkpt>
      <trkpt lon="7.0140879694372416" lat="46.18005596101284">
        <ele>672.5999755859375</ele>
        <time>2013-07-30T15:14:55.000Z</time>
      </trkpt>
      <trkpt lon="7.014126945286989" lat="46.17997792549431">
        <ele>673.4000244140625</ele>
        <time>2013-07-30T15:15:01.000Z</time>
      </trkpt>
      <trkpt lon="7.014167932793498" lat="46.17989796213806">
        <ele>673.2000122070312</ele>
        <time>2013-07-30T15:15:07.000Z</time>
      </trkpt>
      <trkpt lon="7.014184948056936" lat="46.179785979911685">
        <ele>674.0</ele>
        <time>2013-07-30T15:15:13.000Z</time>
      </trkpt>
      <trkpt lon="7.014203974977136" lat="46.17964994162321">
        <ele>675.0</ele>
        <time>2013-07-30T15:15:21.000Z</time>
      </trkpt>
      <trkpt lon="7.0142169669270515" lat="46.17955698631704">
        <ele>675.7999877929688</ele>
        <time>2013-07-30T15:15:26.000Z</time>
      </trkpt>
      <trkpt lon="7.014228953048587" lat="46.179446931928396">
        <ele>676.7999877929688</ele>
        <time>2013-07-30T15:15:31.000Z</time>
      </trkpt>
      <trkpt lon="7.01421394944191" lat="46.17931994609535">
        <ele>679.0</ele>
        <time>2013-07-30T15:15:37.000Z</time>
      </trkpt>
      <trkpt lon="7.014220990240574" lat="46.17921693250537">
        <ele>680.2000122070312</ele>
        <time>2013-07-30T15:15:42.000Z</time>
      </trkpt>
      <trkpt lon="7.0142249297350645" lat="46.17917996831238">
        <ele>680.5999755859375</ele>
        <time>2013-07-30T15:15:44.000Z</time>
      </trkpt>
      <trkpt lon="7.01423398219049" lat="46.17908097803593">
        <ele>680.7999877929688</ele>
        <time>2013-07-30T15:15:50.000Z</time>
      </trkpt>
      <trkpt lon="7.014229958876967" lat="46.1790409963578">
        <ele>681.2000122070312</ele>
        <time>2013-07-30T15:15:52.000Z</time>
      </trkpt>
      <trkpt lon="7.0142219960689545" lat="46.178966984152794">
        <ele>681.7999877929688</ele>
        <time>2013-07-30T15:15:55.000Z</time>
      </trkpt>
      <trkpt lon="7.014202969148755" lat="46.17879398167133">
        <ele>683.4000244140625</ele>
        <time>2013-07-30T15:16:02.000Z</time>
      </trkpt>
      <trkpt lon="7.014183942228556" lat="46.178629947826266">
        <ele>684.7999877929688</ele>
        <time>2013-07-30T15:16:09.000Z</time>
      </trkpt>
      <trkpt lon="7.014177991077304" lat="46.17856993339956">
        <ele>685.4000244140625</ele>
        <time>2013-07-30T15:16:12.000Z</time>
      </trkpt>
      <trkpt lon="7.014161981642246" lat="46.178455939516425">
        <ele>686.5999755859375</ele>
        <time>2013-07-30T15:16:18.000Z</time>
      </trkpt>
      <trkpt lon="7.014157958328724" lat="46.178433978930116">
        <ele>686.7999877929688</ele>
        <time>2013-07-30T15:16:19.000Z</time>
      </trkpt>
      <trkpt lon="7.014132980257273" lat="46.178305987268686">
        <ele>689.5999755859375</ele>
        <time>2013-07-30T15:16:25.000Z</time>
      </trkpt>
      <trkpt lon="7.014117976650596" lat="46.17822694592178">
        <ele>692.4000244140625</ele>
        <time>2013-07-30T15:16:31.000Z</time>
      </trkpt>
      <trkpt lon="7.014091992750764" lat="46.178090991452336">
        <ele>697.5999755859375</ele>
        <time>2013-07-30T15:16:39.000Z</time>
      </trkpt>
      <trkpt lon="7.0140879694372416" lat="46.1779859662056">
        <ele>700.5999755859375</ele>
        <time>2013-07-30T15:16:45.000Z</time>
      </trkpt>
      <trkpt lon="7.014097943902016" lat="46.177828973159194">
        <ele>704.2000122070312</ele>
        <time>2013-07-30T15:16:52.000Z</time>
      </trkpt>
      <trkpt lon="7.01410498470068" lat="46.177706932649016">
        <ele>707.2000122070312</ele>
        <time>2013-07-30T15:16:58.000Z</time>
      </trkpt>
      <trkpt lon="7.01410498470068" lat="46.17766896262765">
        <ele>708.2000122070312</ele>
        <time>2013-07-30T15:17:00.000Z</time>
      </trkpt>
      <trkpt lon="7.01410498470068" lat="46.177575923502445">
        <ele>710.5999755859375</ele>
        <time>2013-07-30T15:17:04.000Z</time>
      </trkpt>
      <trkpt lon="7.0141159649938345" lat="46.17744994349778">
        <ele>712.4000244140625</ele>
        <time>2013-07-30T15:17:10.000Z</time>
      </trkpt>
      <trkpt lon="7.014145972207189" lat="46.17728993296623">
        <ele>711.5999755859375</ele>
        <time>2013-07-30T15:17:17.000Z</time>
      </trkpt>
      <trkpt lon="7.014162987470627" lat="46.17723997682333">
        <ele>711.0</ele>
        <time>2013-07-30T15:17:20.000Z</time>
      </trkpt>
      <trkpt lon="7.01421394944191" lat="46.177121959626675">
        <ele>710.0</ele>
        <time>2013-07-30T15:17:26.000Z</time>
      </trkpt>
      <trkpt lon="7.01423398219049" lat="46.17703193798661">
        <ele>709.7999877929688</ele>
        <time>2013-07-30T15:17:31.000Z</time>
      </trkpt>
      <trkpt lon="7.014239933341742" lat="46.1769549921155">
        <ele>710.2000122070312</ele>
        <time>2013-07-30T15:17:36.000Z</time>
      </trkpt>
      <trkpt lon="7.014270946383476" lat="46.176843931898475">
        <ele>710.0</ele>
        <time>2013-07-30T15:17:41.000Z</time>
      </trkpt>
      <trkpt lon="7.0143109280616045" lat="46.17670495994389">
        <ele>710.2000122070312</ele>
        <time>2013-07-30T15:17:52.000Z</time>
      </trkpt>
      <trkpt lon="7.014358956366777" lat="46.17653799243271">
        <ele>710.2000122070312</ele>
        <time>2013-07-30T15:17:57.000Z</time>
      </trkpt>
      <trkpt lon="7.014338923618197" lat="46.1764179635793">
        <ele>711.0</ele>
        <time>2013-07-30T15:18:03.000Z</time>
      </trkpt>
      <trkpt lon="7.014269940555096" lat="46.17626993916929">
        <ele>712.4000244140625</ele>
        <time>2013-07-30T15:18:12.000Z</time>
      </trkpt>
      <trkpt lon="7.014199951663613" lat="46.17619592696428">
        <ele>713.2000122070312</ele>
        <time>2013-07-30T15:18:18.000Z</time>
      </trkpt>
      <trkpt lon="7.01417195610702" lat="46.17617195472121">
        <ele>713.4000244140625</ele>
        <time>2013-07-30T15:18:23.000Z</time>
      </trkpt>
      <trkpt lon="7.0141239278018475" lat="46.176130967214704">
        <ele>715.5999755859375</ele>
        <time>2013-07-30T15:18:29.000Z</time>
      </trkpt>
      <trkpt lon="7.014067936688662" lat="46.17608394473791">
        <ele>718.2000122070312</ele>
        <time>2013-07-30T15:18:34.000Z</time>
      </trkpt>
      <trkpt lon="7.0139329880476" lat="46.175960982218385">
        <ele>725.2000122070312</ele>
        <time>2013-07-30T15:18:41.000Z</time>
      </trkpt>
      <trkpt lon="7.013863921165466" lat="46.17586391977966">
        <ele>729.0</ele>
        <time>2013-07-30T15:18:47.000Z</time>
      </trkpt>
      <trkpt lon="7.0138579700142145" lat="46.17584698833525">
        <ele>729.4000244140625</ele>
        <time>2013-07-30T15:18:48.000Z</time>
      </trkpt>
      <trkpt lon="7.013824945315719" lat="46.175747998058796">
        <ele>732.2000122070312</ele>
        <time>2013-07-30T15:18:56.000Z</time>
      </trkpt>
      <trkpt lon="7.013819999992847" lat="46.17573391646147">
        <ele>732.5999755859375</ele>
        <time>2013-07-30T15:18:59.000Z</time>
      </trkpt>
      <trkpt lon="7.013816982507706" lat="46.17565093562007">
        <ele>733.7999877929688</ele>
        <time>2013-07-30T15:19:03.000Z</time>
      </trkpt>
      <trkpt lon="7.0138229336589575" lat="46.1756319925189">
        <ele>733.5999755859375</ele>
        <time>2013-07-30T15:19:08.000Z</time>
      </trkpt>
      <trkpt lon="7.013873979449272" lat="46.17543593980372">
        <ele>733.4000244140625</ele>
        <time>2013-07-30T15:19:13.000Z</time>
      </trkpt>
      <trkpt lon="7.013921923935413" lat="46.17532596923411">
        <ele>732.4000244140625</ele>
        <time>2013-07-30T15:19:19.000Z</time>
      </trkpt>
      <trkpt lon="7.013930976390839" lat="46.17530493065715">
        <ele>732.2000122070312</ele>
        <time>2013-07-30T15:19:20.000Z</time>
      </trkpt>
      <trkpt lon="7.013972969725728" lat="46.175207952037454">
        <ele>731.2000122070312</ele>
        <time>2013-07-30T15:19:26.000Z</time>
      </trkpt>
      <trkpt lon="7.013997947797179" lat="46.175143998116255">
        <ele>730.5999755859375</ele>
        <time>2013-07-30T15:19:29.000Z</time>
      </trkpt>
      <trkpt lon="7.013985961675644" lat="46.17501097731292">
        <ele>732.7999877929688</ele>
        <time>2013-07-30T15:19:35.000Z</time>
      </trkpt>
      <trkpt lon="7.013980932533741" lat="46.17495791986585">
        <ele>733.7999877929688</ele>
        <time>2013-07-30T15:19:39.000Z</time>
      </trkpt>
      <trkpt lon="7.013974981382489" lat="46.174889942631125">
        <ele>735.0</ele>
        <time>2013-07-30T15:19:43.000Z</time>
      </trkpt>
      <trkpt lon="7.013970958068967" lat="46.17483395151794">
        <ele>735.7999877929688</ele>
        <time>2013-07-30T15:19:47.000Z</time>
      </trkpt>
      <trkpt lon="7.013959977775812" lat="46.174714928492904">
        <ele>738.0</ele>
        <time>2013-07-30T15:19:52.000Z</time>
      </trkpt>
      <trkpt lon="7.013957966119051" lat="46.17468592710793">
        <ele>738.4000244140625</ele>
        <time>2013-07-30T15:19:54.000Z</time>
      </trkpt>
      <trkpt lon="7.013992918655276" lat="46.17455299012363">
        <ele>738.5999755859375</ele>
        <time>2013-07-30T15:19:59.000Z</time>
      </trkpt>
      <trkpt lon="7.014025943353772" lat="46.174457939341664">
        <ele>738.4000244140625</ele>
        <time>2013-07-30T15:20:05.000Z</time>
      </trkpt>
      <trkpt lon="7.014034995809197" lat="46.174433967098594">
        <ele>738.2000122070312</ele>
        <time>2013-07-30T15:20:10.000Z</time>
      </trkpt>
      <trkpt lon="7.014043964445591" lat="46.17440898902714">
        <ele>738.2000122070312</ele>
        <time>2013-07-30T15:20:16.000Z</time>
      </trkpt>
      <trkpt lon="7.014051927253604" lat="46.17438493296504">
        <ele>738.2000122070312</ele>
        <time>2013-07-30T15:20:21.000Z</time>
      </trkpt>
      <trkpt lon="7.014055950567126" lat="46.17433891631663">
        <ele>738.7999877929688</ele>
        <time>2013-07-30T15:20:29.000Z</time>
      </trkpt>
      <trkpt lon="7.013997947797179" lat="46.17419198155403">
        <ele>743.0</ele>
        <time>2013-07-30T15:20:36.000Z</time>
      </trkpt>
      <trkpt lon="7.01393399387598" lat="46.1740259360522">
        <ele>746.4000244140625</ele>
        <time>2013-07-30T15:20:44.000Z</time>
      </trkpt>
      <trkpt lon="7.01380499638617" lat="46.17377799935639">
        <ele>750.7999877929688</ele>
        <time>2013-07-30T15:20:53.000Z</time>
      </trkpt>
      <trkpt lon="7.013653954491019" lat="46.17360793054104">
        <ele>754.5999755859375</ele>
        <time>2013-07-30T15:21:01.000Z</time>
      </trkpt>
      <trkpt lon="7.013580948114395" lat="46.17336795665324">
        <ele>755.0</ele>
        <time>2013-07-30T15:21:07.000Z</time>
      </trkpt>
      <trkpt lon="7.013649931177497" lat="46.17325798608363">
        <ele>753.0</ele>
        <time>2013-07-30T15:21:12.000Z</time>
      </trkpt>
      <trkpt lon="7.0137999672442675" lat="46.173126976937056">
        <ele>749.4000244140625</ele>
        <time>2013-07-30T15:21:20.000Z</time>
      </trkpt>
      <trkpt lon="7.013914966955781" lat="46.173044918105006">
        <ele>747.0</ele>
        <time>2013-07-30T15:21:26.000Z</time>
      </trkpt>
      <trkpt lon="7.014000965282321" lat="46.17298398166895">
        <ele>745.0</ele>
        <time>2013-07-30T15:21:31.000Z</time>
      </trkpt>
      <trkpt lon="7.014137925580144" lat="46.172890942543745">
        <ele>742.2000122070312</ele>
        <time>2013-07-30T15:21:38.000Z</time>
      </trkpt>
      <trkpt lon="7.014271952211857" lat="46.1727549880743">
        <ele>739.5999755859375</ele>
        <time>2013-07-30T15:21:46.000Z</time>
      </trkpt>
      <trkpt lon="7.014291984960437" lat="46.17263797670603">
        <ele>738.2000122070312</ele>
        <time>2013-07-30T15:21:53.000Z</time>
      </trkpt>
      <trkpt lon="7.014281926676631" lat="46.17259497754276">
        <ele>737.7999877929688</ele>
        <time>2013-07-30T15:21:58.000Z</time>
      </trkpt>
      <trkpt lon="7.014240939170122" lat="46.17255893535912">
        <ele>738.2000122070312</ele>
        <time>2013-07-30T15:22:41.000Z</time>
      </trkpt>
      <trkpt lon="7.014119988307357" lat="46.1724909581244">
        <ele>739.4000244140625</ele>
        <time>2013-07-30T15:22:47.000Z</time>
      </trkpt>
      <trkpt lon="7.013875991106033" lat="46.17246899753809">
        <ele>742.7999877929688</ele>
        <time>2013-07-30T15:22:53.000Z</time>
      </trkpt>
      <trkpt lon="7.01361196115613" lat="46.17246899753809">
        <ele>747.2000122070312</ele>
        <time>2013-07-30T15:23:02.000Z</time>
      </trkpt>
      <trkpt lon="7.013387996703386" lat="46.172418957576156">
        <ele>750.5999755859375</ele>
        <time>2013-07-30T15:23:09.000Z</time>
      </trkpt>
      <trkpt lon="7.013185992836952" lat="46.172331953421235">
        <ele>758.5999755859375</ele>
        <time>2013-07-30T15:23:19.000Z</time>
      </trkpt>
      <trkpt lon="7.0130059495568275" lat="46.17224193178117">
        <ele>767.5999755859375</ele>
        <time>2013-07-30T15:23:28.000Z</time>
      </trkpt>
      <trkpt lon="7.012929925695062" lat="46.172203961759806">
        <ele>771.4000244140625</ele>
        <time>2013-07-30T15:23:34.000Z</time>
      </trkpt>
      <trkpt lon="7.0127989165484905" lat="46.17214595898986">
        <ele>778.0</ele>
        <time>2013-07-30T15:23:41.000Z</time>
      </trkpt>
      <trkpt lon="7.012720964848995" lat="46.17207798175514">
        <ele>781.7999877929688</ele>
        <time>2013-07-30T15:23:46.000Z</time>
      </trkpt>
      <trkpt lon="7.012710990384221" lat="46.17198293097317">
        <ele>782.2000122070312</ele>
        <time>2013-07-30T15:23:52.000Z</time>
      </trkpt>
      <trkpt lon="7.012710990384221" lat="46.17188896983862">
        <ele>782.0</ele>
        <time>2013-07-30T15:23:58.000Z</time>
      </trkpt>
      <trkpt lon="7.012742925435305" lat="46.171754943206906">
        <ele>780.0</ele>
        <time>2013-07-30T15:24:03.000Z</time>
      </trkpt>
      <trkpt lon="7.012791959568858" lat="46.17161395959556">
        <ele>777.5999755859375</ele>
        <time>2013-07-30T15:24:09.000Z</time>
      </trkpt>
      <trkpt lon="7.012840993702412" lat="46.171472975984216">
        <ele>775.7999877929688</ele>
        <time>2013-07-30T15:24:15.000Z</time>
      </trkpt>
      <trkpt lon="7.012897990643978" lat="46.17131195962429">
        <ele>773.7999877929688</ele>
        <time>2013-07-30T15:24:21.000Z</time>
      </trkpt>
      <trkpt lon="7.012935960665345" lat="46.17120198905468">
        <ele>772.4000244140625</ele>
        <time>2013-07-30T15:24:26.000Z</time>
      </trkpt>
      <trkpt lon="7.01296697370708" lat="46.171112973243">
        <ele>771.2000122070312</ele>
        <time>2013-07-30T15:24:30.000Z</time>
      </trkpt>
      <trkpt lon="7.0130109786987305" lat="46.17098892107606">
        <ele>769.5999755859375</ele>
        <time>2013-07-30T15:24:36.000Z</time>
      </trkpt>
      <trkpt lon="7.012996980920434" lat="46.170890936627984">
        <ele>771.0</ele>
        <time>2013-07-30T15:24:40.000Z</time>
      </trkpt>
      <trkpt lon="7.012965967878699" lat="46.17077996022999">
        <ele>773.5999755859375</ele>
        <time>2013-07-30T15:24:45.000Z</time>
      </trkpt>
      <trkpt lon="7.012918945401907" lat="46.17066294886172">
        <ele>777.2000122070312</ele>
        <time>2013-07-30T15:24:50.000Z</time>
      </trkpt>
      <trkpt lon="7.012842921540141" lat="46.170550966635346">
        <ele>782.0</ele>
        <time>2013-07-30T15:24:55.000Z</time>
      </trkpt>
      <trkpt lon="7.012581992894411" lat="46.17032297886908">
        <ele>796.0</ele>
        <time>2013-07-30T15:25:00.000Z</time>
      </trkpt>
      <trkpt lon="7.012600935995579" lat="46.17030596360564">
        <ele>795.0</ele>
        <time>2013-07-30T15:25:04.000Z</time>
      </trkpt>
      <trkpt lon="7.012663967907429" lat="46.170247960835695">
        <ele>792.2000122070312</ele>
        <time>2013-07-30T15:25:09.000Z</time>
      </trkpt>
      <trkpt lon="7.012759940698743" lat="46.17015894502401">
        <ele>788.2000122070312</ele>
        <time>2013-07-30T15:25:15.000Z</time>
      </trkpt>
      <trkpt lon="7.012885920703411" lat="46.170033970847726">
        <ele>783.4000244140625</ele>
        <time>2013-07-30T15:25:22.000Z</time>
      </trkpt>
      <trkpt lon="7.012929925695062" lat="46.16997898556292">
        <ele>782.2000122070312</ele>
        <time>2013-07-30T15:25:27.000Z</time>
      </trkpt>
      <trkpt lon="7.012985916808248" lat="46.16990899667144">
        <ele>781.4000244140625</ele>
        <time>2013-07-30T15:25:30.000Z</time>
      </trkpt>
      <trkpt lon="7.0130769442766905" lat="46.169794918969274">
        <ele>780.0</ele>
        <time>2013-07-30T15:25:36.000Z</time>
      </trkpt>
      <trkpt lon="7.013166965916753" lat="46.169686960056424">
        <ele>778.4000244140625</ele>
        <time>2013-07-30T15:25:43.000Z</time>
      </trkpt>
      <trkpt lon="7.013232931494713" lat="46.16960993036628">
        <ele>777.2000122070312</ele>
        <time>2013-07-30T15:25:47.000Z</time>
      </trkpt>
      <trkpt lon="7.013298980891705" lat="46.16954195313156">
        <ele>775.7999877929688</ele>
        <time>2013-07-30T15:25:51.000Z</time>
      </trkpt>
      <trkpt lon="7.012934954836965" lat="46.16929795593023">
        <ele>796.4000244140625</ele>
        <time>2013-07-30T15:25:56.000Z</time>
      </trkpt>
      <trkpt lon="7.012935960665345" lat="46.169278929010034">
        <ele>796.7999877929688</ele>
        <time>2013-07-30T15:25:57.000Z</time>
      </trkpt>
      <trkpt lon="7.012942917644978" lat="46.16915898397565">
        <ele>799.0</ele>
        <time>2013-07-30T15:26:03.000Z</time>
      </trkpt>
      <trkpt lon="7.012943923473358" lat="46.16913593374193">
        <ele>799.5999755859375</ele>
        <time>2013-07-30T15:26:04.000Z</time>
      </trkpt>
      <trkpt lon="7.012987928465009" lat="46.168960919603705">
        <ele>802.4000244140625</ele>
        <time>2013-07-30T15:26:10.000Z</time>
      </trkpt>
      <trkpt lon="7.013047942891717" lat="46.16882094182074">
        <ele>803.5999755859375</ele>
        <time>2013-07-30T15:26:15.000Z</time>
      </trkpt>
      <trkpt lon="7.013097982853651" lat="46.16872999817133">
        <ele>804.0</ele>
        <time>2013-07-30T15:26:20.000Z</time>
      </trkpt>
      <trkpt lon="7.013116925954819" lat="46.16864894516766">
        <ele>805.4000244140625</ele>
        <time>2013-07-30T15:26:24.000Z</time>
      </trkpt>
      <trkpt lon="7.013143999502063" lat="46.16853293962777">
        <ele>807.4000244140625</ele>
        <time>2013-07-30T15:26:31.000Z</time>
      </trkpt>
      <trkpt lon="7.013174928724766" lat="46.168402936309576">
        <ele>809.5999755859375</ele>
        <time>2013-07-30T15:26:36.000Z</time>
      </trkpt>
      <trkpt lon="7.013208959251642" lat="46.168183917179704">
        <ele>815.0</ele>
        <time>2013-07-30T15:26:43.000Z</time>
      </trkpt>
      <trkpt lon="7.0132839772850275" lat="46.16801795549691">
        <ele>817.4000244140625</ele>
        <time>2013-07-30T15:26:48.000Z</time>
      </trkpt>
      <trkpt lon="7.013469971716404" lat="46.167922988533974">
        <ele>814.2000122070312</ele>
        <time>2013-07-30T15:26:55.000Z</time>
      </trkpt>
      <trkpt lon="7.013550940901041" lat="46.167884934693575">
        <ele>812.7999877929688</ele>
        <time>2013-07-30T15:26:58.000Z</time>
      </trkpt>
      <trkpt lon="7.013745987787843" lat="46.167796924710274">
        <ele>809.2000122070312</ele>
        <time>2013-07-30T15:27:04.000Z</time>
      </trkpt>
      <trkpt lon="7.013899963349104" lat="46.16772794164717">
        <ele>806.0</ele>
        <time>2013-07-30T15:27:09.000Z</time>
      </trkpt>
      <trkpt lon="7.014057962223887" lat="46.16765392944217">
        <ele>802.5999755859375</ele>
        <time>2013-07-30T15:27:14.000Z</time>
      </trkpt>
      <trkpt lon="7.01410498470068" lat="46.16758997552097">
        <ele>802.5999755859375</ele>
        <time>2013-07-30T15:27:19.000Z</time>
      </trkpt>
      <trkpt lon="7.013924941420555" lat="46.16754898801446">
        <ele>810.2000122070312</ele>
        <time>2013-07-30T15:27:23.000Z</time>
      </trkpt>
      <trkpt lon="7.013897951692343" lat="46.16755594499409">
        <ele>811.0</ele>
        <time>2013-07-30T15:27:24.000Z</time>
      </trkpt>
      <trkpt lon="7.0139139611274" lat="46.16755192168057">
        <ele>810.5999755859375</ele>
        <time>2013-07-30T15:27:31.000Z</time>
      </trkpt>
      <trkpt lon="7.013601986691356" lat="46.167862974107265">
        <ele>811.7999877929688</ele>
        <time>2013-07-30T15:27:38.000Z</time>
      </trkpt>
      <trkpt lon="7.01346293091774" lat="46.167925922200084">
        <ele>814.4000244140625</ele>
        <time>2013-07-30T15:27:44.000Z</time>
      </trkpt>
      <trkpt lon="7.013372993096709" lat="46.167967999354005">
        <ele>816.0</ele>
        <time>2013-07-30T15:27:48.000Z</time>
      </trkpt>
      <trkpt lon="7.013246929273009" lat="46.16809196770191">
        <ele>816.5999755859375</ele>
        <time>2013-07-30T15:27:53.000Z</time>
      </trkpt>
      <trkpt lon="7.013198984786868" lat="46.16823999211192">
        <ele>813.5999755859375</ele>
        <time>2013-07-30T15:28:00.000Z</time>
      </trkpt>
      <trkpt lon="7.013190938159823" lat="46.16830595768988">
        <ele>811.7999877929688</ele>
        <time>2013-07-30T15:28:05.000Z</time>
      </trkpt>
      <trkpt lon="7.013173922896385" lat="46.16840796545148">
        <ele>809.5999755859375</ele>
        <time>2013-07-30T15:28:10.000Z</time>
      </trkpt>
      <trkpt lon="7.013140982016921" lat="46.168548949062824">
        <ele>807.0</ele>
        <time>2013-07-30T15:28:16.000Z</time>
      </trkpt>
      <trkpt lon="7.01311893761158" lat="46.16864299401641">
        <ele>805.4000244140625</ele>
        <time>2013-07-30T15:28:20.000Z</time>
      </trkpt>
      <trkpt lon="7.012655921280384" lat="46.16869093850255">
        <ele>823.7999877929688</ele>
        <time>2013-07-30T15:28:25.000Z</time>
      </trkpt>
      <trkpt lon="7.012654999271035" lat="46.168703930452466">
        <ele>823.5999755859375</ele>
        <time>2013-07-30T15:28:30.000Z</time>
      </trkpt>
      <trkpt lon="7.012647958472371" lat="46.16879696957767">
        <ele>821.4000244140625</ele>
        <time>2013-07-30T15:28:35.000Z</time>
      </trkpt>
      <trkpt lon="7.012593979015946" lat="46.16888095624745">
        <ele>821.4000244140625</ele>
        <time>2013-07-30T15:28:41.000Z</time>
      </trkpt>
      <trkpt lon="7.012490965425968" lat="46.16899696178734">
        <ele>822.7999877929688</ele>
        <time>2013-07-30T15:28:48.000Z</time>
      </trkpt>
      <trkpt lon="7.012478979304433" lat="46.16901095956564">
        <ele>823.2000122070312</ele>
        <time>2013-07-30T15:28:49.000Z</time>
      </trkpt>
      <trkpt lon="7.012390969321132" lat="46.169110955670476">
        <ele>825.2000122070312</ele>
        <time>2013-07-30T15:28:55.000Z</time>
      </trkpt>
      <trkpt lon="7.0122799929231405" lat="46.169236935675144">
        <ele>827.7999877929688</ele>
        <time>2013-07-30T15:29:02.000Z</time>
      </trkpt>
      <trkpt lon="7.012159964069724" lat="46.16937297396362">
        <ele>831.0</ele>
        <time>2013-07-30T15:29:09.000Z</time>
      </trkpt>
      <trkpt lon="7.012024931609631" lat="46.1695259436965">
        <ele>834.5999755859375</ele>
        <time>2013-07-30T15:29:16.000Z</time>
      </trkpt>
      <trkpt lon="7.011910937726498" lat="46.16965594701469">
        <ele>837.7999877929688</ele>
        <time>2013-07-30T15:29:23.000Z</time>
      </trkpt>
      <trkpt lon="7.011769954115152" lat="46.16982894949615">
        <ele>841.2000122070312</ele>
        <time>2013-07-30T15:29:29.000Z</time>
      </trkpt>
      <trkpt lon="7.0116909965872765" lat="46.16993699222803">
        <ele>843.0</ele>
        <time>2013-07-30T15:29:34.000Z</time>
      </trkpt>
      <trkpt lon="7.011667946353555" lat="46.16998292505741">
        <ele>843.2000122070312</ele>
        <time>2013-07-30T15:29:38.000Z</time>
      </trkpt>
      <trkpt lon="7.0116429682821035" lat="46.170033970847726">
        <ele>844.0</ele>
        <time>2013-07-30T15:29:42.000Z</time>
      </trkpt>
      <trkpt lon="7.011614972725511" lat="46.17009096778929">
        <ele>845.4000244140625</ele>
        <time>2013-07-30T15:29:46.000Z</time>
      </trkpt>
      <trkpt lon="7.011580942198634" lat="46.17015894502401">
        <ele>846.7999877929688</ele>
        <time>2013-07-30T15:29:50.000Z</time>
      </trkpt>
      <trkpt lon="7.011523945257068" lat="46.17027293890715">
        <ele>849.4000244140625</ele>
        <time>2013-07-30T15:29:57.000Z</time>
      </trkpt>
      <trkpt lon="7.011499973013997" lat="46.17031895555556">
        <ele>850.4000244140625</ele>
        <time>2013-07-30T15:29:59.000Z</time>
      </trkpt>
      <trkpt lon="7.011480946093798" lat="46.17054099217057">
        <ele>850.2000122070312</ele>
        <time>2013-07-30T15:30:06.000Z</time>
      </trkpt>
      <trkpt lon="7.011486981064081" lat="46.17060192860663">
        <ele>849.5999755859375</ele>
        <time>2013-07-30T15:30:09.000Z</time>
      </trkpt>
      <trkpt lon="7.011503996327519" lat="46.17077895440161">
        <ele>847.5999755859375</ele>
        <time>2013-07-30T15:30:18.000Z</time>
      </trkpt>
      <trkpt lon="7.0115139707922935" lat="46.17088397964835">
        <ele>846.5999755859375</ele>
        <time>2013-07-30T15:30:24.000Z</time>
      </trkpt>
      <trkpt lon="7.011520927771926" lat="46.170960925519466">
        <ele>846.0</ele>
        <time>2013-07-30T15:30:29.000Z</time>
      </trkpt>
      <trkpt lon="7.011523945257068" lat="46.17107097990811">
        <ele>845.4000244140625</ele>
        <time>2013-07-30T15:30:34.000Z</time>
      </trkpt>
      <trkpt lon="7.011465942487121" lat="46.17122495546937">
        <ele>847.5999755859375</ele>
        <time>2013-07-30T15:30:39.000Z</time>
      </trkpt>
      <trkpt lon="7.011424954980612" lat="46.1712889932096">
        <ele>849.2000122070312</ele>
        <time>2013-07-30T15:30:45.000Z</time>
      </trkpt>
      <trkpt lon="7.0113979652523994" lat="46.17133199237287">
        <ele>850.2000122070312</ele>
        <time>2013-07-30T15:30:48.000Z</time>
      </trkpt>
      <trkpt lon="7.011357983574271" lat="46.17139393463731">
        <ele>851.7999877929688</ele>
        <time>2013-07-30T15:30:54.000Z</time>
      </trkpt>
      <trkpt lon="7.011300986632705" lat="46.17149996571243">
        <ele>853.7999877929688</ele>
        <time>2013-07-30T15:31:01.000Z</time>
      </trkpt>
      <trkpt lon="7.011257987469435" lat="46.1716119479388">
        <ele>855.0</ele>
        <time>2013-07-30T15:31:07.000Z</time>
      </trkpt>
      <trkpt lon="7.011219933629036" lat="46.171709932386875">
        <ele>856.4000244140625</ele>
        <time>2013-07-30T15:31:12.000Z</time>
      </trkpt>
      <trkpt lon="7.011168971657753" lat="46.171833984553814">
        <ele>859.2000122070312</ele>
        <time>2013-07-30T15:31:18.000Z</time>
      </trkpt>
      <trkpt lon="7.011137958616018" lat="46.17190891876817">
        <ele>860.7999877929688</ele>
        <time>2013-07-30T15:31:24.000Z</time>
      </trkpt>
      <trkpt lon="7.011126978322864" lat="46.17193599231541">
        <ele>861.4000244140625</ele>
        <time>2013-07-30T15:31:25.000Z</time>
      </trkpt>
      <trkpt lon="7.011093953624368" lat="46.172097930684686">
        <ele>863.5999755859375</ele>
        <time>2013-07-30T15:31:32.000Z</time>
      </trkpt>
      <trkpt lon="7.011084984987974" lat="46.17221192456782">
        <ele>864.4000244140625</ele>
        <time>2013-07-30T15:31:37.000Z</time>
      </trkpt>
      <trkpt lon="7.011084984987974" lat="46.17233798839152">
        <ele>865.0</ele>
        <time>2013-07-30T15:31:43.000Z</time>
      </trkpt>
      <trkpt lon="7.011093953624368" lat="46.172440918162465">
        <ele>865.0</ele>
        <time>2013-07-30T15:31:48.000Z</time>
      </trkpt>
      <trkpt lon="7.011099988594651" lat="46.172524988651276">
        <ele>865.5999755859375</ele>
        <time>2013-07-30T15:31:52.000Z</time>
      </trkpt>
      <trkpt lon="7.011174922809005" lat="46.17264191620052">
        <ele>864.4000244140625</ele>
        <time>2013-07-30T15:31:58.000Z</time>
      </trkpt>
      <trkpt lon="7.011337950825691" lat="46.17271098308265">
        <ele>858.4000244140625</ele>
        <time>2013-07-30T15:32:04.000Z</time>
      </trkpt>
      <trkpt lon="7.011448927223682" lat="46.172737972810864">
        <ele>854.0</ele>
        <time>2013-07-30T15:32:07.000Z</time>
      </trkpt>
      <trkpt lon="7.011528974398971" lat="46.17286395281553">
        <ele>852.5999755859375</ele>
        <time>2013-07-30T15:32:12.000Z</time>
      </trkpt>
      <trkpt lon="7.011499973013997" lat="46.17298699915409">
        <ele>856.2000122070312</ele>
        <time>2013-07-30T15:32:18.000Z</time>
      </trkpt>
      <trkpt lon="7.011469965800643" lat="46.17311792448163">
        <ele>860.0</ele>
        <time>2013-07-30T15:32:24.000Z</time>
      </trkpt>
      <trkpt lon="7.011465942487121" lat="46.17319797165692">
        <ele>861.5999755859375</ele>
        <time>2013-07-30T15:32:28.000Z</time>
      </trkpt>
      <trkpt lon="7.011483963578939" lat="46.17330299690366">
        <ele>862.5999755859375</ele>
        <time>2013-07-30T15:32:34.000Z</time>
      </trkpt>
      <trkpt lon="7.011508941650391" lat="46.17339192889631">
        <ele>862.5999755859375</ele>
        <time>2013-07-30T15:32:39.000Z</time>
      </trkpt>
      <trkpt lon="7.011508941650391" lat="46.17350198328495">
        <ele>863.5999755859375</ele>
        <time>2013-07-30T15:32:45.000Z</time>
      </trkpt>
      <trkpt lon="7.011479940265417" lat="46.173600973561406">
        <ele>865.7999877929688</ele>
        <time>2013-07-30T15:32:50.000Z</time>
      </trkpt>
      <trkpt lon="7.011437946930528" lat="46.1737169791013">
        <ele>869.0</ele>
        <time>2013-07-30T15:32:55.000Z</time>
      </trkpt>
      <trkpt lon="7.011430989950895" lat="46.17373491637409">
        <ele>869.4000244140625</ele>
        <time>2013-07-30T15:32:58.000Z</time>
      </trkpt>
      <trkpt lon="7.011375920847058" lat="46.173858968541026">
        <ele>873.4000244140625</ele>
        <time>2013-07-30T15:33:04.000Z</time>
      </trkpt>
      <trkpt lon="7.011321941390634" lat="46.17397296242416">
        <ele>877.4000244140625</ele>
        <time>2013-07-30T15:33:10.000Z</time>
      </trkpt>
      <trkpt lon="7.0112689677625895" lat="46.17411193437874">
        <ele>881.7999877929688</ele>
        <time>2013-07-30T15:33:16.000Z</time>
      </trkpt>
      <trkpt lon="7.011252958327532" lat="46.174267921596766">
        <ele>882.7999877929688</ele>
        <time>2013-07-30T15:33:22.000Z</time>
      </trkpt>
      <trkpt lon="7.011262932792306" lat="46.17439893074334">
        <ele>882.0</ele>
        <time>2013-07-30T15:33:28.000Z</time>
      </trkpt>
      <trkpt lon="7.011271985247731" lat="46.174519965425134">
        <ele>881.0</ele>
        <time>2013-07-30T15:33:34.000Z</time>
      </trkpt>
      <trkpt lon="7.011272991076112" lat="46.17459992878139">
        <ele>880.7999877929688</ele>
        <time>2013-07-30T15:33:39.000Z</time>
      </trkpt>
      <trkpt lon="7.011272991076112" lat="46.17468793876469">
        <ele>880.4000244140625</ele>
        <time>2013-07-30T15:33:44.000Z</time>
      </trkpt>
      <trkpt lon="7.0112409722059965" lat="46.174802938476205">
        <ele>881.5999755859375</ele>
        <time>2013-07-30T15:33:51.000Z</time>
      </trkpt>
      <trkpt lon="7.011200990527868" lat="46.174886925145984">
        <ele>883.0</ele>
        <time>2013-07-30T15:33:56.000Z</time>
      </trkpt>
      <trkpt lon="7.011122955009341" lat="46.17504391819239">
        <ele>885.7999877929688</ele>
        <time>2013-07-30T15:34:02.000Z</time>
      </trkpt>
      <trkpt lon="7.011075932532549" lat="46.17513494566083">
        <ele>887.5999755859375</ele>
        <time>2013-07-30T15:34:07.000Z</time>
      </trkpt>
      <trkpt lon="7.011044919490814" lat="46.17517895065248">
        <ele>888.7999877929688</ele>
        <time>2013-07-30T15:34:10.000Z</time>
      </trkpt>
      <trkpt lon="7.011000998318195" lat="46.17524298839271">
        <ele>890.2000122070312</ele>
        <time>2013-07-30T15:34:16.000Z</time>
      </trkpt>
      <trkpt lon="7.010899996384978" lat="46.17541599087417">
        <ele>893.5999755859375</ele>
        <time>2013-07-30T15:34:22.000Z</time>
      </trkpt>
      <trkpt lon="7.010852973908186" lat="46.175529984757304">
        <ele>895.0</ele>
        <time>2013-07-30T15:34:25.000Z</time>
      </trkpt>
      <trkpt lon="7.010816931724548" lat="46.17563693784177">
        <ele>896.0</ele>
        <time>2013-07-30T15:34:31.000Z</time>
      </trkpt>
      <trkpt lon="7.010809974744916" lat="46.17569192312658">
        <ele>896.0</ele>
        <time>2013-07-30T15:34:35.000Z</time>
      </trkpt>
      <trkpt lon="7.010815925896168" lat="46.17589493282139">
        <ele>894.7999877929688</ele>
        <time>2013-07-30T15:34:43.000Z</time>
      </trkpt>
      <trkpt lon="7.010873928666115" lat="46.176024936139584">
        <ele>892.2000122070312</ele>
        <time>2013-07-30T15:34:49.000Z</time>
      </trkpt>
      <trkpt lon="7.010933943092823" lat="46.17612694390118">
        <ele>889.7999877929688</ele>
        <time>2013-07-30T15:34:54.000Z</time>
      </trkpt>
      <trkpt lon="7.011000998318195" lat="46.176242949441075">
        <ele>887.0</ele>
        <time>2013-07-30T15:35:01.000Z</time>
      </trkpt>
      <trkpt lon="7.011028993874788" lat="46.17633297108114">
        <ele>885.5999755859375</ele>
        <time>2013-07-30T15:35:06.000Z</time>
      </trkpt>
      <trkpt lon="7.011020947247744" lat="46.17642592638731">
        <ele>885.7999877929688</ele>
        <time>2013-07-30T15:35:12.000Z</time>
      </trkpt>
      <trkpt lon="7.010996975004673" lat="46.17650496773422">
        <ele>886.7999877929688</ele>
        <time>2013-07-30T15:35:17.000Z</time>
      </trkpt>
      <trkpt lon="7.010979959741235" lat="46.17655995301902">
        <ele>887.5999755859375</ele>
        <time>2013-07-30T15:35:21.000Z</time>
      </trkpt>
      <trkpt lon="7.010958921164274" lat="46.176627930253744">
        <ele>888.4000244140625</ele>
        <time>2013-07-30T15:35:26.000Z</time>
      </trkpt>
      <trkpt lon="7.010934948921204" lat="46.17670093663037">
        <ele>889.0</ele>
        <time>2013-07-30T15:35:30.000Z</time>
      </trkpt>
      <trkpt lon="7.010900918394327" lat="46.17677494883537">
        <ele>889.4000244140625</ele>
        <time>2013-07-30T15:35:34.000Z</time>
      </trkpt>
      <trkpt lon="7.0108469389379025" lat="46.176882991567254">
        <ele>890.4000244140625</ele>
        <time>2013-07-30T15:35:40.000Z</time>
      </trkpt>
      <trkpt lon="7.0107609406113625" lat="46.17706395685673">
        <ele>890.4000244140625</ele>
        <time>2013-07-30T15:35:46.000Z</time>
      </trkpt>
      <trkpt lon="7.0107179414480925" lat="46.17715096101165">
        <ele>890.0</ele>
        <time>2013-07-30T15:35:53.000Z</time>
      </trkpt>
      <trkpt lon="7.0106469467282295" lat="46.17723695933819">
        <ele>890.0</ele>
        <time>2013-07-30T15:35:59.000Z</time>
      </trkpt>
      <trkpt lon="7.010564971715212" lat="46.177318934351206">
        <ele>890.2000122070312</ele>
        <time>2013-07-30T15:36:05.000Z</time>
      </trkpt>
      <trkpt lon="7.010447960346937" lat="46.17739696986973">
        <ele>890.5999755859375</ele>
        <time>2013-07-30T15:36:12.000Z</time>
      </trkpt>
      <trkpt lon="7.01034695841372" lat="46.17746394127607">
        <ele>890.7999877929688</ele>
        <time>2013-07-30T15:36:17.000Z</time>
      </trkpt>
      <trkpt lon="7.0101819187402725" lat="46.177552957087755">
        <ele>890.5999755859375</ele>
        <time>2013-07-30T15:36:23.000Z</time>
      </trkpt>
      <trkpt lon="7.010102961212397" lat="46.177554968744516">
        <ele>891.5999755859375</ele>
        <time>2013-07-30T15:36:29.000Z</time>
      </trkpt>
      <trkpt lon="7.0099639892578125" lat="46.177532924339175">
        <ele>894.4000244140625</ele>
        <time>2013-07-30T15:36:35.000Z</time>
      </trkpt>
      <trkpt lon="7.009768942371011" lat="46.177442986518145">
        <ele>900.4000244140625</ele>
        <time>2013-07-30T15:36:44.000Z</time>
      </trkpt>
      <trkpt lon="7.009676992893219" lat="46.177400993183255">
        <ele>903.7999877929688</ele>
        <time>2013-07-30T15:36:48.000Z</time>
      </trkpt>
      <trkpt lon="7.009653942659497" lat="46.17739093489945">
        <ele>904.5999755859375</ele>
        <time>2013-07-30T15:36:50.000Z</time>
      </trkpt>
      <trkpt lon="7.009464930742979" lat="46.177339972928166">
        <ele>910.5999755859375</ele>
        <time>2013-07-30T15:36:57.000Z</time>
      </trkpt>
      <trkpt lon="7.009395947679877" lat="46.177339972928166">
        <ele>912.0</ele>
        <time>2013-07-30T15:37:00.000Z</time>
      </trkpt>
      <trkpt lon="7.009190926328301" lat="46.17734491825104">
        <ele>916.0</ele>
        <time>2013-07-30T15:37:08.000Z</time>
      </trkpt>
      <trkpt lon="7.00905597768724" lat="46.17735397070646">
        <ele>917.2000122070312</ele>
        <time>2013-07-30T15:37:14.000Z</time>
      </trkpt>
      <trkpt lon="7.009024964645505" lat="46.17735497653484">
        <ele>917.5999755859375</ele>
        <time>2013-07-30T15:37:16.000Z</time>
      </trkpt>
      <trkpt lon="7.008981965482235" lat="46.177357994019985">
        <ele>917.7999877929688</ele>
        <time>2013-07-30T15:37:18.000Z</time>
      </trkpt>
      <trkpt lon="7.008837964385748" lat="46.17736696265638">
        <ele>919.0</ele>
        <time>2013-07-30T15:37:24.000Z</time>
      </trkpt>
      <trkpt lon="7.008701926097274" lat="46.17737492546439">
        <ele>920.2000122070312</ele>
        <time>2013-07-30T15:37:30.000Z</time>
      </trkpt>
      <trkpt lon="7.008620956912637" lat="46.177379954606295">
        <ele>920.7999877929688</ele>
        <time>2013-07-30T15:37:34.000Z</time>
      </trkpt>
      <trkpt lon="7.008491959422827" lat="46.177382972091436">
        <ele>922.2000122070312</ele>
        <time>2013-07-30T15:37:41.000Z</time>
      </trkpt>
      <trkpt lon="7.008395986631513" lat="46.177382972091436">
        <ele>923.2000122070312</ele>
        <time>2013-07-30T15:37:45.000Z</time>
      </trkpt>
      <trkpt lon="7.008288949728012" lat="46.177382972091436">
        <ele>924.0</ele>
        <time>2013-07-30T15:37:51.000Z</time>
      </trkpt>
      <trkpt lon="7.008144948631525" lat="46.177382972091436">
        <ele>923.5999755859375</ele>
        <time>2013-07-30T15:37:58.000Z</time>
      </trkpt>
      <trkpt lon="7.008118964731693" lat="46.177382972091436">
        <ele>923.5999755859375</ele>
        <time>2013-07-30T15:38:01.000Z</time>
      </trkpt>
      <trkpt lon="7.007982926443219" lat="46.17737299762666">
        <ele>924.0</ele>
        <time>2013-07-30T15:38:06.000Z</time>
      </trkpt>
      <trkpt lon="7.007741946727037" lat="46.177358999848366">
        <ele>924.2000122070312</ele>
        <time>2013-07-30T15:38:14.000Z</time>
      </trkpt>
      <trkpt lon="7.007602974772453" lat="46.17735397070646">
        <ele>924.2000122070312</ele>
        <time>2013-07-30T15:38:19.000Z</time>
      </trkpt>
      <trkpt lon="7.007556958124042" lat="46.17735296487808">
        <ele>924.2000122070312</ele>
        <time>2013-07-30T15:38:25.000Z</time>
      </trkpt>
      <trkpt lon="7.0074479933828115" lat="46.17734894156456">
        <ele>924.7999877929688</ele>
        <time>2013-07-30T15:38:29.000Z</time>
      </trkpt>
      <trkpt lon="7.007304998114705" lat="46.17734399624169">
        <ele>926.2000122070312</ele>
        <time>2013-07-30T15:38:34.000Z</time>
      </trkpt>
      <trkpt lon="7.007279936224222" lat="46.17734299041331">
        <ele>926.4000244140625</ele>
        <time>2013-07-30T15:38:35.000Z</time>
      </trkpt>
      <trkpt lon="7.006991934031248" lat="46.17735497653484">
        <ele>928.2000122070312</ele>
        <time>2013-07-30T15:38:42.000Z</time>
      </trkpt>
      <trkpt lon="7.006715917959809" lat="46.177401999011636">
        <ele>928.5999755859375</ele>
        <time>2013-07-30T15:38:49.000Z</time>
      </trkpt>
      <trkpt lon="7.006609970703721" lat="46.177422953769565">
        <ele>928.7999877929688</ele>
        <time>2013-07-30T15:38:54.000Z</time>
      </trkpt>
      <trkpt lon="7.006830917671323" lat="46.178283942863345">
        <ele>894.4000244140625</ele>
        <time>2013-07-30T15:39:00.000Z</time>
      </trkpt>
      <trkpt lon="7.006394974887371" lat="46.17751892656088">
        <ele>927.5999755859375</ele>
        <time>2013-07-30T15:39:03.000Z</time>
      </trkpt>
      <trkpt lon="7.006276957690716" lat="46.177636943757534">
        <ele>925.2000122070312</ele>
        <time>2013-07-30T15:39:09.000Z</time>
      </trkpt>
      <trkpt lon="7.006197916343808" lat="46.17775898426771">
        <ele>922.5999755859375</ele>
        <time>2013-07-30T15:39:14.000Z</time>
      </trkpt>
      <trkpt lon="7.0061509776860476" lat="46.17784297093749">
        <ele>920.7999877929688</ele>
        <time>2013-07-30T15:39:20.000Z</time>
      </trkpt>
      <trkpt lon="7.006105966866016" lat="46.17788295261562">
        <ele>920.4000244140625</ele>
        <time>2013-07-30T15:39:24.000Z</time>
      </trkpt>
      <trkpt lon="7.006063973531127" lat="46.17791195400059">
        <ele>920.2000122070312</ele>
        <time>2013-07-30T15:39:27.000Z</time>
      </trkpt>
      <trkpt lon="7.005993984639645" lat="46.177961993962526">
        <ele>920.0</ele>
        <time>2013-07-30T15:39:34.000Z</time>
      </trkpt>
      <trkpt lon="7.005993984639645" lat="46.177961993962526">
        <ele>920.0</ele>
        <time>2013-07-30T15:39:35.000Z</time>
      </trkpt>
      <trkpt lon="7.005890971049666" lat="46.17797398008406">
        <ele>921.4000244140625</ele>
        <time>2013-07-30T15:39:41.000Z</time>
      </trkpt>
      <trkpt lon="7.005852917209268" lat="46.17797791957855">
        <ele>922.0</ele>
        <time>2013-07-30T15:39:43.000Z</time>
      </trkpt>
      <trkpt lon="7.005708999931812" lat="46.177957970649004">
        <ele>923.2000122070312</ele>
        <time>2013-07-30T15:39:49.000Z</time>
      </trkpt>
      <trkpt lon="7.005621995776892" lat="46.177921928465366">
        <ele>924.2000122070312</ele>
        <time>2013-07-30T15:39:54.000Z</time>
      </trkpt>
      <trkpt lon="7.005524933338165" lat="46.17785696871579">
        <ele>925.7999877929688</ele>
        <time>2013-07-30T15:40:01.000Z</time>
      </trkpt>
      <trkpt lon="7.005465924739838" lat="46.17775697261095">
        <ele>927.7999877929688</ele>
        <time>2013-07-30T15:40:08.000Z</time>
      </trkpt>
      <trkpt lon="7.005433989688754" lat="46.17769796401262">
        <ele>929.0</ele>
        <time>2013-07-30T15:40:13.000Z</time>
      </trkpt>
      <trkpt lon="7.005407921969891" lat="46.17762696929276">
        <ele>930.4000244140625</ele>
        <time>2013-07-30T15:40:19.000Z</time>
      </trkpt>
      <trkpt lon="7.005364922806621" lat="46.177508952096105">
        <ele>932.4000244140625</ele>
        <time>2013-07-30T15:40:25.000Z</time>
      </trkpt>
      <trkpt lon="7.005293928086758" lat="46.177318934351206">
        <ele>938.4000244140625</ele>
        <time>2013-07-30T15:40:34.000Z</time>
      </trkpt>
      <trkpt lon="7.00519192032516" lat="46.177190942689776">
        <ele>943.0</ele>
        <time>2013-07-30T15:40:42.000Z</time>
      </trkpt>
      <trkpt lon="7.005153950303793" lat="46.17714894935489">
        <ele>944.5999755859375</ele>
        <time>2013-07-30T15:40:45.000Z</time>
      </trkpt>
      <trkpt lon="7.005224945023656" lat="46.177120953798294">
        <ele>945.4000244140625</ele>
        <time>2013-07-30T15:40:49.000Z</time>
      </trkpt>
      <trkpt lon="7.005183957517147" lat="46.17718197405338">
        <ele>943.2000122070312</ele>
        <time>2013-07-30T15:40:57.000Z</time>
      </trkpt>
      <trkpt lon="7.005233997479081" lat="46.17723796516657">
        <ele>941.2000122070312</ele>
        <time>2013-07-30T15:41:04.000Z</time>
      </trkpt>
      <trkpt lon="7.005233997479081" lat="46.17723796516657">
        <ele>941.2000122070312</ele>
        <time>2013-07-30T15:41:06.000Z</time>
      </trkpt>
      <trkpt lon="7.005114974454045" lat="46.177103938534856">
        <ele>946.2000122070312</ele>
        <time>2013-07-30T15:42:01.000Z</time>
      </trkpt>
      <trkpt lon="7.005114974454045" lat="46.177103938534856">
        <ele>946.2000122070312</ele>
        <time>2013-07-30T15:42:05.000Z</time>
      </trkpt>
      <trkpt lon="7.004864942282438" lat="46.17703998461366">
        <ele>951.5999755859375</ele>
        <time>2013-07-30T15:42:10.000Z</time>
      </trkpt>
      <trkpt lon="7.004653969779611" lat="46.17704794742167">
        <ele>954.7999877929688</ele>
        <time>2013-07-30T15:42:14.000Z</time>
      </trkpt>
      <trkpt lon="7.004512986168265" lat="46.17708591744304">
        <ele>955.4000244140625</ele>
        <time>2013-07-30T15:42:22.000Z</time>
      </trkpt>
      <trkpt lon="7.004418941214681" lat="46.17711097933352">
        <ele>955.7999877929688</ele>
        <time>2013-07-30T15:42:27.000Z</time>
      </trkpt>
      <trkpt lon="7.004301929846406" lat="46.17715297266841">
        <ele>955.4000244140625</ele>
        <time>2013-07-30T15:42:33.000Z</time>
      </trkpt>
      <trkpt lon="7.004164969548583" lat="46.1772139929235">
        <ele>954.0</ele>
        <time>2013-07-30T15:42:40.000Z</time>
      </trkpt>
      <trkpt lon="7.004024991765618" lat="46.17729093879461">
        <ele>952.4000244140625</ele>
        <time>2013-07-30T15:42:46.000Z</time>
      </trkpt>
      <trkpt lon="7.003870932385325" lat="46.177338967099786">
        <ele>952.7999877929688</ele>
        <time>2013-07-30T15:42:54.000Z</time>
      </trkpt>
      <trkpt lon="7.003784934058785" lat="46.1773329321295">
        <ele>954.7999877929688</ele>
        <time>2013-07-30T15:42:58.000Z</time>
      </trkpt>
      <trkpt lon="7.003631964325905" lat="46.17732195183635">
        <ele>958.4000244140625</ele>
        <time>2013-07-30T15:43:05.000Z</time>
      </trkpt>
      <trkpt lon="7.003429960459471" lat="46.177336955443025">
        <ele>961.4000244140625</ele>
        <time>2013-07-30T15:43:11.000Z</time>
      </trkpt>
      <trkpt lon="7.003219993785024" lat="46.177402921020985">
        <ele>961.4000244140625</ele>
        <time>2013-07-30T15:43:16.000Z</time>
      </trkpt>
      <trkpt lon="7.003067946061492" lat="46.17751398123801">
        <ele>957.7999877929688</ele>
        <time>2013-07-30T15:43:23.000Z</time>
      </trkpt>
      <trkpt lon="7.003000974655151" lat="46.17756293155253">
        <ele>956.5999755859375</ele>
        <time>2013-07-30T15:43:25.000Z</time>
      </trkpt>
      <trkpt lon="7.002979936078191" lat="46.17757994681597">
        <ele>956.2000122070312</ele>
        <time>2013-07-30T15:43:29.000Z</time>
      </trkpt>
      <trkpt lon="7.002939954400063" lat="46.17761196568608">
        <ele>955.4000244140625</ele>
        <time>2013-07-30T15:43:32.000Z</time>
      </trkpt>
      <trkpt lon="7.0028689596802" lat="46.17765597067773">
        <ele>954.4000244140625</ele>
        <time>2013-07-30T15:43:37.000Z</time>
      </trkpt>
      <trkpt lon="7.002703920006752" lat="46.17771699093282">
        <ele>953.5999755859375</ele>
        <time>2013-07-30T15:43:45.000Z</time>
      </trkpt>
      <trkpt lon="7.002672990784049" lat="46.177724953740835">
        <ele>953.5999755859375</ele>
        <time>2013-07-30T15:43:46.000Z</time>
      </trkpt>
      <trkpt lon="7.002602918073535" lat="46.177701987326145">
        <ele>955.5999755859375</ele>
        <time>2013-07-30T15:43:52.000Z</time>
      </trkpt>
      <trkpt lon="7.002582969143987" lat="46.17763493210077">
        <ele>959.4000244140625</ele>
        <time>2013-07-30T15:43:55.000Z</time>
      </trkpt>
      <trkpt lon="7.0028239488601685" lat="46.17746092379093">
        <ele>964.5999755859375</ele>
        <time>2013-07-30T15:44:05.000Z</time>
      </trkpt>
      <trkpt lon="7.002986976876855" lat="46.17732999846339">
        <ele>969.2000122070312</ele>
        <time>2013-07-30T15:44:13.000Z</time>
      </trkpt>
      <trkpt lon="7.003028970211744" lat="46.17726193740964">
        <ele>972.4000244140625</ele>
        <time>2013-07-30T15:44:18.000Z</time>
      </trkpt>
      <trkpt lon="7.003247989341617" lat="46.177382972091436">
        <ele>962.0</ele>
        <time>2013-07-30T15:44:20.000Z</time>
      </trkpt>
      <trkpt lon="7.003247989341617" lat="46.177382972091436">
        <ele>962.0</ele>
        <time>2013-07-30T15:44:25.000Z</time>
      </trkpt>
      <trkpt lon="7.003338932991028" lat="46.17710997350514">
        <ele>976.2000122070312</ele>
        <time>2013-07-30T15:44:30.000Z</time>
      </trkpt>
      <trkpt lon="7.003372963517904" lat="46.1771119851619">
        <ele>975.4000244140625</ele>
        <time>2013-07-30T15:44:31.000Z</time>
      </trkpt>
      <trkpt lon="7.003595922142267" lat="46.177318934351206">
        <ele>959.2000122070312</ele>
        <time>2013-07-30T15:44:39.000Z</time>
      </trkpt>
      <trkpt lon="7.003719974309206" lat="46.17732798680663">
        <ele>956.2000122070312</ele>
        <time>2013-07-30T15:44:45.000Z</time>
      </trkpt>
      <trkpt lon="7.003738917410374" lat="46.17732899263501">
        <ele>955.7999877929688</ele>
        <time>2013-07-30T15:44:46.000Z</time>
      </trkpt>
      <trkpt lon="7.003701953217387" lat="46.177101926878095">
        <ele>969.5999755859375</ele>
        <time>2013-07-30T15:44:51.000Z</time>
      </trkpt>
      <trkpt lon="7.003720980137587" lat="46.17708893492818">
        <ele>970.0</ele>
        <time>2013-07-30T15:44:52.000Z</time>
      </trkpt>
      <trkpt lon="7.003765990957618" lat="46.177055994048715">
        <ele>970.7999877929688</ele>
        <time>2013-07-30T15:44:56.000Z</time>
      </trkpt>
      <trkpt lon="7.003833968192339" lat="46.17693998850882">
        <ele>976.2000122070312</ele>
        <time>2013-07-30T15:45:02.000Z</time>
      </trkpt>
      <trkpt lon="7.003909992054105" lat="46.17681694217026">
        <ele>981.5999755859375</ele>
        <time>2013-07-30T15:45:08.000Z</time>
      </trkpt>
      <trkpt lon="7.003945950418711" lat="46.17676991969347">
        <ele>983.5999755859375</ele>
        <time>2013-07-30T15:45:10.000Z</time>
      </trkpt>
      <trkpt lon="7.004044940695167" lat="46.1766579374671">
        <ele>987.7999877929688</ele>
        <time>2013-07-30T15:45:15.000Z</time>
      </trkpt>
      <trkpt lon="7.004191959276795" lat="46.1765559297055">
        <ele>990.5999755859375</ele>
        <time>2013-07-30T15:45:22.000Z</time>
      </trkpt>
      <trkpt lon="7.0043079648166895" lat="46.176477978006005">
        <ele>992.2000122070312</ele>
        <time>2013-07-30T15:45:29.000Z</time>
      </trkpt>
      <trkpt lon="7.004391951486468" lat="46.17644294165075">
        <ele>992.4000244140625</ele>
        <time>2013-07-30T15:45:33.000Z</time>
      </trkpt>
      <trkpt lon="7.0044749323278666" lat="46.17640798911452">
        <ele>992.5999755859375</ele>
        <time>2013-07-30T15:45:38.000Z</time>
      </trkpt>
      <trkpt lon="7.004487924277782" lat="46.17640295997262">
        <ele>992.5999755859375</ele>
        <time>2013-07-30T15:45:40.000Z</time>
      </trkpt>
      <trkpt lon="7.004548944532871" lat="46.17637798190117">
        <ele>992.7999877929688</ele>
        <time>2013-07-30T15:45:46.000Z</time>
      </trkpt>
      <trkpt lon="7.004684982821345" lat="46.17631796747446">
        <ele>993.5999755859375</ele>
        <time>2013-07-30T15:45:52.000Z</time>
      </trkpt>
      <trkpt lon="7.004802916198969" lat="46.1762659996748">
        <ele>994.4000244140625</ele>
        <time>2013-07-30T15:45:57.000Z</time>
      </trkpt>
      <trkpt lon="7.0049099531024694" lat="46.176218977198005">
        <ele>995.2000122070312</ele>
        <time>2013-07-30T15:46:01.000Z</time>
      </trkpt>
      <trkpt lon="7.004979941993952" lat="46.17618796415627">
        <ele>995.7999877929688</ele>
        <time>2013-07-30T15:46:03.000Z</time>
      </trkpt>
      <trkpt lon="7.0050969533622265" lat="46.17613599635661">
        <ele>998.2000122070312</ele>
        <time>2013-07-30T15:46:08.000Z</time>
      </trkpt>
      <trkpt lon="7.005157973617315" lat="46.17610892280936">
        <ele>999.5999755859375</ele>
        <time>2013-07-30T15:46:10.000Z</time>
      </trkpt>
      <trkpt lon="7.005301974713802" lat="46.176045974716544">
        <ele>1003.0</ele>
        <time>2013-07-30T15:46:17.000Z</time>
      </trkpt>
      <trkpt lon="7.005373975262046" lat="46.17601797915995">
        <ele>1004.4000244140625</ele>
        <time>2013-07-30T15:46:22.000Z</time>
      </trkpt>
      <trkpt lon="7.0054329838603735" lat="46.17599492892623">
        <ele>1005.5999755859375</ele>
        <time>2013-07-30T15:46:26.000Z</time>
      </trkpt>
      <trkpt lon="7.005436923354864" lat="46.17599392309785">
        <ele>1005.5999755859375</ele>
        <time>2013-07-30T15:46:27.000Z</time>
      </trkpt>
      <trkpt lon="7.005521999672055" lat="46.175959976390004">
        <ele>1007.5999755859375</ele>
        <time>2013-07-30T15:46:33.000Z</time>
      </trkpt>
      <trkpt lon="7.005638927221298" lat="46.17591496556997">
        <ele>1010.0</ele>
        <time>2013-07-30T15:46:39.000Z</time>
      </trkpt>
      <trkpt lon="7.0058859419077635" lat="46.17622492834926">
        <ele>986.7999877929688</ele>
        <time>2013-07-30T15:46:40.000Z</time>
      </trkpt>
      <trkpt lon="7.005114974454045" lat="46.177103938534856">
        <ele>946.2000122070312</ele>
        <time>2013-07-30T15:46:46.000Z</time>
      </trkpt>
      <trkpt lon="7.006364967674017" lat="46.175359999760985">
        <ele>1045.0</ele>
        <time>2013-07-30T15:46:52.000Z</time>
      </trkpt>
      <trkpt lon="7.005992978811264" lat="46.17580499500036">
        <ele>1016.7999877929688</ele>
        <time>2013-07-30T15:46:57.000Z</time>
      </trkpt>
      <trkpt lon="7.006914988160133" lat="46.17593692615628">
        <ele>1009.0</ele>
        <time>2013-07-30T15:47:06.000Z</time>
      </trkpt>
      <trkpt lon="7.007378926500678" lat="46.17612493224442">
        <ele>1000.4000244140625</ele>
        <time>2013-07-30T15:47:11.000Z</time>
      </trkpt>
      <trkpt lon="7.00684399344027" lat="46.17741096764803">
        <ele>926.7999877929688</ele>
        <time>2013-07-30T15:47:16.000Z</time>
      </trkpt>
      <trkpt lon="7.007023952901363" lat="46.1773519590497">
        <ele>928.2000122070312</ele>
        <time>2013-07-30T15:47:20.000Z</time>
      </trkpt>
      <trkpt lon="7.007095953449607" lat="46.1773469299078">
        <ele>927.7999877929688</ele>
        <time>2013-07-30T15:47:24.000Z</time>
      </trkpt>
      <trkpt lon="7.007236937060952" lat="46.17734198458493">
        <ele>926.7999877929688</ele>
        <time>2013-07-30T15:47:29.000Z</time>
      </trkpt>
      <trkpt lon="7.007355960085988" lat="46.17734592407942">
        <ele>925.5999755859375</ele>
        <time>2013-07-30T15:47:35.000Z</time>
      </trkpt>
      <trkpt lon="7.00751194730401" lat="46.17735095322132">
        <ele>924.2000122070312</ele>
        <time>2013-07-30T15:47:42.000Z</time>
      </trkpt>
      <trkpt lon="7.007586965337396" lat="46.17739194072783">
        <ele>921.7999877929688</ele>
        <time>2013-07-30T15:47:47.000Z</time>
      </trkpt>
      <trkpt lon="7.007637927308679" lat="46.17721692658961">
        <ele>933.0</ele>
        <time>2013-07-30T15:47:51.000Z</time>
      </trkpt>
      <trkpt lon="7.007787963375449" lat="46.17711592465639">
        <ele>940.2000122070312</ele>
        <time>2013-07-30T15:47:59.000Z</time>
      </trkpt>
      <trkpt lon="7.007780922576785" lat="46.17624496109784">
        <ele>994.4000244140625</ele>
        <time>2013-07-30T15:48:05.000Z</time>
      </trkpt>
      <trkpt lon="7.007802966982126" lat="46.176242949441075">
        <ele>994.5999755859375</ele>
        <time>2013-07-30T15:48:06.000Z</time>
      </trkpt>
      <trkpt lon="7.007840937003493" lat="46.17623892612755">
        <ele>994.7999877929688</ele>
        <time>2013-07-30T15:48:11.000Z</time>
      </trkpt>
      <trkpt lon="7.007840937003493" lat="46.17623892612755">
        <ele>994.7999877929688</ele>
        <time>2013-07-30T15:48:12.000Z</time>
      </trkpt>
      <trkpt lon="7.007927941158414" lat="46.17623096331954">
        <ele>995.5999755859375</ele>
        <time>2013-07-30T15:50:54.000Z</time>
      </trkpt>
      <trkpt lon="7.008081916719675" lat="46.17617899551988">
        <ele>998.7999877929688</ele>
        <time>2013-07-30T15:51:02.000Z</time>
      </trkpt>
      <trkpt lon="7.008228935301304" lat="46.17610498331487">
        <ele>1002.7999877929688</ele>
        <time>2013-07-30T15:51:09.000Z</time>
      </trkpt>
      <trkpt lon="7.008398920297623" lat="46.175984954461455">
        <ele>1007.2000122070312</ele>
        <time>2013-07-30T15:51:17.000Z</time>
      </trkpt>
      <trkpt lon="7.008546944707632" lat="46.175852939486504">
        <ele>1009.2000122070312</ele>
        <time>2013-07-30T15:51:24.000Z</time>
      </trkpt>
      <trkpt lon="7.008645934984088" lat="46.17574095726013">
        <ele>1008.0</ele>
        <time>2013-07-30T15:51:31.000Z</time>
      </trkpt>
      <trkpt lon="7.008654987439513" lat="46.17571991868317">
        <ele>1008.0</ele>
        <time>2013-07-30T15:51:33.000Z</time>
      </trkpt>
      <trkpt lon="7.008654987439513" lat="46.17560693062842">
        <ele>1009.2000122070312</ele>
        <time>2013-07-30T15:51:40.000Z</time>
      </trkpt>
      <trkpt lon="7.008641995489597" lat="46.175485979765654">
        <ele>1010.7999877929688</ele>
        <time>2013-07-30T15:51:47.000Z</time>
      </trkpt>
      <trkpt lon="7.008617939427495" lat="46.1753539647907">
        <ele>1013.0</ele>
        <time>2013-07-30T15:51:54.000Z</time>
      </trkpt>
      <trkpt lon="7.008591955527663" lat="46.17520191706717">
        <ele>1015.4000244140625</ele>
        <time>2013-07-30T15:52:02.000Z</time>
      </trkpt>
      <trkpt lon="7.008547950536013" lat="46.175108961761">
        <ele>1018.0</ele>
        <time>2013-07-30T15:52:08.000Z</time>
      </trkpt>
      <trkpt lon="7.008480979129672" lat="46.17498993873596">
        <ele>1021.5999755859375</ele>
        <time>2013-07-30T15:52:15.000Z</time>
      </trkpt>
      <trkpt lon="7.008397998288274" lat="46.17487996816635">
        <ele>1025.0</ele>
        <time>2013-07-30T15:52:22.000Z</time>
      </trkpt>
      <trkpt lon="7.008343935012817" lat="46.17480897344649">
        <ele>1027.4000244140625</ele>
        <time>2013-07-30T15:52:27.000Z</time>
      </trkpt>
      <trkpt lon="7.00823899358511" lat="46.1746839992702">
        <ele>1031.199951171875</ele>
        <time>2013-07-30T15:52:34.000Z</time>
      </trkpt>
      <trkpt lon="7.008159952238202" lat="46.17459498345852">
        <ele>1034.199951171875</ele>
        <time>2013-07-30T15:52:40.000Z</time>
      </trkpt>
      <trkpt lon="7.0080909691751" lat="46.17451493628323">
        <ele>1036.800048828125</ele>
        <time>2013-07-30T15:52:46.000Z</time>
      </trkpt>
      <trkpt lon="7.008010921999812" lat="46.17441896349192">
        <ele>1039.800048828125</ele>
        <time>2013-07-30T15:52:52.000Z</time>
      </trkpt>
      <trkpt lon="7.008034978061914" lat="46.1743179615587">
        <ele>1039.5999755859375</ele>
        <time>2013-07-30T15:52:58.000Z</time>
      </trkpt>
      <trkpt lon="7.008063979446888" lat="46.1742159537971">
        <ele>1039.4000244140625</ele>
        <time>2013-07-30T15:53:03.000Z</time>
      </trkpt>
      <trkpt lon="7.008096920326352" lat="46.17407597601414">
        <ele>1038.800048828125</ele>
        <time>2013-07-30T15:53:10.000Z</time>
      </trkpt>
      <trkpt lon="7.0079839322716" lat="46.17402291856706">
        <ele>1043.199951171875</ele>
        <time>2013-07-30T15:53:14.000Z</time>
      </trkpt>
      <trkpt lon="7.007901957258582" lat="46.17408293299377">
        <ele>1045.5999755859375</ele>
        <time>2013-07-30T15:53:17.000Z</time>
      </trkpt>
      <trkpt lon="7.007866920903325" lat="46.174136996269226">
        <ele>1046.4000244140625</ele>
        <time>2013-07-30T15:53:21.000Z</time>
      </trkpt>
      <trkpt lon="7.007809923961759" lat="46.17422693409026">
        <ele>1047.4000244140625</ele>
        <time>2013-07-30T15:53:27.000Z</time>
      </trkpt>
      <trkpt lon="7.00778896920383" lat="46.17425995878875">
        <ele>1047.800048828125</ele>
        <time>2013-07-30T15:53:31.000Z</time>
      </trkpt>
      <trkpt lon="7.007731972262263" lat="46.17444293573499">
        <ele>1048.4000244140625</ele>
        <time>2013-07-30T15:53:36.000Z</time>
      </trkpt>
      <trkpt lon="7.008033972233534" lat="46.17444796487689">
        <ele>1038.800048828125</ele>
        <time>2013-07-30T15:53:42.000Z</time>
      </trkpt>
      <trkpt lon="7.007858958095312" lat="46.17466991767287">
        <ele>1042.800048828125</ele>
        <time>2013-07-30T15:53:50.000Z</time>
      </trkpt>
      <trkpt lon="7.007882930338383" lat="46.17478692904115">
        <ele>1041.4000244140625</ele>
        <time>2013-07-30T15:53:57.000Z</time>
      </trkpt>
      <trkpt lon="7.0078379195183516" lat="46.174889942631125">
        <ele>1042.0</ele>
        <time>2013-07-30T15:54:03.000Z</time>
      </trkpt>
      <trkpt lon="7.007781928405166" lat="46.175035955384374">
        <ele>1041.800048828125</ele>
        <time>2013-07-30T15:54:12.000Z</time>
      </trkpt>
      <trkpt lon="7.007731972262263" lat="46.17517299950123">
        <ele>1039.0</ele>
        <time>2013-07-30T15:54:21.000Z</time>
      </trkpt>
      <trkpt lon="7.007644968107343" lat="46.17532194592059">
        <ele>1036.199951171875</ele>
        <time>2013-07-30T15:54:30.000Z</time>
      </trkpt>
      <trkpt lon="7.0075649209320545" lat="46.17543493397534">
        <ele>1033.800048828125</ele>
        <time>2013-07-30T15:54:36.000Z</time>
      </trkpt>
      <trkpt lon="7.0074359234422445" lat="46.175466952845454">
        <ele>1033.800048828125</ele>
        <time>2013-07-30T15:54:42.000Z</time>
      </trkpt>
      <trkpt lon="7.007343973964453" lat="46.17547298781574">
        <ele>1033.800048828125</ele>
        <time>2013-07-30T15:54:46.000Z</time>
      </trkpt>
      <trkpt lon="7.0072639267891645" lat="46.17547298781574">
        <ele>1034.0</ele>
        <time>2013-07-30T15:54:50.000Z</time>
      </trkpt>
      <trkpt lon="7.007155967876315" lat="46.17547298781574">
        <ele>1034.199951171875</ele>
        <time>2013-07-30T15:54:55.000Z</time>
      </trkpt>
      <trkpt lon="7.007009955123067" lat="46.17546292953193">
        <ele>1035.199951171875</ele>
        <time>2013-07-30T15:55:01.000Z</time>
      </trkpt>
      <trkpt lon="7.006826978176832" lat="46.175444992259145">
        <ele>1036.5999755859375</ele>
        <time>2013-07-30T15:55:08.000Z</time>
      </trkpt>
      <trkpt lon="7.006763946264982" lat="46.17543593980372">
        <ele>1037.4000244140625</ele>
        <time>2013-07-30T15:55:12.000Z</time>
      </trkpt>
      <trkpt lon="7.0066749304533005" lat="46.175422947853804">
        <ele>1038.4000244140625</ele>
        <time>2013-07-30T15:55:17.000Z</time>
      </trkpt>
      <trkpt lon="7.006489941850305" lat="46.17538891732693">
        <ele>1042.0</ele>
        <time>2013-07-30T15:55:25.000Z</time>
      </trkpt>
      <trkpt lon="7.0063159335404634" lat="46.17534792982042">
        <ele>1046.199951171875</ele>
        <time>2013-07-30T15:55:32.000Z</time>
      </trkpt>
      <trkpt lon="7.006139997392893" lat="46.175314988940954">
        <ele>1050.0</ele>
        <time>2013-07-30T15:55:39.000Z</time>
      </trkpt>
      <trkpt lon="7.006112923845649" lat="46.17531197145581">
        <ele>1050.4000244140625</ele>
        <time>2013-07-30T15:55:40.000Z</time>
      </trkpt>
      <trkpt lon="7.0059639774262905" lat="46.175293950363994">
        <ele>1053.199951171875</ele>
        <time>2013-07-30T15:55:46.000Z</time>
      </trkpt>
      <trkpt lon="7.005800949409604" lat="46.175273917615414">
        <ele>1056.0</ele>
        <time>2013-07-30T15:55:53.000Z</time>
      </trkpt>
      <trkpt lon="7.005778988823295" lat="46.175271989777684">
        <ele>1056.199951171875</ele>
        <time>2013-07-30T15:55:54.000Z</time>
      </trkpt>
      <trkpt lon="7.005656948313117" lat="46.17525799199939">
        <ele>1057.800048828125</ele>
        <time>2013-07-30T15:55:59.000Z</time>
      </trkpt>
      <trkpt lon="7.005608920007944" lat="46.17525598034263">
        <ele>1058.0</ele>
        <time>2013-07-30T15:56:01.000Z</time>
      </trkpt>
      <trkpt lon="7.0055189821869135" lat="46.175252962857485">
        <ele>1058.5999755859375</ele>
        <time>2013-07-30T15:56:05.000Z</time>
      </trkpt>
      <trkpt lon="7.005270961672068" lat="46.17524298839271">
        <ele>1060.4000244140625</ele>
        <time>2013-07-30T15:56:15.000Z</time>
      </trkpt>
      <trkpt lon="7.005091924220324" lat="46.175234941765666">
        <ele>1061.5999755859375</ele>
        <time>2013-07-30T15:56:23.000Z</time>
      </trkpt>
      <trkpt lon="7.004961920902133" lat="46.175228990614414">
        <ele>1062.800048828125</ele>
        <time>2013-07-30T15:56:28.000Z</time>
      </trkpt>
      <trkpt lon="7.004868965595961" lat="46.17522396147251">
        <ele>1063.800048828125</ele>
        <time>2013-07-30T15:56:33.000Z</time>
      </trkpt>
      <trkpt lon="7.005006931722164" lat="46.17442198097706">
        <ele>1130.199951171875</ele>
        <time>2013-07-30T15:56:40.000Z</time>
      </trkpt>
      <trkpt lon="7.005006931722164" lat="46.17442198097706">
        <ele>1130.199951171875</ele>
        <time>2013-07-30T15:56:45.000Z</time>
      </trkpt>
      <trkpt lon="7.005006931722164" lat="46.17442198097706">
        <ele>1130.199951171875</ele>
        <time>2013-07-30T15:56:53.000Z</time>
      </trkpt>
      <trkpt lon="7.005006931722164" lat="46.17442198097706">
        <ele>1130.199951171875</ele>
        <time>2013-07-30T15:56:57.000Z</time>
      </trkpt>
      <trkpt lon="7.005006931722164" lat="46.17442198097706">
        <ele>1130.199951171875</ele>
        <time>2013-07-30T15:57:27.000Z</time>
      </trkpt>
      <trkpt lon="7.005006931722164" lat="46.17442198097706">
        <ele>1130.199951171875</ele>
        <time>2013-07-30T15:57:32.000Z</time>
      </trkpt>
      <trkpt lon="7.005006931722164" lat="46.17442198097706">
        <ele>1130.199951171875</ele>
        <time>2013-07-30T15:57:34.000Z</time>
      </trkpt>
      <trkpt lon="7.005006931722164" lat="46.17442198097706">
        <ele>1130.199951171875</ele>
        <time>2013-07-30T15:57:39.000Z</time>
      </trkpt>
      <trkpt lon="7.004759917035699" lat="46.17521792650223">
        <ele>1065.0</ele>
        <time>2013-07-30T15:57:42.000Z</time>
      </trkpt>
      <trkpt lon="7.0046089589595795" lat="46.1752159986645">
        <ele>1066.4000244140625</ele>
        <time>2013-07-30T15:57:49.000Z</time>
      </trkpt>
      <trkpt lon="7.004440985620022" lat="46.1752159986645">
        <ele>1067.5999755859375</ele>
        <time>2013-07-30T15:57:55.000Z</time>
      </trkpt>
      <trkpt lon="7.004268988966942" lat="46.175232930108905">
        <ele>1067.800048828125</ele>
        <time>2013-07-30T15:58:01.000Z</time>
      </trkpt>
      <trkpt lon="7.004075953736901" lat="46.17526193149388">
        <ele>1069.5999755859375</ele>
        <time>2013-07-30T15:58:07.000Z</time>
      </trkpt>
      <trkpt lon="7.003848971799016" lat="46.17529093287885">
        <ele>1074.800048828125</ele>
        <time>2013-07-30T15:58:14.000Z</time>
      </trkpt>
      <trkpt lon="7.003695918247104" lat="46.17530593648553">
        <ele>1078.4000244140625</ele>
        <time>2013-07-30T15:58:19.000Z</time>
      </trkpt>
      <trkpt lon="7.003516964614391" lat="46.17532395757735">
        <ele>1082.4000244140625</ele>
        <time>2013-07-30T15:58:25.000Z</time>
      </trkpt>
      <trkpt lon="7.003366928547621" lat="46.17534499615431">
        <ele>1085.199951171875</ele>
        <time>2013-07-30T15:58:30.000Z</time>
      </trkpt>
      <trkpt lon="7.003156961873174" lat="46.175362933427095">
        <ele>1087.800048828125</ele>
        <time>2013-07-30T15:58:37.000Z</time>
      </trkpt>
      <trkpt lon="7.003098959103227" lat="46.175367962569">
        <ele>1088.4000244140625</ele>
        <time>2013-07-30T15:58:39.000Z</time>
      </trkpt>
      <trkpt lon="7.002945989370346" lat="46.175379948690534">
        <ele>1089.800048828125</ele>
        <time>2013-07-30T15:58:44.000Z</time>
      </trkpt>
      <trkpt lon="7.002692939713597" lat="46.175402998924255">
        <ele>1092.0</ele>
        <time>2013-07-30T15:58:53.000Z</time>
      </trkpt>
      <trkpt lon="7.002529995515943" lat="46.1754179187119">
        <ele>1093.199951171875</ele>
        <time>2013-07-30T15:58:59.000Z</time>
      </trkpt>
      <trkpt lon="7.0023709908127785" lat="46.17543392814696">
        <ele>1093.4000244140625</ele>
        <time>2013-07-30T15:59:06.000Z</time>
      </trkpt>
      <trkpt lon="7.002167981117964" lat="46.17547793313861">
        <ele>1090.5999755859375</ele>
        <time>2013-07-30T15:59:13.000Z</time>
      </trkpt>
      <trkpt lon="7.001937981694937" lat="46.17551598697901">
        <ele>1088.5999755859375</ele>
        <time>2013-07-30T15:59:21.000Z</time>
      </trkpt>
      <trkpt lon="7.001695996150374" lat="46.17552394978702">
        <ele>1089.5999755859375</ele>
        <time>2013-07-30T15:59:27.000Z</time>
      </trkpt>
      <trkpt lon="7.00145392678678" lat="46.175492936745286">
        <ele>1095.199951171875</ele>
        <time>2013-07-30T15:59:35.000Z</time>
      </trkpt>
      <trkpt lon="7.001267932355404" lat="46.175485979765654">
        <ele>1097.5999755859375</ele>
        <time>2013-07-30T15:59:42.000Z</time>
      </trkpt>
      <trkpt lon="7.001031981781125" lat="46.17547692731023">
        <ele>1100.800048828125</ele>
        <time>2013-07-30T15:59:49.000Z</time>
      </trkpt>
      <trkpt lon="7.000846993178129" lat="46.17547298781574">
        <ele>1103.0</ele>
        <time>2013-07-30T15:59:56.000Z</time>
      </trkpt>
      <trkpt lon="7.000680947676301" lat="46.17547298781574">
        <ele>1104.5999755859375</ele>
        <time>2013-07-30T16:00:02.000Z</time>
      </trkpt>
      <trkpt lon="7.000482967123389" lat="46.17547298781574">
        <ele>1106.800048828125</ele>
        <time>2013-07-30T16:00:09.000Z</time>
      </trkpt>
      <trkpt lon="7.000310970470309" lat="46.17547298781574">
        <ele>1108.5999755859375</ele>
        <time>2013-07-30T16:00:16.000Z</time>
      </trkpt>
      <trkpt lon="7.000281969085336" lat="46.17547298781574">
        <ele>1108.800048828125</ele>
        <time>2013-07-30T16:00:17.000Z</time>
      </trkpt>
      <trkpt lon="7.000109972432256" lat="46.17547793313861">
        <ele>1110.199951171875</ele>
        <time>2013-07-30T16:00:23.000Z</time>
      </trkpt>
      <trkpt lon="6.9999489560723305" lat="46.17548296228051">
        <ele>1110.800048828125</ele>
        <time>2013-07-30T16:00:29.000Z</time>
      </trkpt>
      <trkpt lon="6.999814929440618" lat="46.175486985594034">
        <ele>1110.4000244140625</ele>
        <time>2013-07-30T16:00:35.000Z</time>
      </trkpt>
      <trkpt lon="6.999680986627936" lat="46.175490925088525">
        <ele>1110.199951171875</ele>
        <time>2013-07-30T16:00:40.000Z</time>
      </trkpt>
      <trkpt lon="6.999642932787538" lat="46.175492936745286">
        <ele>1110.0</ele>
        <time>2013-07-30T16:00:41.000Z</time>
      </trkpt>
      <trkpt lon="6.999444952234626" lat="46.17550098337233">
        <ele>1108.5999755859375</ele>
        <time>2013-07-30T16:00:47.000Z</time>
      </trkpt>
      <trkpt lon="6.9992259331047535" lat="46.175510957837105">
        <ele>1107.5999755859375</ele>
        <time>2013-07-30T16:00:55.000Z</time>
      </trkpt>
      <trkpt lon="6.999201960861683" lat="46.175512969493866">
        <ele>1107.4000244140625</ele>
        <time>2013-07-30T16:00:56.000Z</time>
      </trkpt>
      <trkpt lon="6.998902978375554" lat="46.17549997754395">
        <ele>1106.800048828125</ele>
        <time>2013-07-30T16:01:05.000Z</time>
      </trkpt>
      <trkpt lon="6.998691922053695" lat="46.17547994479537">
        <ele>1107.5999755859375</ele>
        <time>2013-07-30T16:01:11.000Z</time>
      </trkpt>
      <trkpt lon="6.998493941500783" lat="46.17545798420906">
        <ele>1108.5999755859375</ele>
        <time>2013-07-30T16:01:17.000Z</time>
      </trkpt>
      <trkpt lon="6.998338960111141" lat="46.17543099448085">
        <ele>1110.4000244140625</ele>
        <time>2013-07-30T16:01:21.000Z</time>
      </trkpt>
      <trkpt lon="6.998129999265075" lat="46.17538992315531">
        <ele>1111.0</ele>
        <time>2013-07-30T16:01:27.000Z</time>
      </trkpt>
      <trkpt lon="6.99797292239964" lat="46.1753869894892">
        <ele>1108.4000244140625</ele>
        <time>2013-07-30T16:01:34.000Z</time>
      </trkpt>
      <trkpt lon="6.997802937403321" lat="46.1753869894892">
        <ele>1105.199951171875</ele>
        <time>2013-07-30T16:01:41.000Z</time>
      </trkpt>
      <trkpt lon="6.9975819904357195" lat="46.1753869894892">
        <ele>1101.199951171875</ele>
        <time>2013-07-30T16:01:49.000Z</time>
      </trkpt>
      <trkpt lon="6.997375963255763" lat="46.17537491954863">
        <ele>1098.0</ele>
        <time>2013-07-30T16:01:56.000Z</time>
      </trkpt>
      <trkpt lon="6.997209917753935" lat="46.1753539647907">
        <ele>1096.4000244140625</ele>
        <time>2013-07-30T16:02:02.000Z</time>
      </trkpt>
      <trkpt lon="6.99693993665278" lat="46.175296967849135">
        <ele>1097.5999755859375</ele>
        <time>2013-07-30T16:02:12.000Z</time>
      </trkpt>
      <trkpt lon="6.996697951108217" lat="46.17521993815899">
        <ele>1103.5999755859375</ele>
        <time>2013-07-30T16:02:20.000Z</time>
      </trkpt>
      <trkpt lon="6.996475998312235" lat="46.17512698285282">
        <ele>1110.5999755859375</ele>
        <time>2013-07-30T16:02:29.000Z</time>
      </trkpt>
      <trkpt lon="6.996248932555318" lat="46.17500393651426">
        <ele>1121.199951171875</ele>
        <time>2013-07-30T16:02:38.000Z</time>
      </trkpt>
      <trkpt lon="6.996047934517264" lat="46.17491492070258">
        <ele>1124.199951171875</ele>
        <time>2013-07-30T16:02:47.000Z</time>
      </trkpt>
      <trkpt lon="6.99593092314899" lat="46.17489396594465">
        <ele>1122.5999755859375</ele>
        <time>2013-07-30T16:02:53.000Z</time>
      </trkpt>
      <trkpt lon="6.995803937315941" lat="46.17489396594465">
        <ele>1118.199951171875</ele>
        <time>2013-07-30T16:02:58.000Z</time>
      </trkpt>
      <trkpt lon="6.995532950386405" lat="46.174820959568024">
        <ele>1118.4000244140625</ele>
        <time>2013-07-30T16:03:05.000Z</time>
      </trkpt>
      <trkpt lon="6.995350979268551" lat="46.174715934321284">
        <ele>1124.800048828125</ele>
        <time>2013-07-30T16:03:12.000Z</time>
      </trkpt>
      <trkpt lon="6.995155932381749" lat="46.1746269185096">
        <ele>1128.800048828125</ele>
        <time>2013-07-30T16:03:19.000Z</time>
      </trkpt>
      <trkpt lon="6.99494194239378" lat="46.174544943496585">
        <ele>1131.4000244140625</ele>
        <time>2013-07-30T16:03:27.000Z</time>
      </trkpt>
      <trkpt lon="6.994782937690616" lat="46.174483923241496">
        <ele>1133.0</ele>
        <time>2013-07-30T16:03:33.000Z</time>
      </trkpt>
      <trkpt lon="6.994606917724013" lat="46.174413934350014">
        <ele>1134.800048828125</ele>
        <time>2013-07-30T16:03:40.000Z</time>
      </trkpt>
      <trkpt lon="6.9944469910115" lat="46.174330953508615">
        <ele>1138.4000244140625</ele>
        <time>2013-07-30T16:03:45.000Z</time>
      </trkpt>
      <trkpt lon="6.99427792802453" lat="46.174242943525314">
        <ele>1141.800048828125</ele>
        <time>2013-07-30T16:03:51.000Z</time>
      </trkpt>
      <trkpt lon="6.994133926928043" lat="46.17416691966355">
        <ele>1145.199951171875</ele>
        <time>2013-07-30T16:03:56.000Z</time>
      </trkpt>
      <trkpt lon="6.994005935266614" lat="46.17413096129894">
        <ele>1145.800048828125</ele>
        <time>2013-07-30T16:04:01.000Z</time>
      </trkpt>
      <trkpt lon="6.993794962763786" lat="46.174073964357376">
        <ele>1146.199951171875</ele>
        <time>2013-07-30T16:04:09.000Z</time>
      </trkpt>
      <trkpt lon="6.993668982759118" lat="46.17403892800212">
        <ele>1146.5999755859375</ele>
        <time>2013-07-30T16:04:14.000Z</time>
      </trkpt>
      <trkpt lon="6.993551971390843" lat="46.174007998779416">
        <ele>1146.5999755859375</ele>
        <time>2013-07-30T16:04:19.000Z</time>
      </trkpt>
      <trkpt lon="6.993341920897365" lat="46.1739519238472">
        <ele>1146.4000244140625</ele>
        <time>2013-07-30T16:04:26.000Z</time>
      </trkpt>
      <trkpt lon="6.99315894395113" lat="46.17390297353268">
        <ele>1147.5999755859375</ele>
        <time>2013-07-30T16:04:33.000Z</time>
      </trkpt>
      <trkpt lon="6.993126925081015" lat="46.17389392107725">
        <ele>1148.0</ele>
        <time>2013-07-30T16:04:35.000Z</time>
      </trkpt>
      <trkpt lon="6.9931169506162405" lat="46.17389199323952">
        <ele>1148.0</ele>
        <time>2013-07-30T16:04:37.000Z</time>
      </trkpt>
      <trkpt lon="6.992940930649638" lat="46.17384497076273">
        <ele>1148.800048828125</ele>
        <time>2013-07-30T16:04:43.000Z</time>
      </trkpt>
      <trkpt lon="6.992730963975191" lat="46.173788979649544">
        <ele>1149.5999755859375</ele>
        <time>2013-07-30T16:04:51.000Z</time>
      </trkpt>
      <trkpt lon="6.992604983970523" lat="46.173752937465906">
        <ele>1150.0</ele>
        <time>2013-07-30T16:04:56.000Z</time>
      </trkpt>
      <trkpt lon="6.992506999522448" lat="46.17372393608093">
        <ele>1150.4000244140625</ele>
        <time>2013-07-30T16:05:02.000Z</time>
      </trkpt>
      <trkpt lon="6.992354951798916" lat="46.1736789252609">
        <ele>1149.4000244140625</ele>
        <time>2013-07-30T16:05:09.000Z</time>
      </trkpt>
      <trkpt lon="6.992203993722796" lat="46.17362595163286">
        <ele>1149.0</ele>
        <time>2013-07-30T16:05:16.000Z</time>
      </trkpt>
      <trkpt lon="6.992067955434322" lat="46.173573983833194">
        <ele>1149.199951171875</ele>
        <time>2013-07-30T16:05:22.000Z</time>
      </trkpt>
      <trkpt lon="6.992030991241336" lat="46.173555962741375">
        <ele>1149.5999755859375</ele>
        <time>2013-07-30T16:05:24.000Z</time>
      </trkpt>
      <trkpt lon="6.991866957396269" lat="46.17347398772836">
        <ele>1151.4000244140625</ele>
        <time>2013-07-30T16:05:32.000Z</time>
      </trkpt>
      <trkpt lon="6.991697978228331" lat="46.17339796386659">
        <ele>1152.800048828125</ele>
        <time>2013-07-30T16:05:39.000Z</time>
      </trkpt>
      <trkpt lon="6.991458926349878" lat="46.17330299690366">
        <ele>1155.5999755859375</ele>
        <time>2013-07-30T16:05:47.000Z</time>
      </trkpt>
      <trkpt lon="6.991330934688449" lat="46.17326393723488">
        <ele>1156.4000244140625</ele>
        <time>2013-07-30T16:05:52.000Z</time>
      </trkpt>
      <trkpt lon="6.991138989105821" lat="46.17320492863655">
        <ele>1157.0</ele>
        <time>2013-07-30T16:05:58.000Z</time>
      </trkpt>
      <trkpt lon="6.99098895303905" lat="46.17315899580717">
        <ele>1157.0</ele>
        <time>2013-07-30T16:06:04.000Z</time>
      </trkpt>
      <trkpt lon="6.990787955000997" lat="46.17307391948998">
        <ele>1158.4000244140625</ele>
        <time>2013-07-30T16:06:13.000Z</time>
      </trkpt>
      <trkpt lon="6.990612940862775" lat="46.17299093864858">
        <ele>1159.800048828125</ele>
        <time>2013-07-30T16:06:20.000Z</time>
      </trkpt>
      <trkpt lon="6.990339942276478" lat="46.1728879250586">
        <ele>1159.4000244140625</ele>
        <time>2013-07-30T16:06:30.000Z</time>
      </trkpt>
      <trkpt lon="6.990087982267141" lat="46.17281097918749">
        <ele>1157.4000244140625</ele>
        <time>2013-07-30T16:06:39.000Z</time>
      </trkpt>
      <trkpt lon="6.989832920953631" lat="46.17273193784058">
        <ele>1156.5999755859375</ele>
        <time>2013-07-30T16:06:48.000Z</time>
      </trkpt>
      <trkpt lon="6.989555982872844" lat="46.17262699641287">
        <ele>1157.5999755859375</ele>
        <time>2013-07-30T16:06:58.000Z</time>
      </trkpt>
      <trkpt lon="6.9893469382077456" lat="46.172527922317386">
        <ele>1159.4000244140625</ele>
        <time>2013-07-30T16:07:07.000Z</time>
      </trkpt>
      <trkpt lon="6.989150969311595" lat="46.17243295535445">
        <ele>1161.5999755859375</ele>
        <time>2013-07-30T16:07:14.000Z</time>
      </trkpt>
      <trkpt lon="6.988936979323626" lat="46.17232893593609">
        <ele>1164.199951171875</ele>
        <time>2013-07-30T16:07:22.000Z</time>
      </trkpt>
      <trkpt lon="6.988748973235488" lat="46.17224092595279">
        <ele>1165.800048828125</ele>
        <time>2013-07-30T16:07:30.000Z</time>
      </trkpt>
      <trkpt lon="6.9885349832475185" lat="46.17214797064662">
        <ele>1166.5999755859375</ele>
        <time>2013-07-30T16:07:39.000Z</time>
      </trkpt>
      <trkpt lon="6.988305989652872" lat="46.17206297814846">
        <ele>1166.5999755859375</ele>
        <time>2013-07-30T16:07:47.000Z</time>
      </trkpt>
      <trkpt lon="6.988083953037858" lat="46.171967927366495">
        <ele>1168.0</ele>
        <time>2013-07-30T16:07:56.000Z</time>
      </trkpt>
      <trkpt lon="6.987918997183442" lat="46.17188595235348">
        <ele>1169.199951171875</ele>
        <time>2013-07-30T16:08:03.000Z</time>
      </trkpt>
      <trkpt lon="6.987716993317008" lat="46.17178495042026">
        <ele>1170.0</ele>
        <time>2013-07-30T16:08:11.000Z</time>
      </trkpt>
      <trkpt lon="6.98755195364356" lat="46.171685960143805">
        <ele>1171.0</ele>
        <time>2013-07-30T16:08:18.000Z</time>
      </trkpt>
      <trkpt lon="6.98735891841352" lat="46.17159199900925">
        <ele>1173.0</ele>
        <time>2013-07-30T16:08:26.000Z</time>
      </trkpt>
      <trkpt lon="6.987133948132396" lat="46.17152494378388">
        <ele>1173.4000244140625</ele>
        <time>2013-07-30T16:08:34.000Z</time>
      </trkpt>
      <trkpt lon="6.986896991729736" lat="46.17146291770041">
        <ele>1173.4000244140625</ele>
        <time>2013-07-30T16:08:42.000Z</time>
      </trkpt>
      <trkpt lon="6.986662968993187" lat="46.17137096822262">
        <ele>1174.800048828125</ele>
        <time>2013-07-30T16:08:51.000Z</time>
      </trkpt>
      <trkpt lon="6.986532965674996" lat="46.17129494436085">
        <ele>1175.800048828125</ele>
        <time>2013-07-30T16:08:57.000Z</time>
      </trkpt>
      <trkpt lon="6.986381923779845" lat="46.1711819563061">
        <ele>1178.199951171875</ele>
        <time>2013-07-30T16:09:05.000Z</time>
      </trkpt>
      <trkpt lon="6.986334985122085" lat="46.17115798406303">
        <ele>1178.199951171875</ele>
        <time>2013-07-30T16:09:10.000Z</time>
      </trkpt>
      <trkpt lon="6.986334985122085" lat="46.17115798406303">
        <ele>1178.199951171875</ele>
        <time>2013-07-30T16:09:11.000Z</time>
      </trkpt>
      <trkpt lon="6.986334985122085" lat="46.17115798406303">
        <ele>1178.199951171875</ele>
        <time>2013-07-30T16:09:22.000Z</time>
      </trkpt>
      <trkpt lon="6.986334985122085" lat="46.17115798406303">
        <ele>1178.199951171875</ele>
        <time>2013-07-30T16:09:30.000Z</time>
      </trkpt>
      <trkpt lon="6.986334985122085" lat="46.17115798406303">
        <ele>1178.199951171875</ele>
        <time>2013-07-30T16:09:39.000Z</time>
      </trkpt>
      <trkpt lon="6.986124934628606" lat="46.171063939109445">
        <ele>1178.199951171875</ele>
        <time>2013-07-30T16:09:45.000Z</time>
      </trkpt>
      <trkpt lon="6.985927959904075" lat="46.170957991853356">
        <ele>1179.0</ele>
        <time>2013-07-30T16:09:53.000Z</time>
      </trkpt>
      <trkpt lon="6.985734924674034" lat="46.170828994363546">
        <ele>1181.5999755859375</ele>
        <time>2013-07-30T16:10:02.000Z</time>
      </trkpt>
      <trkpt lon="6.985599976032972" lat="46.17073193192482">
        <ele>1185.199951171875</ele>
        <time>2013-07-30T16:10:11.000Z</time>
      </trkpt>
      <trkpt lon="6.985494950786233" lat="46.17064794525504">
        <ele>1188.199951171875</ele>
        <time>2013-07-30T16:10:18.000Z</time>
      </trkpt>
      <trkpt lon="6.98527492582798" lat="46.170504949986935">
        <ele>1192.800048828125</ele>
        <time>2013-07-30T16:10:27.000Z</time>
      </trkpt>
      <trkpt lon="6.985046938061714" lat="46.17043194361031">
        <ele>1192.800048828125</ele>
        <time>2013-07-30T16:10:35.000Z</time>
      </trkpt>
      <trkpt lon="6.984853986650705" lat="46.1703859269619">
        <ele>1194.199951171875</ele>
        <time>2013-07-30T16:10:42.000Z</time>
      </trkpt>
      <trkpt lon="6.98482196778059" lat="46.170377964153886">
        <ele>1194.4000244140625</ele>
        <time>2013-07-30T16:10:43.000Z</time>
      </trkpt>
      <trkpt lon="6.9845859333872795" lat="46.170351980254054">
        <ele>1195.0</ele>
        <time>2013-07-30T16:10:47.000Z</time>
      </trkpt>
      <trkpt lon="6.984493983909488" lat="46.17034493945539">
        <ele>1195.0</ele>
        <time>2013-07-30T16:10:53.000Z</time>
      </trkpt>
      <trkpt lon="6.984493983909488" lat="46.17034493945539">
        <ele>1195.0</ele>
        <time>2013-07-30T16:11:06.000Z</time>
      </trkpt>
      <trkpt lon="6.984521979466081" lat="46.17034695111215">
        <ele>1195.0</ele>
        <time>2013-07-30T16:11:40.000Z</time>
      </trkpt>
      <trkpt lon="6.9844569358974695" lat="46.170399924740195">
        <ele>1192.4000244140625</ele>
        <time>2013-07-30T16:12:42.000Z</time>
      </trkpt>
      <trkpt lon="6.984366998076439" lat="46.17057695053518">
        <ele>1184.5999755859375</ele>
        <time>2013-07-30T16:12:51.000Z</time>
      </trkpt>
      <trkpt lon="6.984288962557912" lat="46.17072497494519">
        <ele>1178.5999755859375</ele>
        <time>2013-07-30T16:12:58.000Z</time>
      </trkpt>
      <trkpt lon="6.984201958402991" lat="46.170847937464714">
        <ele>1174.199951171875</ele>
        <time>2013-07-30T16:13:04.000Z</time>
      </trkpt>
      <trkpt lon="6.983975982293487" lat="46.170867970213294">
        <ele>1178.199951171875</ele>
        <time>2013-07-30T16:13:09.000Z</time>
      </trkpt>
      <trkpt lon="6.983688985928893" lat="46.17085992358625">
        <ele>1185.4000244140625</ele>
        <time>2013-07-30T16:13:15.000Z</time>
      </trkpt>
      <trkpt lon="6.983416993170977" lat="46.17088699713349">
        <ele>1191.0</ele>
        <time>2013-07-30T16:13:21.000Z</time>
      </trkpt>
      <trkpt lon="6.98318992741406" lat="46.170891942456365">
        <ele>1195.0</ele>
        <time>2013-07-30T16:13:26.000Z</time>
      </trkpt>
      <trkpt lon="6.983055984601378" lat="46.17085992358625">
        <ele>1197.800048828125</ele>
        <time>2013-07-30T16:13:31.000Z</time>
      </trkpt>
      <trkpt lon="6.983055984601378" lat="46.17085992358625">
        <ele>1197.800048828125</ele>
        <time>2013-07-30T16:13:33.000Z</time>
      </trkpt>
      <trkpt lon="6.983055984601378" lat="46.17085992358625">
        <ele>1197.800048828125</ele>
        <time>2013-07-30T16:14:02.000Z</time>
      </trkpt>
      <trkpt lon="6.982723977416754" lat="46.170979952439666">
        <ele>1199.800048828125</ele>
        <time>2013-07-30T16:14:07.000Z</time>
      </trkpt>
      <trkpt lon="6.982686929404736" lat="46.171000991016626">
        <ele>1200.0</ele>
        <time>2013-07-30T16:14:08.000Z</time>
      </trkpt>
      <trkpt lon="6.982634961605072" lat="46.17103594355285">
        <ele>1200.4000244140625</ele>
        <time>2013-07-30T16:14:12.000Z</time>
      </trkpt>
      <trkpt lon="6.98258894495666" lat="46.17107097990811">
        <ele>1200.5999755859375</ele>
        <time>2013-07-30T16:14:48.000Z</time>
      </trkpt>
      <trkpt lon="6.982540916651487" lat="46.171106938272715">
        <ele>1200.800048828125</ele>
        <time>2013-07-30T16:14:54.000Z</time>
      </trkpt>
      <trkpt lon="6.9825049582868814" lat="46.171132922172546">
        <ele>1201.199951171875</ele>
        <time>2013-07-30T16:15:00.000Z</time>
      </trkpt>
      <trkpt lon="6.9825049582868814" lat="46.171132922172546">
        <ele>1201.199951171875</ele>
        <time>2013-07-30T16:16:14.000Z</time>
      </trkpt>
      <trkpt lon="6.9825049582868814" lat="46.171132922172546">
        <ele>1201.199951171875</ele>
        <time>2013-07-30T16:16:22.000Z</time>
      </trkpt>
      <trkpt lon="6.983055984601378" lat="46.17085992358625">
        <ele>1197.800048828125</ele>
        <time>2013-07-30T16:16:40.000Z</time>
      </trkpt>
      <trkpt lon="6.983055984601378" lat="46.17085992358625">
        <ele>1197.800048828125</ele>
        <time>2013-07-30T16:16:48.000Z</time>
      </trkpt>
      <trkpt lon="6.983055984601378" lat="46.17085992358625">
        <ele>1197.800048828125</ele>
        <time>2013-07-30T16:16:49.000Z</time>
      </trkpt>
      <trkpt lon="6.982358945533633" lat="46.171297961845994">
        <ele>1201.800048828125</ele>
        <time>2013-07-30T16:16:56.000Z</time>
      </trkpt>
      <trkpt lon="6.982321981340647" lat="46.17135697044432">
        <ele>1202.199951171875</ele>
        <time>2013-07-30T16:17:04.000Z</time>
      </trkpt>
      <trkpt lon="6.982308989390731" lat="46.17138094268739">
        <ele>1202.199951171875</ele>
        <time>2013-07-30T16:17:08.000Z</time>
      </trkpt>
      <trkpt lon="6.982282921671867" lat="46.171426959335804">
        <ele>1202.5999755859375</ele>
        <time>2013-07-30T16:17:13.000Z</time>
      </trkpt>
      <trkpt lon="6.982240928336978" lat="46.17154698818922">
        <ele>1203.0</ele>
        <time>2013-07-30T16:17:20.000Z</time>
      </trkpt>
      <trkpt lon="6.982240928336978" lat="46.17154698818922">
        <ele>1203.0</ele>
        <time>2013-07-30T16:17:25.000Z</time>
      </trkpt>
      <trkpt lon="6.982316952198744" lat="46.171751925721765">
        <ele>1202.199951171875</ele>
        <time>2013-07-30T16:17:31.000Z</time>
      </trkpt>
      <trkpt lon="6.982470927760005" lat="46.17185594514012">
        <ele>1199.800048828125</ele>
        <time>2013-07-30T16:17:36.000Z</time>
      </trkpt>
      <trkpt lon="6.982677960768342" lat="46.17200195789337">
        <ele>1197.0</ele>
        <time>2013-07-30T16:17:40.000Z</time>
      </trkpt>
      <trkpt lon="6.9828589260578156" lat="46.17210798896849">
        <ele>1193.4000244140625</ele>
        <time>2013-07-30T16:17:43.000Z</time>
      </trkpt>
      <trkpt lon="6.982977949082851" lat="46.1723009403795">
        <ele>1194.199951171875</ele>
        <time>2013-07-30T16:17:48.000Z</time>
      </trkpt>
      <trkpt lon="6.983211971819401" lat="46.172415940091014">
        <ele>1187.800048828125</ele>
        <time>2013-07-30T16:17:51.000Z</time>
      </trkpt>
      <trkpt lon="6.983291935175657" lat="46.1724909581244">
        <ele>1186.4000244140625</ele>
        <time>2013-07-30T16:17:54.000Z</time>
      </trkpt>
      <trkpt lon="6.98329696431756" lat="46.17251392453909">
        <ele>1187.0</ele>
        <time>2013-07-30T16:17:55.000Z</time>
      </trkpt>
      <trkpt lon="6.983304927125573" lat="46.172632947564125">
        <ele>1191.0</ele>
        <time>2013-07-30T16:17:58.000Z</time>
      </trkpt>
      <trkpt lon="6.982690952718258" lat="46.17294098250568">
        <ele>1229.199951171875</ele>
        <time>2013-07-30T16:18:01.000Z</time>
      </trkpt>
      <trkpt lon="6.982690952718258" lat="46.17294098250568">
        <ele>1229.199951171875</ele>
        <time>2013-07-30T16:18:40.000Z</time>
      </trkpt>
      <trkpt lon="6.983329989016056" lat="46.17275892756879">
        <ele>1194.5999755859375</ele>
        <time>2013-07-30T16:18:45.000Z</time>
      </trkpt>
      <trkpt lon="6.983451945707202" lat="46.172928996384144">
        <ele>1194.199951171875</ele>
        <time>2013-07-30T16:18:49.000Z</time>
      </trkpt>
      <trkpt lon="6.983493939042091" lat="46.17297995835543">
        <ele>1193.5999755859375</ele>
        <time>2013-07-30T16:18:50.000Z</time>
      </trkpt>
      <trkpt lon="6.983823934569955" lat="46.173339961096644">
        <ele>1188.5999755859375</ele>
        <time>2013-07-30T16:18:55.000Z</time>
      </trkpt>
      <trkpt lon="6.983908927068114" lat="46.1734199244529">
        <ele>1187.4000244140625</ele>
        <time>2013-07-30T16:18:56.000Z</time>
      </trkpt>
      <trkpt lon="6.984109925106168" lat="46.17355294525623">
        <ele>1182.0</ele>
        <time>2013-07-30T16:18:58.000Z</time>
      </trkpt>
      <trkpt lon="6.98439197614789" lat="46.17384195327759">
        <ele>1181.0</ele>
        <time>2013-07-30T16:19:02.000Z</time>
      </trkpt>
      <trkpt lon="6.984517956152558" lat="46.174090979620814">
        <ele>1186.5999755859375</ele>
        <time>2013-07-30T16:19:05.000Z</time>
      </trkpt>
      <trkpt lon="6.984832948073745" lat="46.1742109246552">
        <ele>1176.800048828125</ele>
        <time>2013-07-30T16:19:08.000Z</time>
      </trkpt>
      <trkpt lon="6.985039981082082" lat="46.17427697405219">
        <ele>1170.5999755859375</ele>
        <time>2013-07-30T16:19:10.000Z</time>
      </trkpt>
      <trkpt lon="6.985344998538494" lat="46.17440798319876">
        <ele>1168.199951171875</ele>
        <time>2013-07-30T16:19:13.000Z</time>
      </trkpt>
      <trkpt lon="6.985679939389229" lat="46.17467092350125">
        <ele>1168.0</ele>
        <time>2013-07-30T16:19:17.000Z</time>
      </trkpt>
      <trkpt lon="6.985927959904075" lat="46.175166964530945">
        <ele>1171.0</ele>
        <time>2013-07-30T16:19:22.000Z</time>
      </trkpt>
      <trkpt lon="6.985981939360499" lat="46.175273917615414">
        <ele>1170.0</ele>
        <time>2013-07-30T16:19:23.000Z</time>
      </trkpt>
      <trkpt lon="6.986121917143464" lat="46.17547692731023">
        <ele>1166.5999755859375</ele>
        <time>2013-07-30T16:19:25.000Z</time>
      </trkpt>
      <trkpt lon="6.986447973176837" lat="46.17589392699301">
        <ele>1160.0</ele>
        <time>2013-07-30T16:19:30.000Z</time>
      </trkpt>
      <trkpt lon="6.986833959817886" lat="46.17637395858765">
        <ele>1163.4000244140625</ele>
        <time>2013-07-30T16:19:37.000Z</time>
      </trkpt>
      <trkpt lon="6.986893974244595" lat="46.1764229927212">
        <ele>1162.800048828125</ele>
        <time>2013-07-30T16:19:38.000Z</time>
      </trkpt>
      <trkpt lon="6.987277949228883" lat="46.17661896161735">
        <ele>1153.4000244140625</ele>
        <time>2013-07-30T16:19:43.000Z</time>
      </trkpt>
      <trkpt lon="6.987580955028534" lat="46.17674393579364">
        <ele>1145.199951171875</ele>
        <time>2013-07-30T16:19:46.000Z</time>
      </trkpt>
      <trkpt lon="6.987622948363423" lat="46.17705398239195">
        <ele>1158.5999755859375</ele>
        <time>2013-07-30T16:19:50.000Z</time>
      </trkpt>
      <trkpt lon="6.987841967493296" lat="46.17720393463969">
        <ele>1154.800048828125</ele>
        <time>2013-07-30T16:19:54.000Z</time>
      </trkpt>
      <trkpt lon="6.988060986623168" lat="46.177337961271405">
        <ele>1149.199951171875</ele>
        <time>2013-07-30T16:19:57.000Z</time>
      </trkpt>
      <trkpt lon="6.988121923059225" lat="46.177444998174906">
        <ele>1150.4000244140625</ele>
        <time>2013-07-30T16:19:59.000Z</time>
      </trkpt>
      <trkpt lon="6.988162994384766" lat="46.17758799344301">
        <ele>1155.5999755859375</ele>
        <time>2013-07-30T16:20:01.000Z</time>
      </trkpt>
      <trkpt lon="6.988451918587089" lat="46.177831990644336">
        <ele>1156.5999755859375</ele>
        <time>2013-07-30T16:20:05.000Z</time>
      </trkpt>
      <trkpt lon="6.988930944353342" lat="46.178006920963526">
        <ele>1148.4000244140625</ele>
        <time>2013-07-30T16:20:10.000Z</time>
      </trkpt>
      <trkpt lon="6.989070922136307" lat="46.17822392843664">
        <ele>1154.199951171875</ele>
        <time>2013-07-30T16:20:13.000Z</time>
      </trkpt>
      <trkpt lon="6.989337969571352" lat="46.178367929533124">
        <ele>1155.5999755859375</ele>
        <time>2013-07-30T16:20:16.000Z</time>
      </trkpt>
      <trkpt lon="6.989436959847808" lat="46.178369941189885">
        <ele>1154.0</ele>
        <time>2013-07-30T16:20:17.000Z</time>
      </trkpt>
      <trkpt lon="6.990086976438761" lat="46.17844898253679">
        <ele>1147.800048828125</ele>
        <time>2013-07-30T16:20:22.000Z</time>
      </trkpt>
      <trkpt lon="6.990914940834045" lat="46.17863799445331">
        <ele>1147.199951171875</ele>
        <time>2013-07-30T16:20:28.000Z</time>
      </trkpt>
      <trkpt lon="6.991053996607661" lat="46.17867596447468">
        <ele>1149.199951171875</ele>
        <time>2013-07-30T16:20:29.000Z</time>
      </trkpt>
      <trkpt lon="6.9912809785455465" lat="46.17876095697284">
        <ele>1150.4000244140625</ele>
        <time>2013-07-30T16:20:31.000Z</time>
      </trkpt>
      <trkpt lon="6.991565963253379" lat="46.17906496860087">
        <ele>1139.5999755859375</ele>
        <time>2013-07-30T16:20:35.000Z</time>
      </trkpt>
      <trkpt lon="6.991574931889772" lat="46.179101932793856">
        <ele>1138.0</ele>
        <time>2013-07-30T16:20:36.000Z</time>
      </trkpt>
      <trkpt lon="6.991787999868393" lat="46.17954097688198">
        <ele>1133.199951171875</ele>
        <time>2013-07-30T16:20:41.000Z</time>
      </trkpt>
      <trkpt lon="6.991813983768225" lat="46.179704926908016">
        <ele>1135.0</ele>
        <time>2013-07-30T16:20:44.000Z</time>
      </trkpt>
      <trkpt lon="6.991806942969561" lat="46.179723953828216">
        <ele>1135.4000244140625</ele>
        <time>2013-07-30T16:20:45.000Z</time>
      </trkpt>
      <trkpt lon="6.991635952144861" lat="46.179808946326375">
        <ele>1142.800048828125</ele>
        <time>2013-07-30T16:20:47.000Z</time>
      </trkpt>
      <trkpt lon="6.991434954106808" lat="46.179958982393146">
        <ele>1156.0</ele>
        <time>2013-07-30T16:20:50.000Z</time>
      </trkpt>
      <trkpt lon="6.991463955491781" lat="46.18017699569464">
        <ele>1163.0</ele>
        <time>2013-07-30T16:20:53.000Z</time>
      </trkpt>
      <trkpt lon="6.991386925801635" lat="46.180517971515656">
        <ele>1180.0</ele>
        <time>2013-07-30T16:20:58.000Z</time>
      </trkpt>
      <trkpt lon="6.991499997675419" lat="46.18072693236172">
        <ele>1187.0</ele>
        <time>2013-07-30T16:21:01.000Z</time>
      </trkpt>
      <trkpt lon="6.991706946864724" lat="46.180750988423824">
        <ele>1185.199951171875</ele>
        <time>2013-07-30T16:21:03.000Z</time>
      </trkpt>
      <trkpt lon="6.991900987923145" lat="46.180622996762395">
        <ele>1172.4000244140625</ele>
        <time>2013-07-30T16:21:06.000Z</time>
      </trkpt>
      <trkpt lon="6.992238946259022" lat="46.18045996874571">
        <ele>1153.800048828125</ele>
        <time>2013-07-30T16:21:10.000Z</time>
      </trkpt>
      <trkpt lon="6.992518985643983" lat="46.180406995117664">
        <ele>1143.0</ele>
        <time>2013-07-30T16:21:14.000Z</time>
      </trkpt>
      <trkpt lon="6.9928159564733505" lat="46.18040397763252">
        <ele>1137.0</ele>
        <time>2013-07-30T16:21:20.000Z</time>
      </trkpt>
      <trkpt lon="6.992874965071678" lat="46.18041998706758">
        <ele>1137.0</ele>
        <time>2013-07-30T16:21:21.000Z</time>
      </trkpt>
      <trkpt lon="6.993104964494705" lat="46.180516965687275">
        <ele>1138.5999755859375</ele>
        <time>2013-07-30T16:21:25.000Z</time>
      </trkpt>
      <trkpt lon="6.993371928110719" lat="46.18047698400915">
        <ele>1131.0</ele>
        <time>2013-07-30T16:21:28.000Z</time>
      </trkpt>
      <trkpt lon="6.993590947240591" lat="46.180408922955394">
        <ele>1121.5999755859375</ele>
        <time>2013-07-30T16:21:31.000Z</time>
      </trkpt>
      <trkpt lon="6.994031919166446" lat="46.18046692572534">
        <ele>1116.199951171875</ele>
        <time>2013-07-30T16:21:36.000Z</time>
      </trkpt>
      <trkpt lon="6.9942269660532475" lat="46.18055099621415">
        <ele>1117.5999755859375</ele>
        <time>2013-07-30T16:21:38.000Z</time>
      </trkpt>
      <trkpt lon="6.994593925774097" lat="46.18072693236172">
        <ele>1117.4000244140625</ele>
        <time>2013-07-30T16:21:42.000Z</time>
      </trkpt>
      <trkpt lon="6.99477095156908" lat="46.180815948173404">
        <ele>1117.199951171875</ele>
        <time>2013-07-30T16:21:44.000Z</time>
      </trkpt>
      <trkpt lon="6.9949529226869345" lat="46.18089297786355">
        <ele>1115.0</ele>
        <time>2013-07-30T16:21:46.000Z</time>
      </trkpt>
      <trkpt lon="6.99526397511363" lat="46.18099699728191">
        <ele>1112.800048828125</ele>
        <time>2013-07-30T16:21:49.000Z</time>
      </trkpt>
      <trkpt lon="6.995552983134985" lat="46.181099927052855">
        <ele>1110.0</ele>
        <time>2013-07-30T16:21:52.000Z</time>
      </trkpt>
      <trkpt lon="6.995729925110936" lat="46.18124099448323">
        <ele>1110.4000244140625</ele>
        <time>2013-07-30T16:21:55.000Z</time>
      </trkpt>
      <trkpt lon="6.995923966169357" lat="46.18153494782746">
        <ele>1114.4000244140625</ele>
        <time>2013-07-30T16:22:00.000Z</time>
      </trkpt>
      <trkpt lon="6.996323950588703" lat="46.181934932246804">
        <ele>1115.199951171875</ele>
        <time>2013-07-30T16:22:07.000Z</time>
      </trkpt>
      <trkpt lon="6.99657398276031" lat="46.18220692500472">
        <ele>1114.800048828125</ele>
        <time>2013-07-30T16:22:12.000Z</time>
      </trkpt>
      <trkpt lon="6.996807921677828" lat="46.18257296271622">
        <ele>1118.199951171875</ele>
        <time>2013-07-30T16:22:19.000Z</time>
      </trkpt>
      <trkpt lon="6.996848993003368" lat="46.18261395022273">
        <ele>1118.4000244140625</ele>
        <time>2013-07-30T16:22:20.000Z</time>
      </trkpt>
      <trkpt lon="6.997019983828068" lat="46.182705983519554">
        <ele>1116.5999755859375</ele>
        <time>2013-07-30T16:22:24.000Z</time>
      </trkpt>
      <trkpt lon="6.997382920235395" lat="46.18287295103073">
        <ele>1111.800048828125</ele>
        <time>2013-07-30T16:22:31.000Z</time>
      </trkpt>
      <trkpt lon="6.997804949060082" lat="46.18312398903072">
        <ele>1108.800048828125</ele>
        <time>2013-07-30T16:22:40.000Z</time>
      </trkpt>
      <trkpt lon="6.998149948194623" lat="46.18338491767645">
        <ele>1110.0</ele>
        <time>2013-07-30T16:22:49.000Z</time>
      </trkpt>
      <trkpt lon="6.998400986194611" lat="46.18360796011984">
        <ele>1112.4000244140625</ele>
        <time>2013-07-30T16:22:56.000Z</time>
      </trkpt>
      <trkpt lon="6.998591925948858" lat="46.18379898369312">
        <ele>1113.800048828125</ele>
        <time>2013-07-30T16:23:02.000Z</time>
      </trkpt>
      <trkpt lon="6.998468963429332" lat="46.184062929823995">
        <ele>1130.0</ele>
        <time>2013-07-30T16:23:07.000Z</time>
      </trkpt>
      <trkpt lon="6.998569965362549" lat="46.18416393175721">
        <ele>1129.800048828125</ele>
        <time>2013-07-30T16:23:13.000Z</time>
      </trkpt>
      <trkpt lon="6.998879928141832" lat="46.184395942837">
        <ele>1123.0</ele>
        <time>2013-07-30T16:23:19.000Z</time>
      </trkpt>
      <trkpt lon="6.998921921476722" lat="46.1844339966774">
        <ele>1122.199951171875</ele>
        <time>2013-07-30T16:23:20.000Z</time>
      </trkpt>
      <trkpt lon="6.999125936999917" lat="46.18463893420994">
        <ele>1118.199951171875</ele>
        <time>2013-07-30T16:23:25.000Z</time>
      </trkpt>
      <trkpt lon="6.999253928661346" lat="46.1848259344697">
        <ele>1120.4000244140625</ele>
        <time>2013-07-30T16:23:29.000Z</time>
      </trkpt>
      <trkpt lon="6.999386949464679" lat="46.18499591946602">
        <ele>1123.0</ele>
        <time>2013-07-30T16:23:34.000Z</time>
      </trkpt>
      <trkpt lon="6.999479988589883" lat="46.185115948319435">
        <ele>1123.199951171875</ele>
        <time>2013-07-30T16:23:40.000Z</time>
      </trkpt>
      <trkpt lon="6.999565986916423" lat="46.18523798882961">
        <ele>1123.4000244140625</ele>
        <time>2013-07-30T16:23:48.000Z</time>
      </trkpt>
      <trkpt lon="6.999576967209578" lat="46.185307977721095">
        <ele>1124.199951171875</ele>
        <time>2013-07-30T16:23:53.000Z</time>
      </trkpt>
      <trkpt lon="6.999552994966507" lat="46.18539095856249">
        <ele>1125.800048828125</ele>
        <time>2013-07-30T16:24:00.000Z</time>
      </trkpt>
      <trkpt lon="6.999548971652985" lat="46.18540495634079">
        <ele>1126.0</ele>
        <time>2013-07-30T16:24:02.000Z</time>
      </trkpt>
      <trkpt lon="6.999525921419263" lat="46.18548994883895">
        <ele>1127.5999755859375</ele>
        <time>2013-07-30T16:24:48.000Z</time>
      </trkpt>
      <trkpt lon="6.999520976096392" lat="46.18550998158753">
        <ele>1127.800048828125</ele>
        <time>2013-07-30T16:24:50.000Z</time>
      </trkpt>
      <trkpt lon="6.9994989316910505" lat="46.18559698574245">
        <ele>1129.4000244140625</ele>
        <time>2013-07-30T16:24:57.000Z</time>
      </trkpt>
      <trkpt lon="6.9994559325277805" lat="46.18568298406899">
        <ele>1131.0</ele>
        <time>2013-07-30T16:25:04.000Z</time>
      </trkpt>
      <trkpt lon="6.999419974163175" lat="46.1857739277184">
        <ele>1132.800048828125</ele>
        <time>2013-07-30T16:25:11.000Z</time>
      </trkpt>
      <trkpt lon="6.999399941414595" lat="46.18587099015713">
        <ele>1134.0</ele>
        <time>2013-07-30T16:25:18.000Z</time>
      </trkpt>
      <trkpt lon="6.999393990263343" lat="46.1858999915421">
        <ele>1134.199951171875</ele>
        <time>2013-07-30T16:25:21.000Z</time>
      </trkpt>
      <trkpt lon="6.999429948627949" lat="46.18598992936313">
        <ele>1134.199951171875</ele>
        <time>2013-07-30T16:25:25.000Z</time>
      </trkpt>
      <trkpt lon="6.999445958063006" lat="46.18600593879819">
        <ele>1134.0</ele>
        <time>2013-07-30T16:25:28.000Z</time>
      </trkpt>
      <trkpt lon="6.999462973326445" lat="46.18600099347532">
        <ele>1133.800048828125</ele>
        <time>2013-07-30T16:25:37.000Z</time>
      </trkpt>
      <trkpt lon="6.999428942799568" lat="46.186020942404866">
        <ele>1134.4000244140625</ele>
        <time>2013-07-30T16:25:43.000Z</time>
      </trkpt>
      <trkpt lon="6.999428942799568" lat="46.186020942404866">
        <ele>1134.4000244140625</ele>
        <time>2013-07-30T16:27:14.000Z</time>
      </trkpt>
      <trkpt lon="6.999428942799568" lat="46.186020942404866">
        <ele>1134.4000244140625</ele>
        <time>2013-07-30T16:27:15.000Z</time>
      </trkpt>
      <trkpt lon="6.999442940577865" lat="46.18601297959685">
        <ele>1134.199951171875</ele>
        <time>2013-07-30T16:33:02.000Z</time>
      </trkpt>
      <trkpt lon="6.999442940577865" lat="46.18601297959685">
        <ele>1134.199951171875</ele>
        <time>2013-07-30T16:33:08.000Z</time>
      </trkpt>
      <trkpt lon="6.999442940577865" lat="46.18601297959685">
        <ele>1134.199951171875</ele>
        <time>2013-07-30T16:33:09.000Z</time>
      </trkpt>
      <trkpt lon="6.999343950301409" lat="46.18606897071004">
        <ele>1135.800048828125</ele>
        <time>2013-07-30T16:33:18.000Z</time>
      </trkpt>
      <trkpt lon="6.999203972518444" lat="46.18622093461454">
        <ele>1138.5999755859375</ele>
        <time>2013-07-30T16:33:27.000Z</time>
      </trkpt>
      <trkpt lon="6.999134989455342" lat="46.18634699843824">
        <ele>1141.199951171875</ele>
        <time>2013-07-30T16:33:35.000Z</time>
      </trkpt>
      <trkpt lon="6.99906793422997" lat="46.186488987877965">
        <ele>1144.199951171875</ele>
        <time>2013-07-30T16:33:44.000Z</time>
      </trkpt>
      <trkpt lon="6.999029964208603" lat="46.18660398758948">
        <ele>1146.0</ele>
        <time>2013-07-30T16:33:52.000Z</time>
      </trkpt>
      <trkpt lon="6.9989879708737135" lat="46.18674195371568">
        <ele>1148.199951171875</ele>
        <time>2013-07-30T16:34:01.000Z</time>
      </trkpt>
      <trkpt lon="6.998961986973882" lat="46.186855947598815">
        <ele>1149.800048828125</ele>
        <time>2013-07-30T16:34:09.000Z</time>
      </trkpt>
      <trkpt lon="6.998937930911779" lat="46.186961978673935">
        <ele>1151.4000244140625</ele>
        <time>2013-07-30T16:34:17.000Z</time>
      </trkpt>
      <trkpt lon="6.99889593757689" lat="46.18706499226391">
        <ele>1153.5999755859375</ele>
        <time>2013-07-30T16:34:25.000Z</time>
      </trkpt>
      <trkpt lon="6.998854950070381" lat="46.18716993369162">
        <ele>1156.0</ele>
        <time>2013-07-30T16:34:33.000Z</time>
      </trkpt>
      <trkpt lon="6.998818991705775" lat="46.18727998808026">
        <ele>1158.4000244140625</ele>
        <time>2013-07-30T16:34:42.000Z</time>
      </trkpt>
      <trkpt lon="6.998774986714125" lat="46.18738895282149">
        <ele>1161.199951171875</ele>
        <time>2013-07-30T16:34:49.000Z</time>
      </trkpt>
      <trkpt lon="6.998725952580571" lat="46.187500935047865">
        <ele>1164.4000244140625</ele>
        <time>2013-07-30T16:34:53.000Z</time>
      </trkpt>
      <trkpt lon="6.998710948973894" lat="46.18753597140312">
        <ele>1164.4000244140625</ele>
        <time>2013-07-30T16:34:54.000Z</time>
      </trkpt>
      <trkpt lon="6.998825948685408" lat="46.187820956110954">
        <ele>1154.0</ele>
        <time>2013-07-30T16:34:58.000Z</time>
      </trkpt>
      <trkpt lon="6.998771969228983" lat="46.18815992027521">
        <ele>1150.4000244140625</ele>
        <time>2013-07-30T16:35:03.000Z</time>
      </trkpt>
      <trkpt lon="6.998739950358868" lat="46.188276931643486">
        <ele>1150.0</ele>
        <time>2013-07-30T16:35:07.000Z</time>
      </trkpt>
      <trkpt lon="6.998668955639005" lat="46.18845596909523">
        <ele>1151.4000244140625</ele>
        <time>2013-07-30T16:35:16.000Z</time>
      </trkpt>
      <trkpt lon="6.998586980625987" lat="46.188619919121265">
        <ele>1154.199951171875</ele>
        <time>2013-07-30T16:35:25.000Z</time>
      </trkpt>
      <trkpt lon="6.998481955379248" lat="46.188785964623094">
        <ele>1157.800048828125</ele>
        <time>2013-07-30T16:35:34.000Z</time>
      </trkpt>
      <trkpt lon="6.998419929295778" lat="46.18886299431324">
        <ele>1160.0</ele>
        <time>2013-07-30T16:35:40.000Z</time>
      </trkpt>
      <trkpt lon="6.998419929295778" lat="46.18886299431324">
        <ele>1160.0</ele>
        <time>2013-07-30T16:35:41.000Z</time>
      </trkpt>
      <trkpt lon="6.998372990638018" lat="46.18892099708319">
        <ele>1161.5999755859375</ele>
        <time>2013-07-30T16:36:33.000Z</time>
      </trkpt>
      <trkpt lon="6.998254973441362" lat="46.18904898874462">
        <ele>1166.199951171875</ele>
        <time>2013-07-30T16:36:39.000Z</time>
      </trkpt>
      <trkpt lon="6.998149948194623" lat="46.189193995669484">
        <ele>1169.5999755859375</ele>
        <time>2013-07-30T16:36:44.000Z</time>
      </trkpt>
      <trkpt lon="6.998096974566579" lat="46.189308995381">
        <ele>1169.199951171875</ele>
        <time>2013-07-30T16:36:49.000Z</time>
      </trkpt>
      <trkpt lon="6.998028997331858" lat="46.18944394402206">
        <ele>1168.800048828125</ele>
        <time>2013-07-30T16:36:54.000Z</time>
      </trkpt>
      <trkpt lon="6.99792992323637" lat="46.18961392901838">
        <ele>1169.199951171875</ele>
        <time>2013-07-30T16:37:00.000Z</time>
      </trkpt>
      <trkpt lon="6.997829927131534" lat="46.18970696814358">
        <ele>1171.5999755859375</ele>
        <time>2013-07-30T16:37:05.000Z</time>
      </trkpt>
      <trkpt lon="6.997707970440388" lat="46.18984795175493">
        <ele>1173.800048828125</ele>
        <time>2013-07-30T16:37:11.000Z</time>
      </trkpt>
      <trkpt lon="6.9976399932056665" lat="46.189951971173286">
        <ele>1174.199951171875</ele>
        <time>2013-07-30T16:37:16.000Z</time>
      </trkpt>
      <trkpt lon="6.9975699204951525" lat="46.190058924257755">
        <ele>1174.800048828125</ele>
        <time>2013-07-30T16:37:22.000Z</time>
      </trkpt>
      <trkpt lon="6.9974839221686125" lat="46.19019093923271">
        <ele>1176.0</ele>
        <time>2013-07-30T16:37:28.000Z</time>
      </trkpt>
      <trkpt lon="6.997424997389317" lat="46.1902879178524">
        <ele>1177.4000244140625</ele>
        <time>2013-07-30T16:37:32.000Z</time>
      </trkpt>
      <trkpt lon="6.9973549246788025" lat="46.19041498750448">
        <ele>1178.4000244140625</ele>
        <time>2013-07-30T16:37:40.000Z</time>
      </trkpt>
      <trkpt lon="6.9972609635442495" lat="46.19058296084404">
        <ele>1179.0</ele>
        <time>2013-07-30T16:37:48.000Z</time>
      </trkpt>
      <trkpt lon="6.997215952724218" lat="46.19064196944237">
        <ele>1179.5999755859375</ele>
        <time>2013-07-30T16:37:54.000Z</time>
      </trkpt>
      <trkpt lon="6.997084943577647" lat="46.19079393334687">
        <ele>1181.800048828125</ele>
        <time>2013-07-30T16:38:01.000Z</time>
      </trkpt>
      <trkpt lon="6.997067928314209" lat="46.19083693251014">
        <ele>1181.199951171875</ele>
        <time>2013-07-30T16:38:06.000Z</time>
      </trkpt>
      <trkpt lon="6.997033981606364" lat="46.190870963037014">
        <ele>1182.199951171875</ele>
        <time>2013-07-30T16:38:12.000Z</time>
      </trkpt>
      <trkpt lon="6.99691797606647" lat="46.19098696857691">
        <ele>1185.5999755859375</ele>
        <time>2013-07-30T16:38:19.000Z</time>
      </trkpt>
      <trkpt lon="6.996826948598027" lat="46.19107799604535">
        <ele>1188.199951171875</ele>
        <time>2013-07-30T16:38:24.000Z</time>
      </trkpt>
      <trkpt lon="6.99674497358501" lat="46.191155947744846">
        <ele>1190.800048828125</ele>
        <time>2013-07-30T16:38:31.000Z</time>
      </trkpt>
      <trkpt lon="6.996647994965315" lat="46.191235994920135">
        <ele>1194.4000244140625</ele>
        <time>2013-07-30T16:38:39.000Z</time>
      </trkpt>
      <trkpt lon="6.996593931689858" lat="46.191279999911785">
        <ele>1196.4000244140625</ele>
        <time>2013-07-30T16:38:44.000Z</time>
      </trkpt>
      <trkpt lon="6.99651095084846" lat="46.191347977146506">
        <ele>1199.199951171875</ele>
        <time>2013-07-30T16:38:51.000Z</time>
      </trkpt>
      <trkpt lon="6.99651095084846" lat="46.191347977146506">
        <ele>1199.199951171875</ele>
        <time>2013-07-30T16:38:56.000Z</time>
      </trkpt>
      <trkpt lon="6.99651095084846" lat="46.191347977146506">
        <ele>1199.199951171875</ele>
        <time>2013-07-30T16:39:00.000Z</time>
      </trkpt>
      <trkpt lon="6.996419923380017" lat="46.19142391718924">
        <ele>1202.0</ele>
        <time>2013-07-30T16:39:07.000Z</time>
      </trkpt>
      <trkpt lon="6.996419923380017" lat="46.19142391718924">
        <ele>1202.0</ele>
        <time>2013-07-30T16:39:09.000Z</time>
      </trkpt>
      <trkpt lon="6.996355969458818" lat="46.191499941051006">
        <ele>1203.199951171875</ele>
        <time>2013-07-30T16:39:17.000Z</time>
      </trkpt>
      <trkpt lon="6.996355969458818" lat="46.191499941051006">
        <ele>1203.199951171875</ele>
        <time>2013-07-30T16:39:19.000Z</time>
      </trkpt>
      <trkpt lon="6.9963079411536455" lat="46.191565990448">
        <ele>1203.5999755859375</ele>
        <time>2013-07-30T16:39:25.000Z</time>
      </trkpt>
      <trkpt lon="6.9963079411536455" lat="46.191565990448">
        <ele>1203.5999755859375</ele>
        <time>2013-07-30T16:39:28.000Z</time>
      </trkpt>
      <trkpt lon="6.996194953098893" lat="46.19172398932278">
        <ele>1204.0</ele>
        <time>2013-07-30T16:39:37.000Z</time>
      </trkpt>
      <trkpt lon="6.996164945885539" lat="46.19176598265767">
        <ele>1204.199951171875</ele>
        <time>2013-07-30T16:39:40.000Z</time>
      </trkpt>
      <trkpt lon="6.9961409736424685" lat="46.191799929365516">
        <ele>1204.199951171875</ele>
        <time>2013-07-30T16:39:46.000Z</time>
      </trkpt>
      <trkpt lon="6.996095962822437" lat="46.1918559204787">
        <ele>1204.5999755859375</ele>
        <time>2013-07-30T16:39:53.000Z</time>
      </trkpt>
      <trkpt lon="6.996095962822437" lat="46.1918559204787">
        <ele>1204.5999755859375</ele>
        <time>2013-07-30T16:39:58.000Z</time>
      </trkpt>
      <trkpt lon="6.996095962822437" lat="46.1918559204787">
        <ele>1204.5999755859375</ele>
        <time>2013-07-30T16:40:03.000Z</time>
      </trkpt>
      <trkpt lon="6.996095962822437" lat="46.1918559204787">
        <ele>1204.5999755859375</ele>
        <time>2013-07-30T16:40:11.000Z</time>
      </trkpt>
      <trkpt lon="6.996095962822437" lat="46.1918559204787">
        <ele>1204.5999755859375</ele>
        <time>2013-07-30T16:40:17.000Z</time>
      </trkpt>
      <trkpt lon="6.996095962822437" lat="46.1918559204787">
        <ele>1204.5999755859375</ele>
        <time>2013-07-30T16:40:20.000Z</time>
      </trkpt>
      <trkpt lon="6.996095962822437" lat="46.1918559204787">
        <ele>1204.5999755859375</ele>
        <time>2013-07-30T16:40:29.000Z</time>
      </trkpt>
      <trkpt lon="6.996095962822437" lat="46.1918559204787">
        <ele>1204.5999755859375</ele>
        <time>2013-07-30T16:40:31.000Z</time>
      </trkpt>
      <trkpt lon="6.996095962822437" lat="46.1918559204787">
        <ele>1204.5999755859375</ele>
        <time>2013-07-30T16:40:38.000Z</time>
      </trkpt>
      <trkpt lon="6.996095962822437" lat="46.1918559204787">
        <ele>1204.5999755859375</ele>
        <time>2013-07-30T16:40:43.000Z</time>
      </trkpt>
      <trkpt lon="6.995721962302923" lat="46.19231499731541">
        <ele>1210.5999755859375</ele>
        <time>2013-07-30T16:40:47.000Z</time>
      </trkpt>
      <trkpt lon="6.995652979239821" lat="46.192387919873">
        <ele>1212.800048828125</ele>
        <time>2013-07-30T16:40:54.000Z</time>
      </trkpt>
      <trkpt lon="6.995652979239821" lat="46.192387919873">
        <ele>1212.800048828125</ele>
        <time>2013-07-30T16:40:59.000Z</time>
      </trkpt>
      <trkpt lon="6.995548959821463" lat="46.19249797426164">
        <ele>1216.0</ele>
        <time>2013-07-30T16:41:05.000Z</time>
      </trkpt>
      <trkpt lon="6.995525993406773" lat="46.19252295233309">
        <ele>1216.5999755859375</ele>
        <time>2013-07-30T16:41:08.000Z</time>
      </trkpt>
      <trkpt lon="6.995489951223135" lat="46.19256092235446">
        <ele>1217.199951171875</ele>
        <time>2013-07-30T16:41:13.000Z</time>
      </trkpt>
      <trkpt lon="6.995489951223135" lat="46.19256092235446">
        <ele>1217.199951171875</ele>
        <time>2013-07-30T16:41:14.000Z</time>
      </trkpt>
      <trkpt lon="6.995423985645175" lat="46.192630995064974">
        <ele>1218.4000244140625</ele>
        <time>2013-07-30T16:41:21.000Z</time>
      </trkpt>
      <trkpt lon="6.995360953733325" lat="46.19269394315779">
        <ele>1219.5999755859375</ele>
        <time>2013-07-30T16:41:27.000Z</time>
      </trkpt>
      <trkpt lon="6.9953089859336615" lat="46.19274599477649">
        <ele>1220.4000244140625</ele>
        <time>2013-07-30T16:41:33.000Z</time>
      </trkpt>
      <trkpt lon="6.995295993983746" lat="46.1927589867264">
        <ele>1220.5999755859375</ele>
        <time>2013-07-30T16:41:37.000Z</time>
      </trkpt>
      <trkpt lon="6.995261963456869" lat="46.19279293343425">
        <ele>1221.199951171875</ele>
        <time>2013-07-30T16:41:40.000Z</time>
      </trkpt>
      <trkpt lon="6.995148975402117" lat="46.19287893176079">
        <ele>1223.800048828125</ele>
        <time>2013-07-30T16:41:47.000Z</time>
      </trkpt>
      <trkpt lon="6.995064988732338" lat="46.19293995201588">
        <ele>1225.5999755859375</ele>
        <time>2013-07-30T16:41:53.000Z</time>
      </trkpt>
      <trkpt lon="6.994947977364063" lat="46.19302595034242">
        <ele>1227.800048828125</ele>
        <time>2013-07-30T16:42:01.000Z</time>
      </trkpt>
      <trkpt lon="6.994902966544032" lat="46.19305897504091">
        <ele>1228.4000244140625</ele>
        <time>2013-07-30T16:42:05.000Z</time>
      </trkpt>
      <trkpt lon="6.994872959330678" lat="46.19308093562722">
        <ele>1229.0</ele>
        <time>2013-07-30T16:42:10.000Z</time>
      </trkpt>
      <trkpt lon="6.994822919368744" lat="46.19311798363924">
        <ele>1229.800048828125</ele>
        <time>2013-07-30T16:42:19.000Z</time>
      </trkpt>
      <trkpt lon="6.994754942134023" lat="46.19316793978214">
        <ele>1231.0</ele>
        <time>2013-07-30T16:42:23.000Z</time>
      </trkpt>
      <trkpt lon="6.99466198682785" lat="46.19324899278581">
        <ele>1232.4000244140625</ele>
        <time>2013-07-30T16:42:28.000Z</time>
      </trkpt>
      <trkpt lon="6.994601972401142" lat="46.193324932828546">
        <ele>1232.199951171875</ele>
        <time>2013-07-30T16:42:33.000Z</time>
      </trkpt>
      <trkpt lon="6.994589986279607" lat="46.19333893060684">
        <ele>1232.199951171875</ele>
        <time>2013-07-30T16:42:37.000Z</time>
      </trkpt>
      <trkpt lon="6.99453592300415" lat="46.193405985832214">
        <ele>1231.199951171875</ele>
        <time>2013-07-30T16:42:40.000Z</time>
      </trkpt>
      <trkpt lon="6.994441961869597" lat="46.19352299720049">
        <ele>1229.800048828125</ele>
        <time>2013-07-30T16:42:46.000Z</time>
      </trkpt>
      <trkpt lon="6.994441961869597" lat="46.19352299720049">
        <ele>1229.800048828125</ele>
        <time>2013-07-30T16:42:47.000Z</time>
      </trkpt>
      <trkpt lon="6.994377924129367" lat="46.19358695112169">
        <ele>1230.0</ele>
        <time>2013-07-30T16:42:52.000Z</time>
      </trkpt>
      <trkpt lon="6.994275916367769" lat="46.19368099607527">
        <ele>1231.199951171875</ele>
        <time>2013-07-30T16:42:59.000Z</time>
      </trkpt>
      <trkpt lon="6.994200982153416" lat="46.193750984966755">
        <ele>1232.199951171875</ele>
        <time>2013-07-30T16:43:06.000Z</time>
      </trkpt>
      <trkpt lon="6.994136944413185" lat="46.19381292723119">
        <ele>1232.5999755859375</ele>
        <time>2013-07-30T16:43:11.000Z</time>
      </trkpt>
      <trkpt lon="6.994136944413185" lat="46.19381292723119">
        <ele>1232.5999755859375</ele>
        <time>2013-07-30T16:43:13.000Z</time>
      </trkpt>
      <trkpt lon="6.994094951078296" lat="46.193861961364746">
        <ele>1232.199951171875</ele>
        <time>2013-07-30T16:43:15.000Z</time>
      </trkpt>
      <trkpt lon="6.9940549694001675" lat="46.19390898384154">
        <ele>1231.800048828125</ele>
        <time>2013-07-30T16:43:19.000Z</time>
      </trkpt>
      <trkpt lon="6.993987997993827" lat="46.19397595524788">
        <ele>1231.5999755859375</ele>
        <time>2013-07-30T16:43:26.000Z</time>
      </trkpt>
      <trkpt lon="6.993900993838906" lat="46.19404795579612">
        <ele>1232.0</ele>
        <time>2013-07-30T16:43:32.000Z</time>
      </trkpt>
      <trkpt lon="6.993888923898339" lat="46.19405893608928">
        <ele>1232.0</ele>
        <time>2013-07-30T16:43:39.000Z</time>
      </trkpt>
      <trkpt lon="6.99378096498549" lat="46.19414795190096">
        <ele>1232.4000244140625</ele>
        <time>2013-07-30T16:43:44.000Z</time>
      </trkpt>
      <trkpt lon="6.99365297332406" lat="46.19427292607725">
        <ele>1229.800048828125</ele>
        <time>2013-07-30T16:43:50.000Z</time>
      </trkpt>
      <trkpt lon="6.9935469422489405" lat="46.19442296214402">
        <ele>1224.0</ele>
        <time>2013-07-30T16:43:54.000Z</time>
      </trkpt>
      <trkpt lon="6.993521964177489" lat="46.19447492994368">
        <ele>1221.5999755859375</ele>
        <time>2013-07-30T16:43:55.000Z</time>
      </trkpt>
      <trkpt lon="6.993324989452958" lat="46.19471297599375">
        <ele>1215.199951171875</ele>
        <time>2013-07-30T16:44:00.000Z</time>
      </trkpt>
      <trkpt lon="6.993283918127418" lat="46.194739965721965">
        <ele>1215.0</ele>
        <time>2013-07-30T16:44:01.000Z</time>
      </trkpt>
      <trkpt lon="6.99279491789639" lat="46.194802997633815">
        <ele>1230.4000244140625</ele>
        <time>2013-07-30T16:44:06.000Z</time>
      </trkpt>
      <trkpt lon="6.992516973987222" lat="46.1949229426682">
        <ele>1234.0</ele>
        <time>2013-07-30T16:44:11.000Z</time>
      </trkpt>
      <trkpt lon="6.992443967610598" lat="46.194955967366695">
        <ele>1234.5999755859375</ele>
        <time>2013-07-30T16:44:14.000Z</time>
      </trkpt>
      <trkpt lon="6.992294937372208" lat="46.19502394460142">
        <ele>1235.199951171875</ele>
        <time>2013-07-30T16:44:26.000Z</time>
      </trkpt>
      <trkpt lon="6.992188990116119" lat="46.19507297873497">
        <ele>1235.5999755859375</ele>
        <time>2013-07-30T16:44:30.000Z</time>
      </trkpt>
      <trkpt lon="6.992050940170884" lat="46.19513894431293">
        <ele>1236.199951171875</ele>
        <time>2013-07-30T16:44:34.000Z</time>
      </trkpt>
      <trkpt lon="6.991876931861043" lat="46.19524598121643">
        <ele>1235.4000244140625</ele>
        <time>2013-07-30T16:44:37.000Z</time>
      </trkpt>
      <trkpt lon="6.991553977131844" lat="46.195488972589374">
        <ele>1232.4000244140625</ele>
        <time>2013-07-30T16:44:42.000Z</time>
      </trkpt>
      <trkpt lon="6.991333952173591" lat="46.19569592177868">
        <ele>1229.0</ele>
        <time>2013-07-30T16:44:46.000Z</time>
      </trkpt>
      <trkpt lon="6.991281984373927" lat="46.19579994119704">
        <ele>1224.5999755859375</ele>
        <time>2013-07-30T16:44:48.000Z</time>
      </trkpt>
      <trkpt lon="6.9911879394203424" lat="46.195902954787016">
        <ele>1223.800048828125</ele>
        <time>2013-07-30T16:44:50.000Z</time>
      </trkpt>
      <trkpt lon="6.991010997444391" lat="46.19603597559035">
        <ele>1226.0</ele>
        <time>2013-07-30T16:44:53.000Z</time>
      </trkpt>
      <trkpt lon="6.990918964147568" lat="46.19623093865812">
        <ele>1222.0</ele>
        <time>2013-07-30T16:44:56.000Z</time>
      </trkpt>
      <trkpt lon="6.990833971649408" lat="46.19638097472489">
        <ele>1219.5999755859375</ele>
        <time>2013-07-30T16:44:59.000Z</time>
      </trkpt>
      <trkpt lon="6.990661974996328" lat="46.196634946390986">
        <ele>1217.0</ele>
        <time>2013-07-30T16:45:04.000Z</time>
      </trkpt>
      <trkpt lon="6.990655940026045" lat="46.196694960817695">
        <ele>1214.4000244140625</ele>
        <time>2013-07-30T16:45:05.000Z</time>
      </trkpt>
      <trkpt lon="6.990638924762607" lat="46.19685497134924">
        <ele>1205.5999755859375</ele>
        <time>2013-07-30T16:45:09.000Z</time>
      </trkpt>
      <trkpt lon="6.990579999983311" lat="46.19699394330382">
        <ele>1199.800048828125</ele>
        <time>2013-07-30T16:45:13.000Z</time>
      </trkpt>
      <trkpt lon="6.9902499206364155" lat="46.19707692414522">
        <ele>1208.800048828125</ele>
        <time>2013-07-30T16:45:18.000Z</time>
      </trkpt>
      <trkpt lon="6.990102985873818" lat="46.19711992330849">
        <ele>1212.199951171875</ele>
        <time>2013-07-30T16:45:25.000Z</time>
      </trkpt>
      <trkpt lon="6.989973988384008" lat="46.19715797714889">
        <ele>1215.0</ele>
        <time>2013-07-30T16:45:31.000Z</time>
      </trkpt>
      <trkpt lon="6.9898049253970385" lat="46.19720793329179">
        <ele>1218.0</ele>
        <time>2013-07-30T16:45:37.000Z</time>
      </trkpt>
      <trkpt lon="6.989625971764326" lat="46.19726099073887">
        <ele>1221.0</ele>
        <time>2013-07-30T16:45:43.000Z</time>
      </trkpt>
      <trkpt lon="6.989451963454485" lat="46.19731497019529">
        <ele>1223.5999755859375</ele>
        <time>2013-07-30T16:45:48.000Z</time>
      </trkpt>
      <trkpt lon="6.989277955144644" lat="46.19737096130848">
        <ele>1226.0</ele>
        <time>2013-07-30T16:45:53.000Z</time>
      </trkpt>
      <trkpt lon="6.989054996520281" lat="46.19744195602834">
        <ele>1228.0</ele>
        <time>2013-07-30T16:45:59.000Z</time>
      </trkpt>
      <trkpt lon="6.988816950470209" lat="46.19756693020463">
        <ele>1224.199951171875</ele>
        <time>2013-07-30T16:46:06.000Z</time>
      </trkpt>
      <trkpt lon="6.988702956587076" lat="46.1976289562881">
        <ele>1221.5999755859375</ele>
        <time>2013-07-30T16:46:11.000Z</time>
      </trkpt>
      <trkpt lon="6.988530959933996" lat="46.19772098958492">
        <ele>1217.800048828125</ele>
        <time>2013-07-30T16:46:17.000Z</time>
      </trkpt>
      <trkpt lon="6.988337924703956" lat="46.197794917970896">
        <ele>1215.800048828125</ele>
        <time>2013-07-30T16:46:23.000Z</time>
      </trkpt>
      <trkpt lon="6.988222924992442" lat="46.19781092740595">
        <ele>1217.199951171875</ele>
        <time>2013-07-30T16:46:29.000Z</time>
      </trkpt>
      <trkpt lon="6.98817296884954" lat="46.19781092740595">
        <ele>1218.4000244140625</ele>
        <time>2013-07-30T16:46:35.000Z</time>
      </trkpt>
      <trkpt lon="6.98817296884954" lat="46.19781092740595">
        <ele>1218.4000244140625</ele>
        <time>2013-07-30T16:47:49.000Z</time>
      </trkpt>
      <trkpt lon="6.9878599885851145" lat="46.197857949882746">
        <ele>1222.0</ele>
        <time>2013-07-30T16:49:11.000Z</time>
      </trkpt>
      <trkpt lon="6.987648932263255" lat="46.19795995764434">
        <ele>1219.199951171875</ele>
        <time>2013-07-30T16:49:13.000Z</time>
      </trkpt>
      <trkpt lon="6.98729295283556" lat="46.19818794541061">
        <ele>1208.800048828125</ele>
        <time>2013-07-30T16:49:18.000Z</time>
      </trkpt>
      <trkpt lon="6.987019954249263" lat="46.19831694290042">
        <ele>1203.0</ele>
        <time>2013-07-30T16:49:22.000Z</time>
      </trkpt>
      <trkpt lon="6.986914929002523" lat="46.19833596982062">
        <ele>1203.0</ele>
        <time>2013-07-30T16:49:23.000Z</time>
      </trkpt>
      <trkpt lon="6.986371949315071" lat="46.19837796315551">
        <ele>1200.199951171875</ele>
        <time>2013-07-30T16:49:28.000Z</time>
      </trkpt>
      <trkpt lon="6.985915973782539" lat="46.19829297065735">
        <ele>1204.5999755859375</ele>
        <time>2013-07-30T16:49:33.000Z</time>
      </trkpt>
      <trkpt lon="6.985513977706432" lat="46.19823094457388">
        <ele>1204.0</ele>
        <time>2013-07-30T16:49:37.000Z</time>
      </trkpt>
      <trkpt lon="6.985363941639662" lat="46.19821795262396">
        <ele>1202.800048828125</ele>
        <time>2013-07-30T16:49:39.000Z</time>
      </trkpt>
      <trkpt lon="6.985243996605277" lat="46.19829598814249">
        <ele>1194.199951171875</ele>
        <time>2013-07-30T16:49:43.000Z</time>
      </trkpt>
      <trkpt lon="6.9853519555181265" lat="46.19838994927704">
        <ele>1187.199951171875</ele>
        <time>2013-07-30T16:49:46.000Z</time>
      </trkpt>
      <trkpt lon="6.985491933301091" lat="46.19851198978722">
        <ele>1177.4000244140625</ele>
        <time>2013-07-30T16:49:48.000Z</time>
      </trkpt>
      <trkpt lon="6.9857889879494905" lat="46.198691949248314">
        <ele>1163.4000244140625</ele>
        <time>2013-07-30T16:49:51.000Z</time>
      </trkpt>
      <trkpt lon="6.986057963222265" lat="46.19880694895983">
        <ele>1153.5999755859375</ele>
        <time>2013-07-30T16:49:54.000Z</time>
      </trkpt>
      <trkpt lon="6.986401956528425" lat="46.198843996971846">
        <ele>1152.199951171875</ele>
        <time>2013-07-30T16:49:58.000Z</time>
      </trkpt>
      <trkpt lon="6.986485943198204" lat="46.19885195977986">
        <ele>1152.0</ele>
        <time>2013-07-30T16:50:01.000Z</time>
      </trkpt>
      <trkpt lon="6.986565990373492" lat="46.19886092841625">
        <ele>1151.800048828125</ele>
        <time>2013-07-30T16:51:54.000Z</time>
      </trkpt>
      <trkpt lon="6.986759947612882" lat="46.19885397143662">
        <ele>1152.800048828125</ele>
        <time>2013-07-30T16:51:57.000Z</time>
      </trkpt>
      <trkpt lon="6.9871169328689575" lat="46.19883695617318">
        <ele>1153.4000244140625</ele>
        <time>2013-07-30T16:52:01.000Z</time>
      </trkpt>
      <trkpt lon="6.987525969743729" lat="46.19881893508136">
        <ele>1153.0</ele>
        <time>2013-07-30T16:52:05.000Z</time>
      </trkpt>
      <trkpt lon="6.9880779180675745" lat="46.198804937303066">
        <ele>1140.800048828125</ele>
        <time>2013-07-30T16:52:10.000Z</time>
      </trkpt>
      <trkpt lon="6.988467928022146" lat="46.19880594313145">
        <ele>1132.4000244140625</ele>
        <time>2013-07-30T16:52:15.000Z</time>
      </trkpt>
      <trkpt lon="6.988617964088917" lat="46.198823964223266">
        <ele>1128.5999755859375</ele>
        <time>2013-07-30T16:52:17.000Z</time>
      </trkpt>
      <trkpt lon="6.989017948508263" lat="46.19887299835682">
        <ele>1119.0</ele>
        <time>2013-07-30T16:52:22.000Z</time>
      </trkpt>
      <trkpt lon="6.989114927127957" lat="46.198884984478354">
        <ele>1116.5999755859375</ele>
        <time>2013-07-30T16:52:23.000Z</time>
      </trkpt>
      <trkpt lon="6.989640975371003" lat="46.198886996135116">
        <ele>1105.800048828125</ele>
        <time>2013-07-30T16:52:28.000Z</time>
      </trkpt>
      <trkpt lon="6.989735942333937" lat="46.19887894950807">
        <ele>1104.4000244140625</ele>
        <time>2013-07-30T16:52:29.000Z</time>
      </trkpt>
      <trkpt lon="6.99008597061038" lat="46.19881499558687">
        <ele>1101.0</ele>
        <time>2013-07-30T16:52:33.000Z</time>
      </trkpt>
      <trkpt lon="6.990173980593681" lat="46.19878498837352">
        <ele>1101.0</ele>
        <time>2013-07-30T16:52:34.000Z</time>
      </trkpt>
      <trkpt lon="6.990525936707854" lat="46.19866395369172">
        <ele>1099.800048828125</ele>
        <time>2013-07-30T16:52:38.000Z</time>
      </trkpt>
      <trkpt lon="6.990885939449072" lat="46.198519952595234">
        <ele>1097.800048828125</ele>
        <time>2013-07-30T16:52:43.000Z</time>
      </trkpt>
      <trkpt lon="6.990937991067767" lat="46.19851894676685">
        <ele>1096.0</ele>
        <time>2013-07-30T16:52:45.000Z</time>
      </trkpt>
      <trkpt lon="6.991656990721822" lat="46.198884984478354">
        <ele>1054.800048828125</ele>
        <time>2013-07-30T16:52:46.000Z</time>
      </trkpt>
      <trkpt lon="6.990787955000997" lat="46.19871994480491">
        <ele>1091.0</ele>
        <time>2013-07-30T16:52:51.000Z</time>
      </trkpt>
      <trkpt lon="6.990737998858094" lat="46.19877593591809">
        <ele>1089.199951171875</ele>
        <time>2013-07-30T16:52:52.000Z</time>
      </trkpt>
      <trkpt lon="6.990658957511187" lat="46.19885598309338">
        <ele>1086.800048828125</ele>
        <time>2013-07-30T16:52:57.000Z</time>
      </trkpt>
      <trkpt lon="6.99068795889616" lat="46.198995960876346">
        <ele>1079.0</ele>
        <time>2013-07-30T16:52:58.000Z</time>
      </trkpt>
      <trkpt lon="6.991078974679112" lat="46.19885598309338">
        <ele>1075.0</ele>
        <time>2013-07-30T16:53:04.000Z</time>
      </trkpt>
      <trkpt lon="6.991243930533528" lat="46.19879697449505">
        <ele>1072.199951171875</ele>
        <time>2013-07-30T16:53:08.000Z</time>
      </trkpt>
      <trkpt lon="6.9913519732654095" lat="46.198758920654655">
        <ele>1070.199951171875</ele>
        <time>2013-07-30T16:53:10.000Z</time>
      </trkpt>
      <trkpt lon="6.991669982671738" lat="46.19867694564164">
        <ele>1062.800048828125</ele>
        <time>2013-07-30T16:53:14.000Z</time>
      </trkpt>
      <trkpt lon="6.991841979324818" lat="46.19863696396351">
        <ele>1059.5999755859375</ele>
        <time>2013-07-30T16:53:16.000Z</time>
      </trkpt>
      <trkpt lon="6.991943987086415" lat="46.19861399754882">
        <ele>1057.5999755859375</ele>
        <time>2013-07-30T16:53:21.000Z</time>
      </trkpt>
      <trkpt lon="6.991790933534503" lat="46.198648950085044">
        <ele>1060.5999755859375</ele>
        <time>2013-07-30T16:53:26.000Z</time>
      </trkpt>
      <trkpt lon="6.991745922714472" lat="46.19880996644497">
        <ele>1055.4000244140625</ele>
        <time>2013-07-30T16:53:28.000Z</time>
      </trkpt>
      <trkpt lon="6.991486921906471" lat="46.19902999140322">
        <ele>1054.199951171875</ele>
        <time>2013-07-30T16:53:33.000Z</time>
      </trkpt>
      <trkpt lon="6.991371922194958" lat="46.19912998750806">
        <ele>1053.4000244140625</ele>
        <time>2013-07-30T16:53:35.000Z</time>
      </trkpt>
      <trkpt lon="6.991006974130869" lat="46.19932495057583">
        <ele>1054.5999755859375</ele>
        <time>2013-07-30T16:53:39.000Z</time>
      </trkpt>
      <trkpt lon="6.990799941122532" lat="46.19938798248768">
        <ele>1056.4000244140625</ele>
        <time>2013-07-30T16:53:41.000Z</time>
      </trkpt>
      <trkpt lon="6.9901639223098755" lat="46.19954799301922">
        <ele>1055.199951171875</ele>
        <time>2013-07-30T16:53:46.000Z</time>
      </trkpt>
      <trkpt lon="6.989889917895198" lat="46.1996269505471">
        <ele>1053.5999755859375</ele>
        <time>2013-07-30T16:53:48.000Z</time>
      </trkpt>
      <trkpt lon="6.989547936245799" lat="46.19975192472339">
        <ele>1049.5999755859375</ele>
        <time>2013-07-30T16:53:51.000Z</time>
      </trkpt>
      <trkpt lon="6.9893089681863785" lat="46.199832977727056">
        <ele>1046.199951171875</ele>
        <time>2013-07-30T16:53:55.000Z</time>
      </trkpt>
      <trkpt lon="6.989160943776369" lat="46.19990095496178">
        <ele>1042.5999755859375</ele>
        <time>2013-07-30T16:54:01.000Z</time>
      </trkpt>
      <trkpt lon="6.989126997068524" lat="46.199919981881976">
        <ele>1041.5999755859375</ele>
        <time>2013-07-30T16:54:03.000Z</time>
      </trkpt>
      <trkpt lon="6.989069916307926" lat="46.19995292276144">
        <ele>1039.5999755859375</ele>
        <time>2013-07-30T16:54:07.000Z</time>
      </trkpt>
      <trkpt lon="6.989063965156674" lat="46.19995594024658">
        <ele>1039.5999755859375</ele>
        <time>2013-07-30T16:54:11.000Z</time>
      </trkpt>
      <trkpt lon="6.988864978775382" lat="46.19988192804158">
        <ele>1047.5999755859375</ele>
        <time>2013-07-30T16:54:15.000Z</time>
      </trkpt>
      <trkpt lon="6.988685941323638" lat="46.19981596246362">
        <ele>1055.0</ele>
        <time>2013-07-30T16:54:19.000Z</time>
      </trkpt>
      <trkpt lon="6.988551998510957" lat="46.199766928330064">
        <ele>1060.4000244140625</ele>
        <time>2013-07-30T16:54:23.000Z</time>
      </trkpt>
      <trkpt lon="6.98836893774569" lat="46.199702974408865">
        <ele>1067.5999755859375</ele>
        <time>2013-07-30T16:54:28.000Z</time>
      </trkpt>
      <trkpt lon="6.988213956356049" lat="46.19964991696179">
        <ele>1070.800048828125</ele>
        <time>2013-07-30T16:54:33.000Z</time>
      </trkpt>
      <trkpt lon="6.988042965531349" lat="46.19959292002022">
        <ele>1074.4000244140625</ele>
        <time>2013-07-30T16:54:37.000Z</time>
      </trkpt>
      <trkpt lon="6.987861916422844" lat="46.19955696165562">
        <ele>1076.800048828125</ele>
        <time>2013-07-30T16:54:42.000Z</time>
      </trkpt>
      <trkpt lon="6.987712970003486" lat="46.19952695444226">
        <ele>1079.4000244140625</ele>
        <time>2013-07-30T16:54:46.000Z</time>
      </trkpt>
      <trkpt lon="6.987424967810512" lat="46.199505999684334">
        <ele>1081.0</ele>
        <time>2013-07-30T16:54:50.000Z</time>
      </trkpt>
      <trkpt lon="6.98727099224925" lat="46.199505999684334">
        <ele>1080.5999755859375</ele>
        <time>2013-07-30T16:54:53.000Z</time>
      </trkpt>
      <trkpt lon="6.987220952287316" lat="46.199528966099024">
        <ele>1077.5999755859375</ele>
        <time>2013-07-30T16:54:55.000Z</time>
      </trkpt>
      <trkpt lon="6.987075945362449" lat="46.19960892945528">
        <ele>1067.199951171875</ele>
        <time>2013-07-30T16:55:01.000Z</time>
      </trkpt>
      <trkpt lon="6.986996987834573" lat="46.19965293444693">
        <ele>1061.5999755859375</ele>
        <time>2013-07-30T16:55:04.000Z</time>
      </trkpt>
      <trkpt lon="6.986846951767802" lat="46.19972292333841">
        <ele>1052.5999755859375</ele>
        <time>2013-07-30T16:55:10.000Z</time>
      </trkpt>
      <trkpt lon="6.986731952056289" lat="46.19973197579384">
        <ele>1051.199951171875</ele>
        <time>2013-07-30T16:55:12.000Z</time>
      </trkpt>
      <trkpt lon="6.986592980101705" lat="46.199743961915374">
        <ele>1048.800048828125</ele>
        <time>2013-07-30T16:55:17.000Z</time>
      </trkpt>
      <trkpt lon="6.986393993720412" lat="46.19975997135043">
        <ele>1044.5999755859375</ele>
        <time>2013-07-30T16:55:23.000Z</time>
      </trkpt>
      <trkpt lon="6.986366920173168" lat="46.19976198300719">
        <ele>1044.199951171875</ele>
        <time>2013-07-30T16:55:24.000Z</time>
      </trkpt>
      <trkpt lon="6.9862699415534735" lat="46.199769945815206">
        <ele>1042.0</ele>
        <time>2013-07-30T16:55:30.000Z</time>
      </trkpt>
      <trkpt lon="6.9862699415534735" lat="46.199769945815206">
        <ele>1042.0</ele>
        <time>2013-07-30T16:55:32.000Z</time>
      </trkpt>
      <trkpt lon="6.98611194267869" lat="46.19978293776512">
        <ele>1038.800048828125</ele>
        <time>2013-07-30T16:55:43.000Z</time>
      </trkpt>
      <trkpt lon="6.986067937687039" lat="46.199786961078644">
        <ele>1037.800048828125</ele>
        <time>2013-07-30T16:55:49.000Z</time>
      </trkpt>
      <trkpt lon="6.986067937687039" lat="46.199786961078644">
        <ele>1037.800048828125</ele>
        <time>2013-07-30T16:55:54.000Z</time>
      </trkpt>
      <trkpt lon="6.986067937687039" lat="46.199786961078644">
        <ele>1037.800048828125</ele>
        <time>2013-07-30T16:55:59.000Z</time>
      </trkpt>
      <trkpt lon="6.985919997096062" lat="46.19979894720018">
        <ele>1034.5999755859375</ele>
        <time>2013-07-30T16:56:03.000Z</time>
      </trkpt>
      <trkpt lon="6.985808936879039" lat="46.199807999655604">
        <ele>1032.4000244140625</ele>
        <time>2013-07-30T16:56:07.000Z</time>
      </trkpt>
      <trkpt lon="6.985584972426295" lat="46.19982694275677">
        <ele>1028.199951171875</ele>
        <time>2013-07-30T16:56:13.000Z</time>
      </trkpt>
      <trkpt lon="6.985565945506096" lat="46.19982794858515">
        <ele>1028.0</ele>
        <time>2013-07-30T16:56:17.000Z</time>
      </trkpt>
      <trkpt lon="6.985522946342826" lat="46.199831971898675">
        <ele>1027.199951171875</ele>
        <time>2013-07-30T16:56:25.000Z</time>
      </trkpt>
      <trkpt lon="6.985522946342826" lat="46.199831971898675">
        <ele>1027.199951171875</ele>
        <time>2013-07-30T16:56:33.000Z</time>
      </trkpt>
      <trkpt lon="6.985467961058021" lat="46.1998359952122">
        <ele>1026.199951171875</ele>
        <time>2013-07-30T16:56:39.000Z</time>
      </trkpt>
      <trkpt lon="6.985467961058021" lat="46.1998359952122">
        <ele>1026.199951171875</ele>
        <time>2013-07-30T16:56:42.000Z</time>
      </trkpt>
      <trkpt lon="6.985330916941166" lat="46.19984697550535">
        <ele>1023.7999877929688</ele>
        <time>2013-07-30T16:56:47.000Z</time>
      </trkpt>
      <trkpt lon="6.985330916941166" lat="46.19984697550535">
        <ele>1023.7999877929688</ele>
        <time>2013-07-30T16:56:51.000Z</time>
      </trkpt>
      <trkpt lon="6.9852429907768965" lat="46.19986097328365">
        <ele>1021.4000244140625</ele>
        <time>2013-07-30T16:56:59.000Z</time>
      </trkpt>
      <trkpt lon="6.9852429907768965" lat="46.19986097328365">
        <ele>1021.4000244140625</ele>
        <time>2013-07-30T16:57:02.000Z</time>
      </trkpt>
      <trkpt lon="6.9852429907768965" lat="46.19986097328365">
        <ele>1021.4000244140625</ele>
        <time>2013-07-30T16:57:11.000Z</time>
      </trkpt>
      <trkpt lon="6.9852429907768965" lat="46.19986097328365">
        <ele>1021.4000244140625</ele>
        <time>2013-07-30T16:57:15.000Z</time>
      </trkpt>
      <trkpt lon="6.98488793335855" lat="46.19993498548865">
        <ele>1008.7999877929688</ele>
        <time>2013-07-30T16:57:21.000Z</time>
      </trkpt>
      <trkpt lon="6.984732951968908" lat="46.19996398687363">
        <ele>1003.0</ele>
        <time>2013-07-30T16:57:25.000Z</time>
      </trkpt>
      <trkpt lon="6.984666986390948" lat="46.19997194968164">
        <ele>1001.2000122070312</ele>
        <time>2013-07-30T16:57:27.000Z</time>
      </trkpt>
      <trkpt lon="6.984529942274094" lat="46.19993791915476">
        <ele>1004.0</ele>
        <time>2013-07-30T16:57:32.000Z</time>
      </trkpt>
      <trkpt lon="6.984529942274094" lat="46.19993791915476">
        <ele>1004.0</ele>
        <time>2013-07-30T16:57:33.000Z</time>
      </trkpt>
      <trkpt lon="6.984529942274094" lat="46.19993791915476">
        <ele>1004.0</ele>
        <time>2013-07-30T16:57:46.000Z</time>
      </trkpt>
      <trkpt lon="6.984478980302811" lat="46.199915958568454">
        <ele>1006.2000122070312</ele>
        <time>2013-07-30T16:57:48.000Z</time>
      </trkpt>
      <trkpt lon="6.984424917027354" lat="46.19990196079016">
        <ele>1007.4000244140625</ele>
        <time>2013-07-30T16:57:55.000Z</time>
      </trkpt>
      <trkpt lon="6.984424917027354" lat="46.19990196079016">
        <ele>1007.4000244140625</ele>
        <time>2013-07-30T16:58:01.000Z</time>
      </trkpt>
      <trkpt lon="6.984177986159921" lat="46.1998859513551">
        <ele>1006.5999755859375</ele>
        <time>2013-07-30T16:58:08.000Z</time>
      </trkpt>
      <trkpt lon="6.984063992276788" lat="46.199915958568454">
        <ele>1004.0</ele>
        <time>2013-07-30T16:58:15.000Z</time>
      </trkpt>
      <trkpt lon="6.9839649181813" lat="46.19995392858982">
        <ele>1000.5999755859375</ele>
        <time>2013-07-30T16:58:22.000Z</time>
      </trkpt>
      <trkpt lon="6.983888978138566" lat="46.19999097660184">
        <ele>997.0</ele>
        <time>2013-07-30T16:58:26.000Z</time>
      </trkpt>
      <trkpt lon="6.983762998133898" lat="46.20002995245159">
        <ele>996.2000122070312</ele>
        <time>2013-07-30T16:58:34.000Z</time>
      </trkpt>
      <trkpt lon="6.983719998970628" lat="46.20003598742187">
        <ele>996.5999755859375</ele>
        <time>2013-07-30T16:58:36.000Z</time>
      </trkpt>
      <trkpt lon="6.98359795846045" lat="46.200047973543406">
        <ele>998.2000122070312</ele>
        <time>2013-07-30T16:58:42.000Z</time>
      </trkpt>
      <trkpt lon="6.98342596180737" lat="46.20005995966494">
        <ele>1000.5999755859375</ele>
        <time>2013-07-30T16:58:49.000Z</time>
      </trkpt>
      <trkpt lon="6.983407940715551" lat="46.2000619713217">
        <ele>1000.7999877929688</ele>
        <time>2013-07-30T16:58:54.000Z</time>
      </trkpt>
      <trkpt lon="6.983312973752618" lat="46.20008192025125">
        <ele>1001.4000244140625</ele>
        <time>2013-07-30T16:58:59.000Z</time>
      </trkpt>
      <trkpt lon="6.983274919912219" lat="46.20009298436344">
        <ele>1001.4000244140625</ele>
        <time>2013-07-30T16:59:04.000Z</time>
      </trkpt>
      <trkpt lon="6.983217922970653" lat="46.200110921636224">
        <ele>1001.4000244140625</ele>
        <time>2013-07-30T16:59:08.000Z</time>
      </trkpt>
      <trkpt lon="6.983079956844449" lat="46.20016599074006">
        <ele>1000.7999877929688</ele>
        <time>2013-07-30T16:59:12.000Z</time>
      </trkpt>
      <trkpt lon="6.983010973781347" lat="46.20019298046827">
        <ele>1000.5999755859375</ele>
        <time>2013-07-30T16:59:16.000Z</time>
      </trkpt>
      <trkpt lon="6.982873929664493" lat="46.20024494826794">
        <ele>1000.2000122070312</ele>
        <time>2013-07-30T16:59:23.000Z</time>
      </trkpt>
      <trkpt lon="6.982873929664493" lat="46.20024494826794">
        <ele>1000.2000122070312</ele>
        <time>2013-07-30T16:59:24.000Z</time>
      </trkpt>
      <trkpt lon="6.982778962701559" lat="46.20027394965291">
        <ele>1000.4000244140625</ele>
        <time>2013-07-30T16:59:57.000Z</time>
      </trkpt>
      <trkpt lon="6.9827119912952185" lat="46.20029297657311">
        <ele>1000.5999755859375</ele>
        <time>2013-07-30T17:00:04.000Z</time>
      </trkpt>
      <trkpt lon="6.982667986303568" lat="46.200304962694645">
        <ele>1000.7999877929688</ele>
        <time>2013-07-30T17:00:07.000Z</time>
      </trkpt>
      <trkpt lon="6.982575953006744" lat="46.200324995443225">
        <ele>1001.5999755859375</ele>
        <time>2013-07-30T17:00:13.000Z</time>
      </trkpt>
      <trkpt lon="6.982546951621771" lat="46.20033195242286">
        <ele>1001.7999877929688</ele>
        <time>2013-07-30T17:00:18.000Z</time>
      </trkpt>
      <trkpt lon="6.982485931366682" lat="46.20037897489965">
        <ele>1000.4000244140625</ele>
        <time>2013-07-30T17:00:23.000Z</time>
      </trkpt>
      <trkpt lon="6.982446955516934" lat="46.20049095712602">
        <ele>994.4000244140625</ele>
        <time>2013-07-30T17:00:28.000Z</time>
      </trkpt>
      <trkpt lon="6.982377972453833" lat="46.20059799402952">
        <ele>988.2000122070312</ele>
        <time>2013-07-30T17:00:33.000Z</time>
      </trkpt>
      <trkpt lon="6.9823279324918985" lat="46.200626995414495">
        <ele>986.2000122070312</ele>
        <time>2013-07-30T17:00:37.000Z</time>
      </trkpt>
      <trkpt lon="6.9823279324918985" lat="46.200626995414495">
        <ele>986.2000122070312</ele>
        <time>2013-07-30T17:00:42.000Z</time>
      </trkpt>
      <trkpt lon="6.9822189677506685" lat="46.20067996904254">
        <ele>982.2000122070312</ele>
        <time>2013-07-30T17:00:44.000Z</time>
      </trkpt>
      <trkpt lon="6.982187954708934" lat="46.200691955164075">
        <ele>981.2000122070312</ele>
        <time>2013-07-30T17:00:50.000Z</time>
      </trkpt>
      <trkpt lon="6.982105979695916" lat="46.20072095654905">
        <ele>978.4000244140625</ele>
        <time>2013-07-30T17:00:56.000Z</time>
      </trkpt>
      <trkpt lon="6.982105979695916" lat="46.20072095654905">
        <ele>978.4000244140625</ele>
        <time>2013-07-30T17:00:58.000Z</time>
      </trkpt>
      <trkpt lon="6.982105979695916" lat="46.20072095654905">
        <ele>978.4000244140625</ele>
        <time>2013-07-30T17:01:10.000Z</time>
      </trkpt>
      <trkpt lon="6.982105979695916" lat="46.20072095654905">
        <ele>978.4000244140625</ele>
        <time>2013-07-30T17:01:11.000Z</time>
      </trkpt>
      <trkpt lon="6.982105979695916" lat="46.20072095654905">
        <ele>978.4000244140625</ele>
        <time>2013-07-30T17:01:17.000Z</time>
      </trkpt>
      <trkpt lon="6.982105979695916" lat="46.20072095654905">
        <ele>978.4000244140625</ele>
        <time>2013-07-30T17:01:25.000Z</time>
      </trkpt>
      <trkpt lon="6.981928953900933" lat="46.20076395571232">
        <ele>973.2000122070312</ele>
        <time>2013-07-30T17:01:31.000Z</time>
      </trkpt>
      <trkpt lon="6.981928953900933" lat="46.20076395571232">
        <ele>973.2000122070312</ele>
        <time>2013-07-30T17:01:32.000Z</time>
      </trkpt>
      <trkpt lon="6.981774978339672" lat="46.20072497986257">
        <ele>974.4000244140625</ele>
        <time>2013-07-30T17:01:38.000Z</time>
      </trkpt>
      <trkpt lon="6.981673976406455" lat="46.20065197348595">
        <ele>979.4000244140625</ele>
        <time>2013-07-30T17:01:43.000Z</time>
      </trkpt>
      <trkpt lon="6.98144699446857" lat="46.200563963502645">
        <ele>984.5999755859375</ele>
        <time>2013-07-30T17:01:47.000Z</time>
      </trkpt>
      <trkpt lon="6.981405923143029" lat="46.20055792853236">
        <ele>984.5999755859375</ele>
        <time>2013-07-30T17:01:51.000Z</time>
      </trkpt>
      <trkpt lon="6.981405923143029" lat="46.20055792853236">
        <ele>984.5999755859375</ele>
        <time>2013-07-30T17:01:52.000Z</time>
      </trkpt>
      <trkpt lon="6.981348926201463" lat="46.20054795406759">
        <ele>985.0</ele>
        <time>2013-07-30T17:01:58.000Z</time>
      </trkpt>
      <trkpt lon="6.981316991150379" lat="46.200542924925685">
        <ele>985.2000122070312</ele>
        <time>2013-07-30T17:02:01.000Z</time>
      </trkpt>
      <trkpt lon="6.981109958142042" lat="46.20050897821784">
        <ele>986.4000244140625</ele>
        <time>2013-07-30T17:02:08.000Z</time>
      </trkpt>
      <trkpt lon="6.980774933472276" lat="46.200455920770764">
        <ele>989.0</ele>
        <time>2013-07-30T17:02:14.000Z</time>
      </trkpt>
      <trkpt lon="6.980662951245904" lat="46.20043898932636">
        <ele>990.0</ele>
        <time>2013-07-30T17:02:17.000Z</time>
      </trkpt>
      <trkpt lon="6.9804969895631075" lat="46.200412921607494">
        <ele>991.5999755859375</ele>
        <time>2013-07-30T17:02:22.000Z</time>
      </trkpt>
      <trkpt lon="6.980449967086315" lat="46.20040797628462">
        <ele>991.7999877929688</ele>
        <time>2013-07-30T17:02:26.000Z</time>
      </trkpt>
      <trkpt lon="6.980449967086315" lat="46.20040797628462">
        <ele>991.7999877929688</ele>
        <time>2013-07-30T17:02:30.000Z</time>
      </trkpt>
      <trkpt lon="6.980317952111363" lat="46.20045097544789">
        <ele>986.4000244140625</ele>
        <time>2013-07-30T17:02:35.000Z</time>
      </trkpt>
      <trkpt lon="6.980274952948093" lat="46.200414933264256">
        <ele>989.7999877929688</ele>
        <time>2013-07-30T17:02:41.000Z</time>
      </trkpt>
      <trkpt lon="6.980233965441585" lat="46.20041694492102">
        <ele>989.4000244140625</ele>
        <time>2013-07-30T17:02:42.000Z</time>
      </trkpt>
      <trkpt lon="6.980106979608536" lat="46.20042197406292">
        <ele>988.0</ele>
        <time>2013-07-30T17:02:48.000Z</time>
      </trkpt>
      <trkpt lon="6.980087952688336" lat="46.2004229798913">
        <ele>987.7999877929688</ele>
        <time>2013-07-30T17:02:50.000Z</time>
      </trkpt>
      <trkpt lon="6.979975970461965" lat="46.20042792521417">
        <ele>986.5999755859375</ele>
        <time>2013-07-30T17:02:58.000Z</time>
      </trkpt>
      <trkpt lon="6.979989968240261" lat="46.20042792521417">
        <ele>986.5999755859375</ele>
        <time>2013-07-30T17:03:02.000Z</time>
      </trkpt>
      <trkpt lon="6.979989968240261" lat="46.20042792521417">
        <ele>986.5999755859375</ele>
        <time>2013-07-30T17:03:06.000Z</time>
      </trkpt>
      <trkpt lon="6.979741947725415" lat="46.20046799071133">
        <ele>981.4000244140625</ele>
        <time>2013-07-30T17:03:15.000Z</time>
      </trkpt>
      <trkpt lon="6.979699954390526" lat="46.200475953519344">
        <ele>980.4000244140625</ele>
        <time>2013-07-30T17:03:16.000Z</time>
      </trkpt>
      <trkpt lon="6.979460986331105" lat="46.20051392354071">
        <ele>976.0</ele>
        <time>2013-07-30T17:03:22.000Z</time>
      </trkpt>
      <trkpt lon="6.979269962757826" lat="46.20051392354071">
        <ele>975.4000244140625</ele>
        <time>2013-07-30T17:03:26.000Z</time>
      </trkpt>
      <trkpt lon="6.979071982204914" lat="46.20051392354071">
        <ele>975.4000244140625</ele>
        <time>2013-07-30T17:03:31.000Z</time>
      </trkpt>
      <trkpt lon="6.978973997756839" lat="46.20051392354071">
        <ele>975.7999877929688</ele>
        <time>2013-07-30T17:03:38.000Z</time>
      </trkpt>
      <trkpt lon="6.978973997756839" lat="46.20051392354071">
        <ele>975.7999877929688</ele>
        <time>2013-07-30T17:03:39.000Z</time>
      </trkpt>
      <trkpt lon="6.978872995823622" lat="46.200521970167756">
        <ele>975.5999755859375</ele>
        <time>2013-07-30T17:03:43.000Z</time>
      </trkpt>
      <trkpt lon="6.978745926171541" lat="46.20056698098779">
        <ele>973.0</ele>
        <time>2013-07-30T17:03:49.000Z</time>
      </trkpt>
      <trkpt lon="6.978708961978555" lat="46.2005799729377">
        <ele>972.2000122070312</ele>
        <time>2013-07-30T17:03:51.000Z</time>
      </trkpt>
      <trkpt lon="6.978644924238324" lat="46.20060293935239">
        <ele>971.2000122070312</ele>
        <time>2013-07-30T17:03:56.000Z</time>
      </trkpt>
      <trkpt lon="6.978618940338492" lat="46.20061199180782">
        <ele>970.7999877929688</ele>
        <time>2013-07-30T17:03:59.000Z</time>
      </trkpt>
      <trkpt lon="6.978556998074055" lat="46.200666977092624">
        <ele>967.7999877929688</ele>
        <time>2013-07-30T17:04:05.000Z</time>
      </trkpt>
      <trkpt lon="6.978534953668714" lat="46.200693966820836">
        <ele>966.4000244140625</ele>
        <time>2013-07-30T17:04:11.000Z</time>
      </trkpt>
      <trkpt lon="6.978534953668714" lat="46.200693966820836">
        <ele>966.4000244140625</ele>
        <time>2013-07-30T17:04:19.000Z</time>
      </trkpt>
      <trkpt lon="6.978534953668714" lat="46.200693966820836">
        <ele>966.4000244140625</ele>
        <time>2013-07-30T17:04:20.000Z</time>
      </trkpt>
      <trkpt lon="6.978346947580576" lat="46.20080393739045">
        <ele>962.2000122070312</ele>
        <time>2013-07-30T17:04:27.000Z</time>
      </trkpt>
      <trkpt lon="6.978283999487758" lat="46.20082497596741">
        <ele>961.7999877929688</ele>
        <time>2013-07-30T17:04:32.000Z</time>
      </trkpt>
      <trkpt lon="6.978212920948863" lat="46.2008479423821">
        <ele>962.2000122070312</ele>
        <time>2013-07-30T17:04:38.000Z</time>
      </trkpt>
      <trkpt lon="6.97818492539227" lat="46.20085791684687">
        <ele>962.5999755859375</ele>
        <time>2013-07-30T17:04:42.000Z</time>
      </trkpt>
      <trkpt lon="6.97818492539227" lat="46.20085791684687">
        <ele>962.5999755859375</ele>
        <time>2013-07-30T17:04:46.000Z</time>
      </trkpt>
      <trkpt lon="6.97818492539227" lat="46.20085791684687">
        <ele>962.5999755859375</ele>
        <time>2013-07-30T17:04:51.000Z</time>
      </trkpt>
      <trkpt lon="6.97809892706573" lat="46.20085791684687">
        <ele>963.4000244140625</ele>
        <time>2013-07-30T17:04:57.000Z</time>
      </trkpt>
      <trkpt lon="6.97809892706573" lat="46.20085791684687">
        <ele>963.4000244140625</ele>
        <time>2013-07-30T17:04:58.000Z</time>
      </trkpt>
      <trkpt lon="6.978017957881093" lat="46.20085791684687">
        <ele>964.2000122070312</ele>
        <time>2013-07-30T17:05:02.000Z</time>
      </trkpt>
      <trkpt lon="6.977918967604637" lat="46.200842997059226">
        <ele>964.5999755859375</ele>
        <time>2013-07-30T17:05:10.000Z</time>
      </trkpt>
      <trkpt lon="6.9779029581695795" lat="46.200839979574084">
        <ele>964.7999877929688</ele>
        <time>2013-07-30T17:05:13.000Z</time>
      </trkpt>
      <trkpt lon="6.9779029581695795" lat="46.200839979574084">
        <ele>964.7999877929688</ele>
        <time>2013-07-30T17:05:49.000Z</time>
      </trkpt>
      <trkpt lon="6.9779029581695795" lat="46.200839979574084">
        <ele>964.7999877929688</ele>
        <time>2013-07-30T17:05:55.000Z</time>
      </trkpt>
      <trkpt lon="6.977779995650053" lat="46.2008149176836">
        <ele>966.5999755859375</ele>
        <time>2013-07-30T17:05:59.000Z</time>
      </trkpt>
      <trkpt lon="6.97768896818161" lat="46.200931929051876">
        <ele>969.5999755859375</ele>
        <time>2013-07-30T17:07:10.000Z</time>
      </trkpt>
      <trkpt lon="6.977657955139875" lat="46.200973922386765">
        <ele>971.4000244140625</ele>
        <time>2013-07-30T17:07:15.000Z</time>
      </trkpt>
      <trkpt lon="6.97764596901834" lat="46.20100292377174">
        <ele>972.5999755859375</ele>
        <time>2013-07-30T17:07:18.000Z</time>
      </trkpt>
      <trkpt lon="6.97764596901834" lat="46.20100292377174">
        <ele>972.5999755859375</ele>
        <time>2013-07-30T17:07:20.000Z</time>
      </trkpt>
      <trkpt lon="6.977641945704818" lat="46.20102597400546">
        <ele>973.4000244140625</ele>
        <time>2013-07-30T17:07:27.000Z</time>
      </trkpt>
      <trkpt lon="6.977641945704818" lat="46.20102597400546">
        <ele>973.4000244140625</ele>
        <time>2013-07-30T17:07:37.000Z</time>
      </trkpt>
      <trkpt lon="6.977641945704818" lat="46.20102597400546">
        <ele>973.4000244140625</ele>
        <time>2013-07-30T17:07:43.000Z</time>
      </trkpt>
      <trkpt lon="6.977641945704818" lat="46.20102597400546">
        <ele>973.4000244140625</ele>
        <time>2013-07-30T17:07:50.000Z</time>
      </trkpt>
      <trkpt lon="6.977641945704818" lat="46.20102597400546">
        <ele>973.4000244140625</ele>
        <time>2013-07-30T17:07:55.000Z</time>
      </trkpt>
      <trkpt lon="6.977641945704818" lat="46.20102597400546">
        <ele>973.4000244140625</ele>
        <time>2013-07-30T17:08:00.000Z</time>
      </trkpt>
      <trkpt lon="6.977641945704818" lat="46.20102597400546">
        <ele>973.4000244140625</ele>
        <time>2013-07-30T17:08:04.000Z</time>
      </trkpt>
      <trkpt lon="6.977047920227051" lat="46.20109395124018">
        <ele>977.2000122070312</ele>
        <time>2013-07-30T17:09:22.000Z</time>
      </trkpt>
      <trkpt lon="6.977047920227051" lat="46.20109395124018">
        <ele>977.2000122070312</ele>
        <time>2013-07-30T17:09:28.000Z</time>
      </trkpt>
      <trkpt lon="6.977047920227051" lat="46.20109395124018">
        <ele>977.2000122070312</ele>
        <time>2013-07-30T17:09:35.000Z</time>
      </trkpt>
      <trkpt lon="6.977047920227051" lat="46.20109395124018">
        <ele>977.2000122070312</ele>
        <time>2013-07-30T17:09:37.000Z</time>
      </trkpt>
      <trkpt lon="6.977047920227051" lat="46.20109395124018">
        <ele>977.2000122070312</ele>
        <time>2013-07-30T17:09:44.000Z</time>
      </trkpt>
      <trkpt lon="6.977047920227051" lat="46.20109395124018">
        <ele>977.2000122070312</ele>
        <time>2013-07-30T17:09:48.000Z</time>
      </trkpt>
      <trkpt lon="6.977047920227051" lat="46.20109395124018">
        <ele>977.2000122070312</ele>
        <time>2013-07-30T17:09:54.000Z</time>
      </trkpt>
      <trkpt lon="6.977047920227051" lat="46.20109395124018">
        <ele>977.2000122070312</ele>
        <time>2013-07-30T17:10:00.000Z</time>
      </trkpt>
      <trkpt lon="6.977047920227051" lat="46.20109395124018">
        <ele>977.2000122070312</ele>
        <time>2013-07-30T17:10:08.000Z</time>
      </trkpt>
      <trkpt lon="6.977047920227051" lat="46.20109395124018">
        <ele>977.2000122070312</ele>
        <time>2013-07-30T17:10:11.000Z</time>
      </trkpt>
      <trkpt lon="6.977047920227051" lat="46.20109395124018">
        <ele>977.2000122070312</ele>
        <time>2013-07-30T17:10:23.000Z</time>
      </trkpt>
      <trkpt lon="6.977047920227051" lat="46.20109395124018">
        <ele>977.2000122070312</ele>
        <time>2013-07-30T17:10:31.000Z</time>
      </trkpt>
      <trkpt lon="6.977047920227051" lat="46.20109395124018">
        <ele>977.2000122070312</ele>
        <time>2013-07-30T17:10:38.000Z</time>
      </trkpt>
      <trkpt lon="6.977223940193653" lat="46.20111892931163">
        <ele>978.7999877929688</ele>
        <time>2013-07-30T17:10:42.000Z</time>
      </trkpt>
      <trkpt lon="6.977223940193653" lat="46.20111892931163">
        <ele>978.7999877929688</ele>
        <time>2013-07-30T17:10:50.000Z</time>
      </trkpt>
      <trkpt lon="6.977223940193653" lat="46.20111892931163">
        <ele>978.7999877929688</ele>
        <time>2013-07-30T17:10:55.000Z</time>
      </trkpt>
      <trkpt lon="6.977223940193653" lat="46.20111892931163">
        <ele>978.7999877929688</ele>
        <time>2013-07-30T17:11:08.000Z</time>
      </trkpt>
      <trkpt lon="6.977223940193653" lat="46.20111892931163">
        <ele>978.7999877929688</ele>
        <time>2013-07-30T17:11:13.000Z</time>
      </trkpt>
      <trkpt lon="6.977223940193653" lat="46.20111892931163">
        <ele>978.7999877929688</ele>
        <time>2013-07-30T17:11:15.000Z</time>
      </trkpt>
      <trkpt lon="6.977223940193653" lat="46.20111892931163">
        <ele>978.7999877929688</ele>
        <time>2013-07-30T17:11:29.000Z</time>
      </trkpt>
      <trkpt lon="6.9775359984487295" lat="46.20115798898041">
        <ele>979.7999877929688</ele>
        <time>2013-07-30T17:11:35.000Z</time>
      </trkpt>
      <trkpt lon="6.977567933499813" lat="46.20115798898041">
        <ele>979.2000122070312</ele>
        <time>2013-07-30T17:11:38.000Z</time>
      </trkpt>
      <trkpt lon="6.977567933499813" lat="46.20115798898041">
        <ele>979.2000122070312</ele>
        <time>2013-07-30T17:11:44.000Z</time>
      </trkpt>
      <trkpt lon="6.977567933499813" lat="46.20115798898041">
        <ele>979.2000122070312</ele>
        <time>2013-07-30T17:11:45.000Z</time>
      </trkpt>
      <trkpt lon="6.977580925449729" lat="46.20115798898041">
        <ele>979.0</ele>
        <time>2013-07-30T17:11:54.000Z</time>
      </trkpt>
      <trkpt lon="6.977603975683451" lat="46.20115798898041">
        <ele>978.5999755859375</ele>
        <time>2013-07-30T17:12:01.000Z</time>
      </trkpt>
      <trkpt lon="6.977603975683451" lat="46.20115798898041">
        <ele>978.5999755859375</ele>
        <time>2013-07-30T17:12:11.000Z</time>
      </trkpt>
      <trkpt lon="6.977603975683451" lat="46.20115798898041">
        <ele>978.5999755859375</ele>
        <time>2013-07-30T17:12:13.000Z</time>
      </trkpt>
      <trkpt lon="6.978028938174248" lat="46.20143693871796">
        <ele>978.4000244140625</ele>
        <time>2013-07-30T17:12:27.000Z</time>
      </trkpt>
      <trkpt lon="6.978178974241018" lat="46.20145194232464">
        <ele>975.0</ele>
        <time>2013-07-30T17:12:33.000Z</time>
      </trkpt>
      <trkpt lon="6.978424983099103" lat="46.20147993788123">
        <ele>971.0</ele>
        <time>2013-07-30T17:12:39.000Z</time>
      </trkpt>
      <trkpt lon="6.978577952831984" lat="46.20147993788123">
        <ele>969.7999877929688</ele>
        <time>2013-07-30T17:12:44.000Z</time>
      </trkpt>
      <trkpt lon="6.978766964748502" lat="46.201467951759696">
        <ele>968.0</ele>
        <time>2013-07-30T17:12:49.000Z</time>
      </trkpt>
      <trkpt lon="6.978766964748502" lat="46.201467951759696">
        <ele>968.0</ele>
        <time>2013-07-30T17:12:51.000Z</time>
      </trkpt>
      <trkpt lon="6.979014985263348" lat="46.2014589831233">
        <ele>965.5999755859375</ele>
        <time>2013-07-30T17:13:08.000Z</time>
      </trkpt>
      <trkpt lon="6.979119926691055" lat="46.2014589831233">
        <ele>964.7999877929688</ele>
        <time>2013-07-30T17:13:10.000Z</time>
      </trkpt>
      <trkpt lon="6.979435924440622" lat="46.201509945094585">
        <ele>961.5999755859375</ele>
        <time>2013-07-30T17:13:15.000Z</time>
      </trkpt>
      <trkpt lon="6.979972952976823" lat="46.201679930090904">
        <ele>956.4000244140625</ele>
        <time>2013-07-30T17:13:23.000Z</time>
      </trkpt>
      <trkpt lon="6.980059957131743" lat="46.20170499198139">
        <ele>955.2000122070312</ele>
        <time>2013-07-30T17:13:26.000Z</time>
      </trkpt>
      <trkpt lon="6.9800979271531105" lat="46.20171697810292">
        <ele>954.4000244140625</ele>
        <time>2013-07-30T17:13:30.000Z</time>
      </trkpt>
      <trkpt lon="6.980200940743089" lat="46.20173994451761">
        <ele>951.7999877929688</ele>
        <time>2013-07-30T17:13:39.000Z</time>
      </trkpt>
      <trkpt lon="6.980200940743089" lat="46.20173994451761">
        <ele>951.7999877929688</ele>
        <time>2013-07-30T17:13:43.000Z</time>
      </trkpt>
      <trkpt lon="6.980287944898009" lat="46.20175897143781">
        <ele>949.5999755859375</ele>
        <time>2013-07-30T17:13:49.000Z</time>
      </trkpt>
      <trkpt lon="6.980325998738408" lat="46.201814962551">
        <ele>952.2000122070312</ele>
        <time>2013-07-30T17:13:56.000Z</time>
      </trkpt>
      <trkpt lon="6.980330944061279" lat="46.20182292535901">
        <ele>952.5999755859375</ele>
        <time>2013-07-30T17:13:59.000Z</time>
      </trkpt>
      <trkpt lon="6.980330944061279" lat="46.20182292535901">
        <ele>952.5999755859375</ele>
        <time>2013-07-30T17:14:08.000Z</time>
      </trkpt>
      <trkpt lon="6.980330944061279" lat="46.20182292535901">
        <ele>952.5999755859375</ele>
        <time>2013-07-30T17:14:12.000Z</time>
      </trkpt>
      <trkpt lon="6.980330944061279" lat="46.20182292535901">
        <ele>952.5999755859375</ele>
        <time>2013-07-30T17:14:15.000Z</time>
      </trkpt>
      <trkpt lon="6.980650965124369" lat="46.202066922560334">
        <ele>958.2000122070312</ele>
        <time>2013-07-30T17:14:20.000Z</time>
      </trkpt>
      <trkpt lon="6.98082497343421" lat="46.20218896307051">
        <ele>961.0</ele>
        <time>2013-07-30T17:14:26.000Z</time>
      </trkpt>
      <trkpt lon="6.981190927326679" lat="46.202370934188366">
        <ele>963.4000244140625</ele>
        <time>2013-07-30T17:14:33.000Z</time>
      </trkpt>
      <trkpt lon="6.981344986706972" lat="46.20244796387851">
        <ele>962.7999877929688</ele>
        <time>2013-07-30T17:14:35.000Z</time>
      </trkpt>
      <trkpt lon="6.981716975569725" lat="46.2025779671967">
        <ele>955.5999755859375</ele>
        <time>2013-07-30T17:14:39.000Z</time>
      </trkpt>
      <trkpt lon="6.982082929462194" lat="46.20264996774495">
        <ele>945.2000122070312</ele>
        <time>2013-07-30T17:14:45.000Z</time>
      </trkpt>
      <trkpt lon="6.982331955805421" lat="46.20268492028117">
        <ele>937.7999877929688</ele>
        <time>2013-07-30T17:14:49.000Z</time>
      </trkpt>
      <trkpt lon="6.982762953266501" lat="46.20269699022174">
        <ele>930.0</ele>
        <time>2013-07-30T17:14:56.000Z</time>
      </trkpt>
      <trkpt lon="6.982970992103219" lat="46.20264393277466">
        <ele>925.0</ele>
        <time>2013-07-30T17:15:00.000Z</time>
      </trkpt>
      <trkpt lon="6.98316796682775" lat="46.20255692861974">
        <ele>917.4000244140625</ele>
        <time>2013-07-30T17:15:05.000Z</time>
      </trkpt>
      <trkpt lon="6.983442977070808" lat="46.20250998996198">
        <ele>914.2000122070312</ele>
        <time>2013-07-30T17:15:11.000Z</time>
      </trkpt>
      <trkpt lon="6.9836449809372425" lat="46.20255097746849">
        <ele>919.4000244140625</ele>
        <time>2013-07-30T17:15:17.000Z</time>
      </trkpt>
      <trkpt lon="6.983881937339902" lat="46.20263395830989">
        <ele>927.0</ele>
        <time>2013-07-30T17:15:23.000Z</time>
      </trkpt>
      <trkpt lon="6.984222996979952" lat="46.202752981334925">
        <ele>934.5999755859375</ele>
        <time>2013-07-30T17:15:31.000Z</time>
      </trkpt>
      <trkpt lon="6.984402956441045" lat="46.20281492359936">
        <ele>934.0</ele>
        <time>2013-07-30T17:15:37.000Z</time>
      </trkpt>
      <trkpt lon="6.984601942822337" lat="46.20287493802607">
        <ele>933.0</ele>
        <time>2013-07-30T17:15:42.000Z</time>
      </trkpt>
      <trkpt lon="6.984661957249045" lat="46.20289295911789">
        <ele>932.7999877929688</ele>
        <time>2013-07-30T17:15:43.000Z</time>
      </trkpt>
      <trkpt lon="6.984940990805626" lat="46.203032936900854">
        <ele>934.2000122070312</ele>
        <time>2013-07-30T17:15:47.000Z</time>
      </trkpt>
      <trkpt lon="6.985306944698095" lat="46.20327995158732">
        <ele>937.7999877929688</ele>
        <time>2013-07-30T17:15:51.000Z</time>
      </trkpt>
      <trkpt lon="6.985545996576548" lat="46.20352394878864">
        <ele>937.2000122070312</ele>
        <time>2013-07-30T17:15:54.000Z</time>
      </trkpt>
      <trkpt lon="6.985765937715769" lat="46.20375394821167">
        <ele>933.0</ele>
        <time>2013-07-30T17:15:57.000Z</time>
      </trkpt>
      <trkpt lon="6.98606894351542" lat="46.204064916819334">
        <ele>927.5999755859375</ele>
        <time>2013-07-30T17:16:01.000Z</time>
      </trkpt>
      <trkpt lon="6.9862189795821905" lat="46.204430954530835">
        <ele>930.5999755859375</ele>
        <time>2013-07-30T17:16:05.000Z</time>
      </trkpt>
      <trkpt lon="6.9862419459968805" lat="46.204515947028995">
        <ele>931.4000244140625</ele>
        <time>2013-07-30T17:16:06.000Z</time>
      </trkpt>
      <trkpt lon="6.986231971532106" lat="46.204858934506774">
        <ele>935.2000122070312</ele>
        <time>2013-07-30T17:16:10.000Z</time>
      </trkpt>
      <trkpt lon="6.98615494184196" lat="46.20513293892145">
        <ele>936.0</ele>
        <time>2013-07-30T17:16:13.000Z</time>
      </trkpt>
      <trkpt lon="6.985937934368849" lat="46.20564599521458">
        <ele>932.4000244140625</ele>
        <time>2013-07-30T17:16:18.000Z</time>
      </trkpt>
      <trkpt lon="6.985769961029291" lat="46.20593994855881">
        <ele>933.2000122070312</ele>
        <time>2013-07-30T17:16:21.000Z</time>
      </trkpt>
      <trkpt lon="6.9855669513344765" lat="46.20628595352173">
        <ele>941.4000244140625</ele>
        <time>2013-07-30T17:16:26.000Z</time>
      </trkpt>
      <trkpt lon="6.985636940225959" lat="46.20707091875374">
        <ele>938.4000244140625</ele>
        <time>2013-07-30T17:16:32.000Z</time>
      </trkpt>
      <trkpt lon="6.985845984891057" lat="46.207498982548714">
        <ele>927.5999755859375</ele>
        <time>2013-07-30T17:16:37.000Z</time>
      </trkpt>
      <trkpt lon="6.985897952690721" lat="46.207568971440196">
        <ele>925.5999755859375</ele>
        <time>2013-07-30T17:16:38.000Z</time>
      </trkpt>
      <trkpt lon="6.985892923548818" lat="46.20787197723985">
        <ele>923.4000244140625</ele>
        <time>2013-07-30T17:16:42.000Z</time>
      </trkpt>
      <trkpt lon="6.985842967405915" lat="46.20795998722315">
        <ele>924.2000122070312</ele>
        <time>2013-07-30T17:16:43.000Z</time>
      </trkpt>
      <trkpt lon="6.985493944957852" lat="46.20855895802379">
        <ele>927.2000122070312</ele>
        <time>2013-07-30T17:16:49.000Z</time>
      </trkpt>
      <trkpt lon="6.9853009935468435" lat="46.20884796604514">
        <ele>923.7999877929688</ele>
        <time>2013-07-30T17:16:52.000Z</time>
      </trkpt>
      <trkpt lon="6.985236955806613" lat="46.20891191996634">
        <ele>924.4000244140625</ele>
        <time>2013-07-30T17:16:57.000Z</time>
      </trkpt>
      <trkpt lon="6.985236955806613" lat="46.20891191996634">
        <ele>924.4000244140625</ele>
        <time>2013-07-30T17:16:59.000Z</time>
      </trkpt>
      <trkpt lon="6.985125979408622" lat="46.20902398601174">
        <ele>925.2000122070312</ele>
        <time>2013-07-30T17:17:23.000Z</time>
      </trkpt>
      <trkpt lon="6.985025983303785" lat="46.2091229762882">
        <ele>926.4000244140625</ele>
        <time>2013-07-30T17:17:27.000Z</time>
      </trkpt>
      <trkpt lon="6.984782991930842" lat="46.20936596766114">
        <ele>927.4000244140625</ele>
        <time>2013-07-30T17:17:34.000Z</time>
      </trkpt>
      <trkpt lon="6.984565984457731" lat="46.20958297513425">
        <ele>926.7999877929688</ele>
        <time>2013-07-30T17:17:39.000Z</time>
      </trkpt>
      <trkpt lon="6.984386947005987" lat="46.209738962352276">
        <ele>926.2000122070312</ele>
        <time>2013-07-30T17:17:42.000Z</time>
      </trkpt>
      <trkpt lon="6.984147978946567" lat="46.20994096621871">
        <ele>924.4000244140625</ele>
        <time>2013-07-30T17:17:45.000Z</time>
      </trkpt>
      <trkpt lon="6.983760986477137" lat="46.21028093621135">
        <ele>915.2000122070312</ele>
        <time>2013-07-30T17:17:49.000Z</time>
      </trkpt>
      <trkpt lon="6.983451945707202" lat="46.21058997698128">
        <ele>902.5999755859375</ele>
        <time>2013-07-30T17:17:52.000Z</time>
      </trkpt>
      <trkpt lon="6.98327693156898" lat="46.210764991119504">
        <ele>894.4000244140625</ele>
        <time>2013-07-30T17:17:55.000Z</time>
      </trkpt>
      <trkpt lon="6.982991946861148" lat="46.210963977500796">
        <ele>892.2000122070312</ele>
        <time>2013-07-30T17:17:57.000Z</time>
      </trkpt>
      <trkpt lon="6.983398972079158" lat="46.210641944780946">
        <ele>900.2000122070312</ele>
        <time>2013-07-30T17:18:00.000Z</time>
      </trkpt>
      <trkpt lon="6.983714969828725" lat="46.21032594703138">
        <ele>913.4000244140625</ele>
        <time>2013-07-30T17:18:06.000Z</time>
      </trkpt>
      <trkpt lon="6.9837739784270525" lat="46.21026794426143">
        <ele>915.5999755859375</ele>
        <time>2013-07-30T17:18:07.000Z</time>
      </trkpt>
      <trkpt lon="6.98396198451519" lat="46.21009695343673">
        <ele>921.0</ele>
        <time>2013-07-30T17:18:10.000Z</time>
      </trkpt>
      <trkpt lon="6.983933988958597" lat="46.2101209256798">
        <ele>920.2000122070312</ele>
        <time>2013-07-30T17:18:12.000Z</time>
      </trkpt>
      <trkpt lon="6.983885960653424" lat="46.21016199700534">
        <ele>919.2000122070312</ele>
        <time>2013-07-30T17:18:13.000Z</time>
      </trkpt>
      <trkpt lon="6.983456974849105" lat="46.21058494783938">
        <ele>902.7999877929688</ele>
        <time>2013-07-30T17:18:19.000Z</time>
      </trkpt>
      <trkpt lon="6.983000999316573" lat="46.2111399974674">
        <ele>889.0</ele>
        <time>2013-07-30T17:18:24.000Z</time>
      </trkpt>
      <trkpt lon="6.98280293494463" lat="46.21181096881628">
        <ele>880.2000122070312</ele>
        <time>2013-07-30T17:18:29.000Z</time>
      </trkpt>
      <trkpt lon="6.98366291821003" lat="46.212640944868326">
        <ele>863.5999755859375</ele>
        <time>2013-07-30T17:18:35.000Z</time>
      </trkpt>
      <trkpt lon="6.983626959845424" lat="46.21327495202422">
        <ele>858.0</ele>
        <time>2013-07-30T17:18:40.000Z</time>
      </trkpt>
      <trkpt lon="6.983641963452101" lat="46.21340696699917">
        <ele>856.4000244140625</ele>
        <time>2013-07-30T17:18:41.000Z</time>
      </trkpt>
      <trkpt lon="6.983557976782322" lat="46.21395598165691">
        <ele>851.5999755859375</ele>
        <time>2013-07-30T17:18:45.000Z</time>
      </trkpt>
      <trkpt lon="6.983341975137591" lat="46.21440198272467">
        <ele>849.7999877929688</ele>
        <time>2013-07-30T17:18:49.000Z</time>
      </trkpt>
      <trkpt lon="6.98336192406714" lat="46.21452494524419">
        <ele>848.5999755859375</ele>
        <time>2013-07-30T17:18:51.000Z</time>
      </trkpt>
      <trkpt lon="6.983654955402017" lat="46.214505918323994">
        <ele>845.7999877929688</ele>
        <time>2013-07-30T17:18:53.000Z</time>
      </trkpt>
      <trkpt lon="6.984385941177607" lat="46.21418992057443">
        <ele>839.7999877929688</ele>
        <time>2013-07-30T17:18:59.000Z</time>
      </trkpt>
      <trkpt lon="6.984514938667417" lat="46.214118925854564">
        <ele>838.7999877929688</ele>
        <time>2013-07-30T17:19:00.000Z</time>
      </trkpt>
      <trkpt lon="6.984911989420652" lat="46.2137389741838">
        <ele>837.2000122070312</ele>
        <time>2013-07-30T17:19:04.000Z</time>
      </trkpt>
      <trkpt lon="6.985352961346507" lat="46.213388945907354">
        <ele>834.7999877929688</ele>
        <time>2013-07-30T17:19:08.000Z</time>
      </trkpt>
      <trkpt lon="6.985469972714782" lat="46.21330998837948">
        <ele>833.7999877929688</ele>
        <time>2013-07-30T17:19:09.000Z</time>
      </trkpt>
      <trkpt lon="6.985693937167525" lat="46.213044952601194">
        <ele>831.4000244140625</ele>
        <time>2013-07-30T17:19:12.000Z</time>
      </trkpt>
      <trkpt lon="6.985717993229628" lat="46.212941939011216">
        <ele>831.2000122070312</ele>
        <time>2013-07-30T17:19:13.000Z</time>
      </trkpt>
      <trkpt lon="6.985860988497734" lat="46.21231899596751">
        <ele>829.2000122070312</ele>
        <time>2013-07-30T17:19:19.000Z</time>
      </trkpt>
      <trkpt lon="6.985943969339132" lat="46.2119999807328">
        <ele>827.4000244140625</ele>
        <time>2013-07-30T17:19:22.000Z</time>
      </trkpt>
      <trkpt lon="6.986248986795545" lat="46.21172094717622">
        <ele>821.5999755859375</ele>
        <time>2013-07-30T17:19:25.000Z</time>
      </trkpt>
      <trkpt lon="6.986572947353125" lat="46.21158993802965">
        <ele>816.2000122070312</ele>
        <time>2013-07-30T17:19:27.000Z</time>
      </trkpt>
      <trkpt lon="6.987261939793825" lat="46.21135692112148">
        <ele>812.2000122070312</ele>
        <time>2013-07-30T17:19:31.000Z</time>
      </trkpt>
      <trkpt lon="6.987413987517357" lat="46.21136195026338">
        <ele>811.0</ele>
        <time>2013-07-30T17:19:34.000Z</time>
      </trkpt>
      <trkpt lon="6.987419938668609" lat="46.21139799244702">
        <ele>810.7999877929688</ele>
        <time>2013-07-30T17:19:36.000Z</time>
      </trkpt>
      <trkpt lon="6.987221958115697" lat="46.21169999241829">
        <ele>809.7999877929688</ele>
        <time>2013-07-30T17:19:40.000Z</time>
      </trkpt>
      <trkpt lon="6.9870739337056875" lat="46.21209293603897">
        <ele>810.7999877929688</ele>
        <time>2013-07-30T17:19:44.000Z</time>
      </trkpt>
      <trkpt lon="6.987146940082312" lat="46.21227599680424">
        <ele>809.5999755859375</ele>
        <time>2013-07-30T17:19:46.000Z</time>
      </trkpt>
      <trkpt lon="6.987728979438543" lat="46.21301796287298">
        <ele>803.0</ele>
        <time>2013-07-30T17:19:54.000Z</time>
      </trkpt>
      <trkpt lon="6.988056963309646" lat="46.213259948417544">
        <ele>801.4000244140625</ele>
        <time>2013-07-30T17:19:57.000Z</time>
      </trkpt>
      <trkpt lon="6.988219991326332" lat="46.21327394619584">
        <ele>800.4000244140625</ele>
        <time>2013-07-30T17:19:58.000Z</time>
      </trkpt>
      <trkpt lon="6.988564990460873" lat="46.213281992822886">
        <ele>797.0</ele>
        <time>2013-07-30T17:20:00.000Z</time>
      </trkpt>
      <trkpt lon="6.9890939723700285" lat="46.21336296200752">
        <ele>791.5999755859375</ele>
        <time>2013-07-30T17:20:03.000Z</time>
      </trkpt>
      <trkpt lon="6.989299999549985" lat="46.21353194117546">
        <ele>788.5999755859375</ele>
        <time>2013-07-30T17:20:05.000Z</time>
      </trkpt>
      <trkpt lon="6.989412987604737" lat="46.21373998001218">
        <ele>786.4000244140625</ele>
        <time>2013-07-30T17:20:07.000Z</time>
      </trkpt>
      <trkpt lon="6.989421956241131" lat="46.213837964460254">
        <ele>786.2000122070312</ele>
        <time>2013-07-30T17:20:08.000Z</time>
      </trkpt>
      <trkpt lon="6.989339981228113" lat="46.214572973549366">
        <ele>786.0</ele>
        <time>2013-07-30T17:20:14.000Z</time>
      </trkpt>
      <trkpt lon="6.989210983738303" lat="46.21561199426651">
        <ele>776.7999877929688</ele>
        <time>2013-07-30T17:20:22.000Z</time>
      </trkpt>
      <trkpt lon="6.989123979583383" lat="46.2162599992007">
        <ele>771.5999755859375</ele>
        <time>2013-07-30T17:20:27.000Z</time>
      </trkpt>
      <trkpt lon="6.98898995295167" lat="46.21707698330283">
        <ele>769.0</ele>
        <time>2013-07-30T17:20:33.000Z</time>
      </trkpt>
      <trkpt lon="6.988816950470209" lat="46.217596996575594">
        <ele>766.5999755859375</ele>
        <time>2013-07-30T17:20:37.000Z</time>
      </trkpt>
      <trkpt lon="6.988572953268886" lat="46.21817098930478">
        <ele>760.0</ele>
        <time>2013-07-30T17:20:42.000Z</time>
      </trkpt>
      <trkpt lon="6.988322921097279" lat="46.21866191737354">
        <ele>755.5999755859375</ele>
        <time>2013-07-30T17:20:47.000Z</time>
      </trkpt>
      <trkpt lon="6.987724956125021" lat="46.21934797614813">
        <ele>756.4000244140625</ele>
        <time>2013-07-30T17:20:55.000Z</time>
      </trkpt>
      <trkpt lon="6.9873669650405645" lat="46.21988693252206">
        <ele>754.0</ele>
        <time>2013-07-30T17:21:01.000Z</time>
      </trkpt>
      <trkpt lon="6.987131936475635" lat="46.22046696022153">
        <ele>752.2000122070312</ele>
        <time>2013-07-30T17:21:07.000Z</time>
      </trkpt>
      <trkpt lon="6.98683999478817" lat="46.22115394100547">
        <ele>748.4000244140625</ele>
        <time>2013-07-30T17:21:14.000Z</time>
      </trkpt>
      <trkpt lon="6.986404974013567" lat="46.22166993096471">
        <ele>748.4000244140625</ele>
        <time>2013-07-30T17:21:20.000Z</time>
      </trkpt>
      <trkpt lon="6.985967941582203" lat="46.22210796922445">
        <ele>747.4000244140625</ele>
        <time>2013-07-30T17:21:26.000Z</time>
      </trkpt>
      <trkpt lon="6.985855959355831" lat="46.22225792147219">
        <ele>746.4000244140625</ele>
        <time>2013-07-30T17:21:28.000Z</time>
      </trkpt>
      <trkpt lon="6.985549936071038" lat="46.22250594198704">
        <ele>745.4000244140625</ele>
        <time>2013-07-30T17:21:32.000Z</time>
      </trkpt>
      <trkpt lon="6.985325971618295" lat="46.222540978342295">
        <ele>746.5999755859375</ele>
        <time>2013-07-30T17:21:34.000Z</time>
      </trkpt>
      <trkpt lon="6.984513932839036" lat="46.2224439997226">
        <ele>752.7999877929688</ele>
        <time>2013-07-30T17:21:41.000Z</time>
      </trkpt>
      <trkpt lon="6.9839889742434025" lat="46.222521951422095">
        <ele>752.0</ele>
        <time>2013-07-30T17:21:46.000Z</time>
      </trkpt>
      <trkpt lon="6.983647998422384" lat="46.22270593419671">
        <ele>750.5999755859375</ele>
        <time>2013-07-30T17:21:50.000Z</time>
      </trkpt>
      <trkpt lon="6.983570968732238" lat="46.22276594862342">
        <ele>750.2000122070312</ele>
        <time>2013-07-30T17:21:51.000Z</time>
      </trkpt>
      <trkpt lon="6.9832029193639755" lat="46.22335192747414">
        <ele>746.4000244140625</ele>
        <time>2013-07-30T17:21:58.000Z</time>
      </trkpt>
      <trkpt lon="6.982682989910245" lat="46.22396992519498">
        <ele>742.5999755859375</ele>
        <time>2013-07-30T17:22:05.000Z</time>
      </trkpt>
      <trkpt lon="6.982506969943643" lat="46.22412398457527">
        <ele>743.2000122070312</ele>
        <time>2013-07-30T17:22:07.000Z</time>
      </trkpt>
      <trkpt lon="6.982058957219124" lat="46.224347949028015">
        <ele>737.2000122070312</ele>
        <time>2013-07-30T17:22:11.000Z</time>
      </trkpt>
      <trkpt lon="6.981455963104963" lat="46.22459094040096">
        <ele>730.7999877929688</ele>
        <time>2013-07-30T17:22:16.000Z</time>
      </trkpt>
      <trkpt lon="6.981239961460233" lat="46.22472194954753">
        <ele>728.0</ele>
        <time>2013-07-30T17:22:18.000Z</time>
      </trkpt>
      <trkpt lon="6.980813993141055" lat="46.225182954221964">
        <ele>721.5999755859375</ele>
        <time>2013-07-30T17:22:23.000Z</time>
      </trkpt>
      <trkpt lon="6.980558931827545" lat="46.225510938093066">
        <ele>718.2000122070312</ele>
        <time>2013-07-30T17:22:26.000Z</time>
      </trkpt>
      <trkpt lon="6.980263972654939" lat="46.22580396942794">
        <ele>716.5999755859375</ele>
        <time>2013-07-30T17:22:29.000Z</time>
      </trkpt>
      <trkpt lon="6.980209993198514" lat="46.22600597329438">
        <ele>717.0</ele>
        <time>2013-07-30T17:22:32.000Z</time>
      </trkpt>
      <trkpt lon="6.980379978194833" lat="46.22594294138253">
        <ele>715.4000244140625</ele>
        <time>2013-07-30T17:22:34.000Z</time>
      </trkpt>
      <trkpt lon="6.980801923200488" lat="46.22565099969506">
        <ele>715.4000244140625</ele>
        <time>2013-07-30T17:22:39.000Z</time>
      </trkpt>
      <trkpt lon="6.981245996430516" lat="46.22534992173314">
        <ele>716.4000244140625</ele>
        <time>2013-07-30T17:22:43.000Z</time>
      </trkpt>
      <trkpt lon="6.981693925336003" lat="46.22519695200026">
        <ele>716.4000244140625</ele>
        <time>2013-07-30T17:22:46.000Z</time>
      </trkpt>
      <trkpt lon="6.982344947755337" lat="46.22521991841495">
        <ele>711.4000244140625</ele>
        <time>2013-07-30T17:22:50.000Z</time>
      </trkpt>
      <trkpt lon="6.983062941581011" lat="46.22536199167371">
        <ele>701.5999755859375</ele>
        <time>2013-07-30T17:22:54.000Z</time>
      </trkpt>
      <trkpt lon="6.98407094925642" lat="46.22531798668206">
        <ele>690.2000122070312</ele>
        <time>2013-07-30T17:22:59.000Z</time>
      </trkpt>
      <trkpt lon="6.984472945332527" lat="46.225290996953845">
        <ele>686.0</ele>
        <time>2013-07-30T17:23:01.000Z</time>
      </trkpt>
      <trkpt lon="6.98490796610713" lat="46.225226959213614">
        <ele>683.0</ele>
        <time>2013-07-30T17:23:04.000Z</time>
      </trkpt>
      <trkpt lon="6.985061941668391" lat="46.22506099753082">
        <ele>687.2000122070312</ele>
        <time>2013-07-30T17:23:06.000Z</time>
      </trkpt>
      <trkpt lon="6.985266963019967" lat="46.224885983392596">
        <ele>689.0</ele>
        <time>2013-07-30T17:23:08.000Z</time>
      </trkpt>
      <trkpt lon="6.985555971041322" lat="46.22489294037223">
        <ele>685.7999877929688</ele>
        <time>2013-07-30T17:23:10.000Z</time>
      </trkpt>
      <trkpt lon="6.985660996288061" lat="46.22493895702064">
        <ele>684.0</ele>
        <time>2013-07-30T17:23:11.000Z</time>
      </trkpt>
      <trkpt lon="6.986386952921748" lat="46.22499997727573">
        <ele>674.2000122070312</ele>
        <time>2013-07-30T17:23:16.000Z</time>
      </trkpt>
      <trkpt lon="6.986657939851284" lat="46.2247649487108">
        <ele>674.2000122070312</ele>
        <time>2013-07-30T17:23:19.000Z</time>
      </trkpt>
      <trkpt lon="6.987021965906024" lat="46.22457593679428">
        <ele>675.5999755859375</ele>
        <time>2013-07-30T17:23:22.000Z</time>
      </trkpt>
      <trkpt lon="6.9872809667140245" lat="46.224606949836016">
        <ele>674.5999755859375</ele>
        <time>2013-07-30T17:23:24.000Z</time>
      </trkpt>
      <trkpt lon="6.9876569788903" lat="46.224777940660715">
        <ele>672.2000122070312</ele>
        <time>2013-07-30T17:23:27.000Z</time>
      </trkpt>
      <trkpt lon="6.9878199230879545" lat="46.224841978400946">
        <ele>671.7999877929688</ele>
        <time>2013-07-30T17:23:28.000Z</time>
      </trkpt>
      <trkpt lon="6.988487960770726" lat="46.22506996616721">
        <ele>668.7999877929688</ele>
        <time>2013-07-30T17:23:32.000Z</time>
      </trkpt>
      <trkpt lon="6.988613940775394" lat="46.22516895644367">
        <ele>666.5999755859375</ele>
        <time>2013-07-30T17:23:35.000Z</time>
      </trkpt>
      <trkpt lon="6.988557949662209" lat="46.22521296143532">
        <ele>664.7999877929688</ele>
        <time>2013-07-30T17:23:37.000Z</time>
      </trkpt>
      <trkpt lon="6.9882419519126415" lat="46.22526492923498">
        <ele>661.5999755859375</ele>
        <time>2013-07-30T17:23:40.000Z</time>
      </trkpt>
      <trkpt lon="6.988244969397783" lat="46.225503981113434">
        <ele>654.4000244140625</ele>
        <time>2013-07-30T17:23:42.000Z</time>
      </trkpt>
      <trkpt lon="6.988354939967394" lat="46.22560397721827">
        <ele>651.7999877929688</ele>
        <time>2013-07-30T17:23:43.000Z</time>
      </trkpt>
      <trkpt lon="6.988859949633479" lat="46.22607998549938">
        <ele>639.4000244140625</ele>
        <time>2013-07-30T17:23:48.000Z</time>
      </trkpt>
      <trkpt lon="6.98896799236536" lat="46.22618895024061">
        <ele>636.2000122070312</ele>
        <time>2013-07-30T17:23:49.000Z</time>
      </trkpt>
      <trkpt lon="6.989148957654834" lat="46.226430935785174">
        <ele>628.4000244140625</ele>
        <time>2013-07-30T17:23:52.000Z</time>
      </trkpt>
      <trkpt lon="6.989019960165024" lat="46.226494973525405">
        <ele>627.0</ele>
        <time>2013-07-30T17:23:54.000Z</time>
      </trkpt>
      <trkpt lon="6.98857999406755" lat="46.226604944095016">
        <ele>626.5999755859375</ele>
        <time>2013-07-30T17:23:57.000Z</time>
      </trkpt>
      <trkpt lon="6.9881839491426945" lat="46.22667099349201">
        <ele>625.0</ele>
        <time>2013-07-30T17:24:00.000Z</time>
      </trkpt>
      <trkpt lon="6.988098956644535" lat="46.22667099349201">
        <ele>624.0</ele>
        <time>2013-07-30T17:24:01.000Z</time>
      </trkpt>
      <trkpt lon="6.987982951104641" lat="46.226578960195184">
        <ele>624.7999877929688</ele>
        <time>2013-07-30T17:24:05.000Z</time>
      </trkpt>
      <trkpt lon="6.987815983593464" lat="46.22671692632139">
        <ele>619.5999755859375</ele>
        <time>2013-07-30T17:24:07.000Z</time>
      </trkpt>
      <trkpt lon="6.988061992451549" lat="46.226905938237906">
        <ele>618.4000244140625</ele>
        <time>2013-07-30T17:24:10.000Z</time>
      </trkpt>
      <trkpt lon="6.98823994025588" lat="46.227073995396495">
        <ele>616.2000122070312</ele>
        <time>2013-07-30T17:24:13.000Z</time>
      </trkpt>
      <trkpt lon="6.988056963309646" lat="46.2271429784596">
        <ele>613.0</ele>
        <time>2013-07-30T17:24:15.000Z</time>
      </trkpt>
      <trkpt lon="6.987411975860596" lat="46.22716695070267">
        <ele>606.4000244140625</ele>
        <time>2013-07-30T17:24:20.000Z</time>
      </trkpt>
      <trkpt lon="6.986966980621219" lat="46.22727298177779">
        <ele>596.7999877929688</ele>
        <time>2013-07-30T17:24:23.000Z</time>
      </trkpt>
      <trkpt lon="6.986726922914386" lat="46.22722193598747">
        <ele>594.0</ele>
        <time>2013-07-30T17:24:24.000Z</time>
      </trkpt>
      <trkpt lon="6.9861759804189205" lat="46.226942986249924">
        <ele>596.4000244140625</ele>
        <time>2013-07-30T17:24:28.000Z</time>
      </trkpt>
      <trkpt lon="6.985650938004255" lat="46.227040970698">
        <ele>591.2000122070312</ele>
        <time>2013-07-30T17:24:31.000Z</time>
      </trkpt>
      <trkpt lon="6.985189933329821" lat="46.227223947644234">
        <ele>587.0</ele>
        <time>2013-07-30T17:24:34.000Z</time>
      </trkpt>
      <trkpt lon="6.984989941120148" lat="46.22743592597544">
        <ele>579.0</ele>
        <time>2013-07-30T17:24:36.000Z</time>
      </trkpt>
      <trkpt lon="6.985003938898444" lat="46.22770892456174">
        <ele>572.2000122070312</ele>
        <time>2013-07-30T17:24:38.000Z</time>
      </trkpt>
      <trkpt lon="6.985053978860378" lat="46.22817596420646">
        <ele>563.4000244140625</ele>
        <time>2013-07-30T17:24:42.000Z</time>
      </trkpt>
      <trkpt lon="6.985153974965215" lat="46.22826095670462">
        <ele>561.2000122070312</ele>
        <time>2013-07-30T17:24:43.000Z</time>
      </trkpt>
      <trkpt lon="6.985393948853016" lat="46.22841694392264">
        <ele>557.7999877929688</ele>
        <time>2013-07-30T17:24:45.000Z</time>
      </trkpt>
      <trkpt lon="6.985716987401247" lat="46.22855097055435">
        <ele>554.7999877929688</ele>
        <time>2013-07-30T17:24:47.000Z</time>
      </trkpt>
      <trkpt lon="6.986309923231602" lat="46.22886696830392">
        <ele>551.4000244140625</ele>
        <time>2013-07-30T17:24:51.000Z</time>
      </trkpt>
      <trkpt lon="6.986545957624912" lat="46.22909193858504">
        <ele>546.4000244140625</ele>
        <time>2013-07-30T17:24:53.000Z</time>
      </trkpt>
      <trkpt lon="6.986703956499696" lat="46.22939393855631">
        <ele>541.5999755859375</ele>
        <time>2013-07-30T17:24:56.000Z</time>
      </trkpt>
      <trkpt lon="6.986530954018235" lat="46.22952193021774">
        <ele>540.4000244140625</ele>
        <time>2013-07-30T17:24:58.000Z</time>
      </trkpt>
      <trkpt lon="6.986392987892032" lat="46.22966794297099">
        <ele>538.4000244140625</ele>
        <time>2013-07-30T17:25:00.000Z</time>
      </trkpt>
      <trkpt lon="6.986424922943115" lat="46.229846980422735">
        <ele>536.0</ele>
        <time>2013-07-30T17:25:02.000Z</time>
      </trkpt>
      <trkpt lon="6.986621981486678" lat="46.22994295321405">
        <ele>536.2000122070312</ele>
        <time>2013-07-30T17:25:04.000Z</time>
      </trkpt>
      <trkpt lon="6.9870559964329" lat="46.23011595569551">
        <ele>532.0</ele>
        <time>2013-07-30T17:25:07.000Z</time>
      </trkpt>
      <trkpt lon="6.9872739259153605" lat="46.23024696484208">
        <ele>528.2000122070312</ele>
        <time>2013-07-30T17:25:09.000Z</time>
      </trkpt>
      <trkpt lon="6.9872309267520905" lat="46.230381997302175">
        <ele>525.4000244140625</ele>
        <time>2013-07-30T17:25:11.000Z</time>
      </trkpt>
      <trkpt lon="6.987027917057276" lat="46.230447962880135">
        <ele>524.5999755859375</ele>
        <time>2013-07-30T17:25:13.000Z</time>
      </trkpt>
      <trkpt lon="6.986668920144439" lat="46.230341931805015">
        <ele>528.0</ele>
        <time>2013-07-30T17:25:16.000Z</time>
      </trkpt>
      <trkpt lon="6.986307995393872" lat="46.23026892542839">
        <ele>528.2000122070312</ele>
        <time>2013-07-30T17:25:19.000Z</time>
      </trkpt>
      <trkpt lon="6.986258961260319" lat="46.23044494539499">
        <ele>525.0</ele>
        <time>2013-07-30T17:25:21.000Z</time>
      </trkpt>
      <trkpt lon="6.986338924616575" lat="46.2305189576">
        <ele>523.7999877929688</ele>
        <time>2013-07-30T17:25:22.000Z</time>
      </trkpt>
      <trkpt lon="6.986608989536762" lat="46.23071392066777">
        <ele>519.7999877929688</ele>
        <time>2013-07-30T17:25:25.000Z</time>
      </trkpt>
      <trkpt lon="6.986767994239926" lat="46.23093193396926">
        <ele>514.0</ele>
        <time>2013-07-30T17:25:28.000Z</time>
      </trkpt>
      <trkpt lon="6.9865859393030405" lat="46.231074929237366">
        <ele>510.6000061035156</ele>
        <time>2013-07-30T17:25:30.000Z</time>
      </trkpt>
      <trkpt lon="6.986142955720425" lat="46.231113988906145">
        <ele>512.0</ele>
        <time>2013-07-30T17:25:33.000Z</time>
      </trkpt>
      <trkpt lon="6.985938940197229" lat="46.2312769331038">
        <ele>509.6000061035156</ele>
        <time>2013-07-30T17:25:35.000Z</time>
      </trkpt>
      <trkpt lon="6.985416999086738" lat="46.23175595887005">
        <ele>512.7999877929688</ele>
        <time>2013-07-30T17:25:40.000Z</time>
      </trkpt>
      <trkpt lon="6.985352961346507" lat="46.23188395053148">
        <ele>512.7999877929688</ele>
        <time>2013-07-30T17:25:41.000Z</time>
      </trkpt>
      <trkpt lon="6.985229998826981" lat="46.232295921072364">
        <ele>510.79998779296875</ele>
        <time>2013-07-30T17:25:44.000Z</time>
      </trkpt>
      <trkpt lon="6.985235949978232" lat="46.23305993154645">
        <ele>503.0</ele>
        <time>2013-07-30T17:25:49.000Z</time>
      </trkpt>
      <trkpt lon="6.985254976898432" lat="46.233904995024204">
        <ele>491.20001220703125</ele>
        <time>2013-07-30T17:25:54.000Z</time>
      </trkpt>
      <trkpt lon="6.985329994931817" lat="46.2344179674983">
        <ele>481.20001220703125</ele>
        <time>2013-07-30T17:25:57.000Z</time>
      </trkpt>
      <trkpt lon="6.9852739199995995" lat="46.23458594083786">
        <ele>481.20001220703125</ele>
        <time>2013-07-30T17:25:58.000Z</time>
      </trkpt>
      <trkpt lon="6.985213989391923" lat="46.234918953850865">
        <ele>479.3999938964844</ele>
        <time>2013-07-30T17:26:00.000Z</time>
      </trkpt>
      <trkpt lon="6.984957922250032" lat="46.23565698042512">
        <ele>474.79998779296875</ele>
        <time>2013-07-30T17:26:05.000Z</time>
      </trkpt>
      <trkpt lon="6.9849019311368465" lat="46.23596593737602">
        <ele>469.3999938964844</ele>
        <time>2013-07-30T17:26:07.000Z</time>
      </trkpt>
      <trkpt lon="6.984897991642356" lat="46.2362589687109">
        <ele>460.3999938964844</ele>
        <time>2013-07-30T17:26:09.000Z</time>
      </trkpt>
      <trkpt lon="6.984708979725838" lat="46.236769929528236">
        <ele>452.6000061035156</ele>
        <time>2013-07-30T17:26:13.000Z</time>
      </trkpt>
      <trkpt lon="6.984474956989288" lat="46.23734098859131">
        <ele>442.79998779296875</ele>
        <time>2013-07-30T17:26:17.000Z</time>
      </trkpt>
      <trkpt lon="6.984017975628376" lat="46.23810198158026">
        <ele>429.6000061035156</ele>
        <time>2013-07-30T17:26:22.000Z</time>
      </trkpt>
      <trkpt lon="6.9835669454187155" lat="46.238676980137825">
        <ele>424.20001220703125</ele>
        <time>2013-07-30T17:26:26.000Z</time>
      </trkpt>
      <trkpt lon="6.9833289831876755" lat="46.2389269284904">
        <ele>420.3999938964844</ele>
        <time>2013-07-30T17:26:28.000Z</time>
      </trkpt>
      <trkpt lon="6.9831599202007055" lat="46.239237980917096">
        <ele>415.6000061035156</ele>
        <time>2013-07-30T17:26:31.000Z</time>
      </trkpt>
      <trkpt lon="6.983332922682166" lat="46.239361949265">
        <ele>407.79998779296875</ele>
        <time>2013-07-30T17:26:33.000Z</time>
      </trkpt>
      <trkpt lon="6.983458986505866" lat="46.23942397534847">
        <ele>406.0</ele>
        <time>2013-07-30T17:26:34.000Z</time>
      </trkpt>
      <trkpt lon="6.984364986419678" lat="46.2398439925164">
        <ele>400.20001220703125</ele>
        <time>2013-07-30T17:26:41.000Z</time>
      </trkpt>
      <trkpt lon="6.984908971935511" lat="46.240156972780824">
        <ele>399.79998779296875</ele>
        <time>2013-07-30T17:26:46.000Z</time>
      </trkpt>
      <trkpt lon="6.984979966655374" lat="46.2402359303087">
        <ele>399.6000061035156</ele>
        <time>2013-07-30T17:26:47.000Z</time>
      </trkpt>
      <trkpt lon="6.985461926087737" lat="46.24085392802954">
        <ele>399.0</ele>
        <time>2013-07-30T17:26:55.000Z</time>
      </trkpt>
      <trkpt lon="6.985880937427282" lat="46.24126598238945">
        <ele>398.79998779296875</ele>
        <time>2013-07-30T17:27:01.000Z</time>
      </trkpt>
      <trkpt lon="6.986377984285355" lat="46.24160695821047">
        <ele>398.79998779296875</ele>
        <time>2013-07-30T17:27:07.000Z</time>
      </trkpt>
      <trkpt lon="6.987023977562785" lat="46.242006942629814">
        <ele>399.79998779296875</ele>
        <time>2013-07-30T17:27:15.000Z</time>
      </trkpt>
      <trkpt lon="6.987487999722362" lat="46.24234297312796">
        <ele>400.0</ele>
        <time>2013-07-30T17:27:22.000Z</time>
      </trkpt>
      <trkpt lon="6.987806931138039" lat="46.24259392730892">
        <ele>400.79998779296875</ele>
        <time>2013-07-30T17:27:28.000Z</time>
      </trkpt>
      <trkpt lon="6.987947998568416" lat="46.24269995838404">
        <ele>401.0</ele>
        <time>2013-07-30T17:27:32.000Z</time>
      </trkpt>
      <trkpt lon="6.988111948594451" lat="46.24264195561409">
        <ele>401.3999938964844</ele>
        <time>2013-07-30T17:27:33.000Z</time>
      </trkpt>
      <trkpt lon="6.98857999406755" lat="46.24246895313263">
        <ele>401.79998779296875</ele>
        <time>2013-07-30T17:27:40.000Z</time>
      </trkpt>
      <trkpt lon="6.988975955173373" lat="46.24234297312796">
        <ele>401.79998779296875</ele>
        <time>2013-07-30T17:27:46.000Z</time>
      </trkpt>
      <trkpt lon="6.989218946546316" lat="46.242267955094576">
        <ele>401.6000061035156</ele>
        <time>2013-07-30T17:27:50.000Z</time>
      </trkpt>
      <trkpt lon="6.989682968705893" lat="46.242569955065846">
        <ele>401.0</ele>
        <time>2013-07-30T17:27:56.000Z</time>
      </trkpt>
      <trkpt lon="6.990158976987004" lat="46.24282895587385">
        <ele>399.20001220703125</ele>
        <time>2013-07-30T17:28:04.000Z</time>
      </trkpt>
      <trkpt lon="6.990794995799661" lat="46.24322198331356">
        <ele>398.20001220703125</ele>
        <time>2013-07-30T17:28:12.000Z</time>
      </trkpt>
      <trkpt lon="6.9913239777088165" lat="46.243514930829406">
        <ele>399.3999938964844</ele>
        <time>2013-07-30T17:28:19.000Z</time>
      </trkpt>
      <trkpt lon="6.991867963224649" lat="46.24384299851954">
        <ele>401.0</ele>
        <time>2013-07-30T17:28:26.000Z</time>
      </trkpt>
      <trkpt lon="6.992190917953849" lat="46.24400292523205">
        <ele>401.79998779296875</ele>
        <time>2013-07-30T17:28:30.000Z</time>
      </trkpt>
      <trkpt lon="6.992767928168178" lat="46.2442559748888">
        <ele>402.6000061035156</ele>
        <time>2013-07-30T17:28:37.000Z</time>
      </trkpt>
      <trkpt lon="6.993463961407542" lat="46.24440399929881">
        <ele>402.20001220703125</ele>
        <time>2013-07-30T17:28:45.000Z</time>
      </trkpt>
      <trkpt lon="6.994020938873291" lat="46.24454598873854">
        <ele>402.79998779296875</ele>
        <time>2013-07-30T17:28:53.000Z</time>
      </trkpt>
      <trkpt lon="6.994527960196137" lat="46.244672974571586">
        <ele>403.0</ele>
        <time>2013-07-30T17:28:59.000Z</time>
      </trkpt>
      <trkpt lon="6.994811939075589" lat="46.244733994826674">
        <ele>403.0</ele>
        <time>2013-07-30T17:29:03.000Z</time>
      </trkpt>
      <trkpt lon="6.995408982038498" lat="46.24489392153919">
        <ele>403.3999938964844</ele>
        <time>2013-07-30T17:29:11.000Z</time>
      </trkpt>
      <trkpt lon="6.996151953935623" lat="46.24509399756789">
        <ele>404.20001220703125</ele>
        <time>2013-07-30T17:29:21.000Z</time>
      </trkpt>
      <trkpt lon="6.996429981663823" lat="46.24517999589443">
        <ele>404.3999938964844</ele>
        <time>2013-07-30T17:29:25.000Z</time>
      </trkpt>
      <trkpt lon="6.99655294418335" lat="46.245231963694096">
        <ele>404.6000061035156</ele>
        <time>2013-07-30T17:29:28.000Z</time>
      </trkpt>
      <trkpt lon="6.996895931661129" lat="46.245253924280405">
        <ele>404.79998779296875</ele>
        <time>2013-07-30T17:29:32.000Z</time>
      </trkpt>
      <trkpt lon="6.997148981317878" lat="46.24550596810877">
        <ele>404.79998779296875</ele>
        <time>2013-07-30T17:29:35.000Z</time>
      </trkpt>
      <trkpt lon="6.997275967150927" lat="46.2454629689455">
        <ele>405.0</ele>
        <time>2013-07-30T17:29:37.000Z</time>
      </trkpt>
      <trkpt lon="6.997419968247414" lat="46.24541896395385">
        <ele>405.3999938964844</ele>
        <time>2013-07-30T17:29:39.000Z</time>
      </trkpt>
      <trkpt lon="6.997722974047065" lat="46.245381999760866">
        <ele>405.79998779296875</ele>
        <time>2013-07-30T17:29:43.000Z</time>
      </trkpt>
      <trkpt lon="6.9986009784042835" lat="46.245576962828636">
        <ele>407.79998779296875</ele>
        <time>2013-07-30T17:29:55.000Z</time>
      </trkpt>
      <trkpt lon="6.999391978606582" lat="46.24575792811811">
        <ele>410.3999938964844</ele>
        <time>2013-07-30T17:30:06.000Z</time>
      </trkpt>
      <trkpt lon="7.0001159235835075" lat="46.245918944478035">
        <ele>410.79998779296875</ele>
        <time>2013-07-30T17:30:16.000Z</time>
      </trkpt>
      <trkpt lon="7.000840958207846" lat="46.24607593752444">
        <ele>409.3999938964844</ele>
        <time>2013-07-30T17:30:26.000Z</time>
      </trkpt>
      <trkpt lon="7.0015269331634045" lat="46.24623192474246">
        <ele>409.0</ele>
        <time>2013-07-30T17:30:36.000Z</time>
      </trkpt>
      <trkpt lon="7.002024985849857" lat="46.246347930282354">
        <ele>410.0</ele>
        <time>2013-07-30T17:30:43.000Z</time>
      </trkpt>
      <trkpt lon="7.002410972490907" lat="46.246454967185855">
        <ele>411.6000061035156</ele>
        <time>2013-07-30T17:30:48.000Z</time>
      </trkpt>
      <trkpt lon="7.002907935529947" lat="46.246584970504045">
        <ele>412.79998779296875</ele>
        <time>2013-07-30T17:30:54.000Z</time>
      </trkpt>
      <trkpt lon="7.003400959074497" lat="46.246731989085674">
        <ele>414.0</ele>
        <time>2013-07-30T17:31:02.000Z</time>
      </trkpt>
      <trkpt lon="7.0036709401756525" lat="46.246823938563466">
        <ele>414.20001220703125</ele>
        <time>2013-07-30T17:31:09.000Z</time>
      </trkpt>
      <trkpt lon="7.003761967644095" lat="46.246885964646935">
        <ele>414.20001220703125</ele>
        <time>2013-07-30T17:31:11.000Z</time>
      </trkpt>
      <trkpt lon="7.004171926528215" lat="46.24713599681854">
        <ele>414.3999938964844</ele>
        <time>2013-07-30T17:31:18.000Z</time>
      </trkpt>
      <trkpt lon="7.004657993093133" lat="46.24732693657279">
        <ele>413.6000061035156</ele>
        <time>2013-07-30T17:31:25.000Z</time>
      </trkpt>
      <trkpt lon="7.0054359175264835" lat="46.247549979016185">
        <ele>414.0</ele>
        <time>2013-07-30T17:31:36.000Z</time>
      </trkpt>
      <trkpt lon="7.005953919142485" lat="46.24764796346426">
        <ele>415.6000061035156</ele>
        <time>2013-07-30T17:31:43.000Z</time>
      </trkpt>
      <trkpt lon="7.0063159335404634" lat="46.24771099537611">
        <ele>416.3999938964844</ele>
        <time>2013-07-30T17:31:48.000Z</time>
      </trkpt>
      <trkpt lon="7.006578957661986" lat="46.24775994569063">
        <ele>417.0</ele>
        <time>2013-07-30T17:31:52.000Z</time>
      </trkpt>
      <trkpt lon="7.006869977340102" lat="46.24750396236777">
        <ele>417.0</ele>
        <time>2013-07-30T17:31:57.000Z</time>
      </trkpt>
      <trkpt lon="7.007193937897682" lat="46.247207997366786">
        <ele>418.20001220703125</ele>
        <time>2013-07-30T17:32:05.000Z</time>
      </trkpt>
      <trkpt lon="7.007457967847586" lat="46.24689493328333">
        <ele>419.79998779296875</ele>
        <time>2013-07-30T17:32:13.000Z</time>
      </trkpt>
      <trkpt lon="7.007677992805839" lat="46.246645990759134">
        <ele>420.79998779296875</ele>
        <time>2013-07-30T17:32:19.000Z</time>
      </trkpt>
      <trkpt lon="7.00798099860549" lat="46.24641892500222">
        <ele>421.79998779296875</ele>
        <time>2013-07-30T17:32:26.000Z</time>
      </trkpt>
      <trkpt lon="7.0083229802548885" lat="46.24625698663294">
        <ele>422.79998779296875</ele>
        <time>2013-07-30T17:32:34.000Z</time>
      </trkpt>
      <trkpt lon="7.008538981899619" lat="46.246155984699726">
        <ele>423.79998779296875</ele>
        <time>2013-07-30T17:32:40.000Z</time>
      </trkpt>
      <trkpt lon="7.008802928030491" lat="46.24603293836117">
        <ele>424.79998779296875</ele>
        <time>2013-07-30T17:32:47.000Z</time>
      </trkpt>
      <trkpt lon="7.008957993239164" lat="46.245959931984544">
        <ele>425.20001220703125</ele>
        <time>2013-07-30T17:32:51.000Z</time>
      </trkpt>
      <trkpt lon="7.009083973243833" lat="46.245896983891726">
        <ele>425.6000061035156</ele>
        <time>2013-07-30T17:32:55.000Z</time>
      </trkpt>
      <trkpt lon="7.0095619931817055" lat="46.246134946122766">
        <ele>425.20001220703125</ele>
        <time>2013-07-30T17:33:02.000Z</time>
      </trkpt>
      <trkpt lon="7.009961977601051" lat="46.24627492390573">
        <ele>425.20001220703125</ele>
        <time>2013-07-30T17:33:10.000Z</time>
      </trkpt>
      <trkpt lon="7.010335978120565" lat="46.246368968859315">
        <ele>425.0</ele>
        <time>2013-07-30T17:33:17.000Z</time>
      </trkpt>
      <trkpt lon="7.010391969233751" lat="46.24637894332409">
        <ele>425.0</ele>
        <time>2013-07-30T17:33:18.000Z</time>
      </trkpt>
      <trkpt lon="7.010754989460111" lat="46.24644096940756">
        <ele>425.3999938964844</ele>
        <time>2013-07-30T17:33:24.000Z</time>
      </trkpt>
      <trkpt lon="7.011244995519519" lat="46.24650098383427">
        <ele>427.20001220703125</ele>
        <time>2013-07-30T17:33:32.000Z</time>
      </trkpt>
      <trkpt lon="7.011729972437024" lat="46.24653694219887">
        <ele>429.20001220703125</ele>
        <time>2013-07-30T17:33:41.000Z</time>
      </trkpt>
      <trkpt lon="7.011781940236688" lat="46.246540965512395">
        <ele>429.20001220703125</ele>
        <time>2013-07-30T17:33:42.000Z</time>
      </trkpt>
      <trkpt lon="7.011984949931502" lat="46.24631096608937">
        <ele>430.0</ele>
        <time>2013-07-30T17:33:49.000Z</time>
      </trkpt>
      <trkpt lon="7.012097937986255" lat="46.24623091891408">
        <ele>430.6000061035156</ele>
        <time>2013-07-30T17:33:52.000Z</time>
      </trkpt>
      <trkpt lon="7.012375965714455" lat="46.246115919202566">
        <ele>431.6000061035156</ele>
        <time>2013-07-30T17:33:57.000Z</time>
      </trkpt>
      <trkpt lon="7.012501945719123" lat="46.24607392586768">
        <ele>432.20001220703125</ele>
        <time>2013-07-30T17:34:01.000Z</time>
      </trkpt>
      <trkpt lon="7.012585932388902" lat="46.24605791643262">
        <ele>432.3999938964844</ele>
        <time>2013-07-30T17:34:06.000Z</time>
      </trkpt>
      <trkpt lon="7.012585932388902" lat="46.24605791643262">
        <ele>432.3999938964844</ele>
        <time>2013-07-30T17:34:07.000Z</time>
      </trkpt>
    </trkseg>
  </trk>
</gpx>
